[[{"header":{"parameterUnit":"m.s-1","parameterCategory":1,"la1":30.6,"la2":28.766,"lo1":-90.7593,"lo2":-88.6598,"dx":0.0162,"dy":0.0183,"nx":116,"ny":114,"refTime":"2023-02-10T06:00:00:Z","depth":0,"parameterNumber":2,"parameterNumberName":"U-component_of_WINDS"},"data":[0.0,0.0,0.0,0.0,0.0,0.0,0.0,0.0,0.0,0.0,0.0,0.0,0.0,0.0,0.0,0.0,0.0,0.0,0.0,0.0,0.0,0.0,0.0,0.0,0.0,0.0,0.0,0.0,0.0,0.0,0.0,0.0,0.0,0.0,0.0,0.0,0.0,0.0,0.0,0.0,0.0,0.0,0.0,0.0,0.0,0.0,0.0,0.0,0.0,0.0,0.0,0.0,0.0,0.0,0.0,0.0,0.0,0.0,0.0,0.0,0.0,0.0,0.0,0.0,0.0,0.0,0.0,0.0,0.0,0.0,0.0,0.0,0.0,0.0,0.0,0.0,0.0,0.0,0.0,0.0,0.0,0.0,0.0,0.0,0.0,0.0,0.0,0.0,0.0,0.0,0.0,0.0,0.0,0.0,0.0,0.0,0.0,0.0,0.0,0.0,0.0,0.0,0.0,0.0,0.0,0.0,0.0,0.0,0.0,0.0,0.0,0.0,0.0,0.0,0.0,0.0,0.0,0.0,0.0,0.0,0.0,0.0,0.0,0.0,0.0,0.0,0.0,0.0,0.0,0.0,0.0,0.0,0.0,0.0,0.0,0.0,0.0,0.0,0.0,0.0,0.0,0.0,0.0,0.0,0.0,0.0,0.0,0.0,0.0,0.0,0.0,0.0,0.0,0.0,0.0,0.0,0.0,0.0,0.0,0.0,0.0,0.0,0.0,0.0,0.0,0.0,0.0,0.0,0.0,0.0,0.0,0.0,0.0,0.0,0.0,0.0,0.0,0.0,0.0,0.0,0.0,0.0,0.0,0.0,0.0,0.0,0.0,0.0,0.0,0.0,0.0,0.0,0.0,0.0,0.0,0.0,0.0,0.0,0.0,0.0,0.0,0.0,0.0,0.0,0.0,0.0,0.0,0.0,0.0,0.0,0.0,0.0,0.0,0.0,0.0,0.0,0.0,0.0,0.0,0.0,0.0,0.0,0.0,0.0,0.0,0.0,0.0,0.0,0.0,0.0,0.0,0.0,0.0,0.0,0.0,0.0,0.0,0.0,0.0,0.0,0.0,0.0,0.0,0.0,0.0,0.0,0.0,0.0,0.0,0.0,0.0,0.0,0.0,0.0,0.0,0.0,0.0,0.0,0.0,0.0,0.0,0.0,0.0,0.0,0.0,0.0,0.0,0.0,0.0,0.0,0.0,0.0,0.0,0.0,0.0,0.0,0.0,0.0,0.0,0.0,0.0,0.0,0.0,0.0,0.0,0.0,0.0,0.0,0.0,0.0,0.0,0.0,0.0,0.0,0.0,0.0,0.0,0.0,0.0,0.0,0.0,0.0,0.0,0.0,0.0,0.0,0.0,0.0,0.0,0.0,0.0,0.0,0.0,0.0,0.0,0.0,0.0,0.0,0.0,0.0,0.0,0.0,0.0,0.0,0.0,0.0,0.0,0.0,0.0,0.0,0.0,0.0,0.0,0.0,0.0,0.0,0.0,0.0,0.0,0.0,0.0,0.0,0.0,0.0,0.0,0.0,0.0,0.0,0.0,0.0,0.0,0.0,0.0,0.0,0.0,0.0,0.0,0.0,0.0,0.0,0.0,0.0,0.0,0.0,0.0,0.0,0.0,0.0,0.0,0.0,0.0,0.0,0.0,0.0,0.0,0.0,0.0,0.0,0.0,0.0,0.0,0.0,0.0,0.0,0.0,0.0,0.0,0.0,0.0,0.0,0.0,0.0,0.0,0.0,0.0,0.0,0.0,0.0,0.0,0.0,0.0,0.0,0.0,0.0,0.0,0.0,0.0,0.0,0.0,0.0,0.0,0.0,0.0,0.0,0.0,0.0,0.0,0.0,0.0,0.0,0.0,0.0,0.0,0.0,0.0,0.0,0.0,0.0,0.0,0.0,0.0,0.0,0.0,0.0,0.0,0.0,0.0,0.0,0.0,0.0,0.0,0.0,0.0,0.0,0.0,0.0,0.0,0.0,0.0,0.0,0.0,0.0,0.0,0.0,0.0,0.0,0.0,0.0,0.0,0.0,0.0,0.0,0.0,0.0,0.0,0.0,0.0,0.0,0.0,0.0,0.0,0.0,0.0,0.0,0.0,0.0,0.0,0.0,0.0,0.0,0.0,0.0,0.0,0.0,0.0,0.0,0.0,0.0,0.0,0.0,0.0,0.0,0.0,0.0,0.0,0.0,0.0,0.0,0.0,0.0,0.0,0.0,0.0,0.0,0.0,0.0,0.0,0.0,0.0,0.0,0.0,0.0,0.0,0.0,0.0,0.0,0.0,0.0,0.0,0.0,0.0,0.0,0.0,0.0,0.0,0.0,0.0,0.0,0.0,0.0,0.0,0.0,0.0,0.0,0.0,0.0,0.0,0.0,0.0,0.0,0.0,0.0,0.0,0.0,0.0,0.0,0.0,0.0,0.0,0.0,0.0,0.0,0.0,0.0,0.0,0.0,0.0,0.0,0.0,0.0,0.0,0.0,0.0,0.0,0.0,0.0,0.0,0.0,0.0,0.0,0.0,0.0,0.0,0.0,0.0,0.0,0.0,0.0,0.0,0.0,0.0,0.0,0.0,0.0,0.0,0.0,0.0,0.0,0.0,0.0,0.0,0.0,0.0,0.0,0.0,0.0,0.0,0.0,0.0,0.0,0.0,0.0,0.0,0.0,0.0,0.0,0.0,0.0,0.0,0.0,0.0,0.0,0.0,0.0,0.0,0.0,0.0,0.0,0.0,0.0,0.0,0.0,0.0,0.0,0.0,0.0,0.0,0.0,0.0,0.0,0.0,0.0,0.0,0.0,0.0,0.0,0.0,0.0,0.0,0.0,0.0,0.0,0.0,0.0,0.0,0.0,0.0,0.0,0.0,0.0,0.0,0.0,0.0,0.0,0.0,0.0,0.0,0.0,0.0,0.0,0.0,0.0,0.0,0.0,0.0,0.0,0.0,0.0,0.0,0.0,0.0,0.0,0.0,0.0,0.0,0.0,0.0,0.0,0.0,0.0,0.0,0.0,0.0,0.0,0.0,0.0,0.0,0.0,0.0,0.0,0.0,0.0,0.0,0.0,0.0,0.0,0.0,0.0,0.0,0.0,0.0,0.0,0.0,0.0,0.0,0.0,0.0,0.0,0.0,0.0,0.0,0.0,0.0,0.0,0.0,0.0,0.0,0.0,0.0,0.0,0.0,0.0,0.0,0.0,0.0,0.0,0.0,0.0,0.0,0.0,0.0,0.0,0.0,0.0,0.0,0.0,0.0,0.0,0.0,0.0,0.0,0.0,0.0,0.0,0.0,0.0,0.0,0.0,0.0,0.0,0.0,0.0,0.0,0.0,0.0,0.0,0.0,0.0,0.0,0.0,0.0,0.0,0.0,0.0,0.0,0.0,0.0,0.0,0.0,0.0,0.0,0.0,0.0,0.0,0.0,0.0,0.0,0.0,0.0,0.0,0.0,0.0,0.0,0.0,0.0,0.0,0.0,0.0,0.0,0.0,0.0,0.0,0.0,0.0,0.0,0.0,0.0,0.0,0.0,0.0,0.0,0.0,0.0,0.0,0.0,0.0,0.0,0.0,0.0,0.0,0.0,0.0,0.0,0.0,0.0,0.0,0.0,0.0,0.0,0.0,0.0,0.0,0.0,0.0,0.0,0.0,0.0,0.0,0.0,0.0,0.0,0.0,0.0,0.0,0.0,0.0,0.0,0.0,0.0,0.0,0.0,0.0,0.0,0.0,0.0,0.0,0.0,0.0,0.0,0.0,0.0,0.0,0.0,0.0,0.0,0.0,0.0,0.0,0.0,0.0,0.0,0.0,0.0,0.0,0.0,0.0,0.0,0.0,0.0,0.0,0.0,0.0,0.0,0.0,0.0,0.0,0.0,0.0,0.0,0.0,0.0,0.0,0.0,0.0,0.0,0.0,0.0,0.0,0.0,0.0,0.0,0.0,0.0,0.0,0.0,0.0,0.0,0.0,0.0,0.0,0.0,0.0,0.0,0.0,0.0,0.0,0.0,0.0,0.0,0.0,0.0,0.0,0.0,0.0,0.0,0.0,0.0,0.0,0.0,0.0,0.0,0.0,0.0,0.0,0.0,0.0,0.0,0.0,0.0,0.0,0.0,0.0,0.0,0.0,0.0,0.0,0.0,0.0,0.0,0.0,0.0,0.0,0.0,0.0,0.0,0.0,0.0,0.0,0.0,0.0,0.0,0.0,0.0,0.0,0.0,0.0,0.0,0.0,0.0,0.0,0.0,0.0,0.0,0.0,0.0,0.0,0.0,0.0,0.0,0.0,0.0,0.0,0.0,0.0,0.0,0.0,0.0,0.0,0.0,0.0,0.0,0.0,0.0,0.0,0.0,0.0,0.0,0.0,0.0,0.0,0.0,0.0,0.0,0.0,0.0,0.0,0.0,0.0,0.0,0.0,0.0,0.0,0.0,0.0,0.0,0.0,0.0,0.0,0.0,0.0,0.0,0.0,0.0,0.0,0.0,0.0,0.0,0.0,0.0,0.0,0.0,0.0,0.0,0.0,0.0,0.0,0.0,0.0,0.0,0.0,0.0,0.0,0.0,0.0,0.0,0.0,0.0,0.0,0.0,0.0,0.0,0.0,0.0,0.0,0.0,0.0,0.0,0.0,0.0,0.0,0.0,0.0,0.0,0.0,0.0,0.0,0.0,0.0,0.0,0.0,0.0,0.0,0.0,0.0,0.0,0.0,0.0,0.0,0.0,0.0,0.0,0.0,0.0,0.0,0.0,0.0,0.0,0.0,0.0,0.0,0.0,0.0,0.0,0.0,0.0,0.0,0.0,0.0,0.0,0.0,0.0,0.0,0.0,0.0,0.0,0.0,0.0,0.0,0.0,0.0,0.0,0.0,0.0,0.0,0.0,0.0,0.0,0.0,0.0,0.0,0.0,0.0,0.0,0.0,0.0,0.0,0.0,0.0,0.0,0.0,0.0,0.0,0.0,0.0,0.0,0.0,0.0,0.0,0.0,0.0,0.0,0.0,0.0,0.0,0.0,0.0,0.0,0.0,0.0,0.0,0.0,0.0,0.0,0.0,0.0,0.0,0.0,0.0,0.0,0.0,0.0,0.0,0.0,0.0,0.0,0.0,0.0,0.0,0.0,0.0,0.0,0.0,0.0,0.0,0.0,0.0,0.0,0.0,0.0,0.0,0.0,0.0,0.0,0.0,0.0,0.0,0.0,0.0,0.0,0.0,0.0,0.0,0.0,0.0,0.0,0.0,0.0,0.0,0.0,0.0,0.0,0.0,0.0,0.0,0.0,0.0,0.0,0.0,0.0,0.0,0.0,0.0,0.0,0.0,0.0,0.0,0.0,0.0,0.0,0.0,0.0,0.0,0.0,0.0,0.0,0.0,0.0,0.0,0.0,0.0,0.0,0.0,0.0,0.0,0.0,0.0,0.0,0.0,0.0,0.0,0.0,0.0,0.0,0.0,0.0,0.0,0.0,0.0,0.0,0.0,0.0,0.0,0.0,0.0,0.0,0.0,0.0,0.0,0.0,0.0,0.0,0.0,0.0,0.0,0.0,0.0,0.0,0.0,0.0,0.0,0.0,0.0,0.0,0.0,0.0,0.0,0.0,0.0,0.0,0.0,0.0,0.0,0.0,0.0,0.0,0.0,0.0,0.0,0.0,0.0,0.0,0.0,0.0,0.0,0.0,0.0,0.0,0.0,0.0,0.0,0.0,0.0,0.0,0.0,0.0,0.0,0.0,0.0,0.0,0.0,0.0,0.0,0.0,0.0,0.0,0.0,0.0,0.0,0.0,0.0,0.0,0.0,0.0,0.0,0.0,0.0,0.0,0.0,0.0,0.0,0.0,0.0,0.0,0.0,0.0,0.0,0.0,0.0,0.0,0.0,0.0,0.0,0.0,0.0,0.0,0.0,0.0,0.0,0.0,0.0,0.0,0.0,0.0,0.0,0.0,0.0,0.0,0.0,0.0,0.0,0.0,0.0,0.0,0.0,0.0,0.0,0.0,0.0,0.0,0.0,0.0,0.0,0.0,0.0,0.0,0.0,0.0,0.0,0.0,0.0,0.0,0.0,0.0,0.0,0.0,0.0,0.0,0.0,0.0,0.0,5.1798,0.0,0.0,0.0,0.0,0.0,0.0,0.0,0.0,0.0,0.0,0.0,0.0,0.0,0.0,0.0,0.0,0.0,0.0,0.0,0.0,0.0,0.0,0.0,0.0,0.0,0.0,0.0,0.0,0.0,0.0,0.0,0.0,0.0,0.0,0.0,0.0,0.0,0.0,0.0,0.0,0.0,0.0,0.0,0.0,0.0,0.0,0.0,0.0,0.0,0.0,0.0,0.0,0.0,0.0,0.0,0.0,0.0,0.0,0.0,0.0,0.0,0.0,0.0,0.0,0.0,0.0,0.0,0.0,0.0,0.0,0.0,0.0,0.0,0.0,0.0,0.0,0.0,0.0,0.0,0.0,0.0,0.0,0.0,0.0,0.0,0.0,0.0,0.0,0.0,0.0,0.0,0.0,0.0,0.0,0.0,0.0,0.0,0.0,0.0,0.0,0.0,0.0,0.0,0.0,0.0,0.0,0.0,0.0,0.0,0.0,0.0,0.0,0.0,0.0,0.0,0.0,5.3982,0.0,0.0,0.0,0.0,0.0,0.0,0.0,0.0,0.0,0.0,0.0,0.0,0.0,0.0,0.0,0.0,0.0,0.0,0.0,0.0,0.0,0.0,0.0,0.0,0.0,0.0,0.0,0.0,0.0,0.0,0.0,0.0,0.0,0.0,0.0,0.0,0.0,0.0,0.0,0.0,0.0,0.0,0.0,0.0,0.0,0.0,0.0,0.0,0.0,0.0,0.0,0.0,0.0,0.0,0.0,0.0,0.0,0.0,0.0,0.0,0.0,0.0,0.0,0.0,0.0,0.0,0.0,0.0,0.0,0.0,0.0,0.0,0.0,0.0,0.0,0.0,0.0,0.0,0.0,0.0,0.0,0.0,0.0,0.0,0.0,0.0,0.0,0.0,0.0,0.0,0.0,0.0,0.0,0.0,0.0,0.0,0.0,0.0,0.0,0.0,0.0,0.0,0.0,0.0,0.0,0.0,0.0,0.0,0.0,0.0,6.4096,6.4216,6.4695,6.5144,6.0805,5.8321,5.7393,0.0,0.0,0.0,0.0,0.0,0.0,0.0,0.0,0.0,0.0,0.0,0.0,0.0,0.0,0.0,0.0,0.0,0.0,0.0,0.0,0.0,0.0,0.0,0.0,0.0,0.0,0.0,0.0,0.0,0.0,0.0,0.0,0.0,0.0,0.0,0.0,0.0,0.0,0.0,0.0,0.0,0.0,0.0,0.0,0.0,0.0,0.0,0.0,0.0,0.0,0.0,0.0,0.0,0.0,0.0,0.0,0.0,0.0,0.0,0.0,0.0,0.0,0.0,0.0,0.0,0.0,0.0,0.0,0.0,0.0,0.0,0.0,0.0,0.0,0.0,0.0,0.0,0.0,0.0,0.0,0.0,0.0,0.0,0.0,0.0,0.0,0.0,5.0029,4.9097,0.0,0.0,0.0,0.0,0.0,0.0,0.0,0.0,0.0,0.0,0.0,0.0,0.0,0.0,6.281,6.4096,6.4844,6.5114,6.6939,6.7956,6.8226,6.8824,6.9722,7.0799,7.0111,0.0,6.2091,6.1014,0.0,0.0,0.0,0.0,0.0,0.0,0.0,0.0,0.0,0.0,0.0,0.0,0.0,0.0,0.0,0.0,0.0,0.0,0.0,0.0,0.0,0.0,0.0,0.0,0.0,0.0,0.0,0.0,0.0,0.0,0.0,0.0,0.0,0.0,0.0,0.0,0.0,0.0,0.0,0.0,0.0,0.0,0.0,0.0,0.0,0.0,0.0,0.0,0.0,0.0,0.0,0.0,0.0,0.0,0.0,0.0,0.0,0.0,0.0,0.0,0.0,0.0,0.0,0.0,0.0,0.0,0.0,0.0,0.0,0.0,0.0,0.0,0.0,0.0,0.0,0.0,0.0,0.0,0.0,0.0,0.0,0.0,0.0,0.0,0.0,5.0685,5.2532,5.163,5.3,5.3683,0.0,0.0,0.0,0.0,0.0,0.0,0.0,0.0,0.0,6.2361,6.3737,6.4994,6.6221,6.7897,6.9512,7.1009,7.2624,7.439,7.6185,7.6485,7.6933,7.7442,7.7442,7.5347,7.1637,6.8076,6.5562,6.3827,0.0,0.0,0.0,0.0,0.0,0.0,0.0,0.0,0.0,0.0,0.0,0.0,0.0,0.0,0.0,0.0,0.0,0.0,0.0,0.0,0.0,0.0,0.0,0.0,0.0,0.0,0.0,0.0,0.0,0.0,0.0,0.0,0.0,0.0,0.0,0.0,0.0,0.0,0.0,0.0,0.0,0.0,0.0,0.0,0.0,0.0,0.0,0.0,0.0,0.0,0.0,0.0,0.0,0.0,0.0,0.0,0.0,0.0,0.0,0.0,0.0,0.0,0.0,0.0,0.0,0.0,0.0,0.0,0.0,0.0,0.0,0.0,0.0,0.0,0.0,0.0,0.0,0.0,0.0,0.0,0.0,0.0,0.0,5.3204,0.0,5.3803,5.5897,5.6585,0.0,0.0,0.0,0.0,0.0,0.0,6.1014,6.2869,6.4844,6.6969,6.8645,6.9901,7.0739,7.2535,7.451,7.6664,7.7981,7.9986,8.2529,8.2888,8.3038,8.3038,8.3038,8.1991,7.9896,7.442,7.0919,6.8824,6.7178,6.6311,0.0,6.64,6.6849,6.7388,0.0,0.0,0.0,0.0,0.0,0.0,0.0,0.0,0.0,0.0,0.0,0.0,0.0,0.0,0.0,0.0,0.0,0.0,0.0,0.0,0.0,0.0,0.0,0.0,0.0,0.0,0.0,0.0,0.0,0.0,0.0,0.0,0.0,0.0,0.0,0.0,0.0,0.0,0.0,0.0,0.0,0.0,0.0,0.0,0.0,0.0,0.0,0.0,0.0,0.0,0.0,0.0,0.0,0.0,0.0,0.0,0.0,0.0,0.0,0.0,0.0,0.0,0.0,0.0,0.0,0.0,0.0,0.0,0.0,0.0,0.0,0.0,0.0,0.0,0.0,0.0,0.0,0.0,0.0,5.5329,5.8501,0.0,0.0,0.0,0.0,6.0655,6.2002,6.3857,6.646,6.7897,6.9842,7.2445,7.4988,7.6933,7.822,7.9627,8.0674,8.1452,8.2769,8.3786,8.4624,8.5851,8.6419,8.6419,8.6419,8.5671,8.3965,7.8071,7.5198,7.421,7.1607,7.0979,7.1427,7.0829,7.062,7.0649,0.0,0.0,0.0,0.0,0.0,0.0,0.0,0.0,0.0,0.0,0.0,0.0,0.0,0.0,0.0,0.0,0.0,0.0,0.0,0.0,0.0,0.0,0.0,0.0,0.0,0.0,0.0,0.0,0.0,0.0,0.0,0.0,0.0,0.0,0.0,0.0,0.0,0.0,0.0,0.0,0.0,0.0,0.0,0.0,0.0,0.0,0.0,0.0,0.0,0.0,0.0,0.0,0.0,0.0,0.0,0.0,0.0,0.0,0.0,0.0,0.0,0.0,0.0,0.0,0.0,0.0,0.0,0.0,0.0,0.0,0.0,0.0,0.0,0.0,0.0,0.0,0.0,0.0,0.0,6.0894,6.4395,0.0,0.0,6.3887,6.4366,6.4844,6.652,6.8675,7.1278,7.3103,7.5437,7.8519,7.9537,8.0644,8.1961,8.2858,8.3636,8.4325,8.5641,8.6868,8.7915,8.8394,8.8604,8.8604,8.8604,8.8095,8.7077,8.4534,8.1601,7.8549,7.7173,7.6006,7.5078,7.5288,7.5078,7.4839,0.0,0.0,0.0,0.0,0.0,0.0,0.0,0.0,0.0,0.0,0.0,0.0,0.0,0.0,0.0,0.0,0.0,0.0,0.0,0.0,0.0,0.0,0.0,0.0,0.0,0.0,0.0,0.0,0.0,0.0,0.0,0.0,0.0,0.0,0.0,0.0,0.0,0.0,0.0,0.0,0.0,0.0,5.482,0.0,0.0,0.0,0.0,0.0,0.0,0.0,0.0,0.0,0.0,0.0,0.0,0.0,0.0,0.0,0.0,0.0,0.0,0.0,0.0,0.0,0.0,0.0,0.0,0.0,0.0,0.0,0.0,0.0,0.0,0.0,0.0,0.0,0.0,0.0,6.4964,6.5622,6.9782,7.1757,6.9542,7.0111,7.0739,7.0949,7.2624,7.4689,7.7083,7.8669,8.0584,8.3038,8.3547,8.4205,8.5073,8.5731,8.627,8.6718,8.7826,8.8813,8.9681,8.989,8.998,8.998,8.998,8.9621,8.8993,8.8783,8.6629,8.3337,8.223,8.1003,7.9806,7.9806,7.9537,7.9267,0.0,0.0,0.0,0.0,0.0,0.0,0.0,0.0,0.0,0.0,0.0,0.0,0.0,0.0,0.0,0.0,0.0,0.0,0.0,0.0,0.0,0.0,0.0,0.0,0.0,0.0,0.0,0.0,0.0,0.0,0.0,0.0,0.0,0.0,0.0,0.0,0.0,0.0,0.0,0.0,0.0,0.0,5.871,0.0,0.0,0.0,0.0,0.0,0.0,0.0,0.0,0.0,0.0,0.0,0.0,0.0,0.0,0.0,0.0,0.0,0.0,0.0,0.0,0.0,0.0,0.0,0.0,0.0,0.0,0.0,0.0,0.0,0.0,0.0,0.0,0.0,5.9308,6.4425,6.8495,6.9273,7.448,7.7023,7.448,7.6544,7.828,7.8908,8.0195,8.1781,8.3726,8.4444,8.5132,8.5821,8.7077,8.7766,8.7796,8.8424,8.8753,8.8753,8.9412,8.9741,8.9771,9.0399,9.0698,9.0698,9.0698,9.0339,8.9771,9.0399,8.992,8.8544,8.6569,8.5791,8.5611,8.4325,8.3846,8.3696,0.0,0.0,0.0,0.0,0.0,0.0,0.0,0.0,0.0,0.0,0.0,0.0,0.0,0.0,0.0,0.0,0.0,0.0,0.0,0.0,0.0,0.0,0.0,0.0,0.0,0.0,0.0,0.0,0.0,0.0,0.0,0.0,0.0,0.0,0.0,0.0,0.0,0.0,0.0,0.0,0.0,0.0,6.1583,0.0,0.0,0.0,0.0,0.0,0.0,0.0,0.0,0.0,0.0,0.0,0.0,0.0,0.0,0.0,0.0,0.0,0.0,0.0,0.0,0.0,0.0,0.0,0.0,0.0,0.0,0.0,0.0,0.0,0.0,0.0,0.0,6.3558,6.4036,6.9243,7.4121,7.7203,8.0674,8.2529,8.1811,8.238,8.2709,8.2409,8.3606,8.4803,8.5821,8.6509,8.7616,8.9232,8.9172,8.9352,8.983,9.001,9.01,9.01,9.0758,9.1327,9.1805,9.1985,9.2075,9.2075,9.2075,9.1686,9.1087,9.1267,9.0848,9.001,8.8963,8.8005,8.7107,8.6748,8.6,8.5132,0.0,0.0,0.0,0.0,0.0,0.0,0.0,0.0,0.0,0.0,0.0,0.0,0.0,0.0,0.0,0.0,0.0,0.0,0.0,0.0,0.0,0.0,0.0,0.0,0.0,0.0,0.0,0.0,0.0,0.0,0.0,0.0,0.0,0.0,0.0,0.0,0.0,0.0,0.0,0.0,0.0,0.0,6.634,6.248,6.0475,5.9488,5.7603,5.6645,5.5927,5.3832,0.0,0.0,0.0,0.0,0.0,0.0,0.0,0.0,0.0,0.0,0.0,0.0,0.0,0.0,0.0,0.0,0.0,0.0,0.0,0.0,0.0,0.0,0.0,0.0,6.5562,6.9333,7.2206,7.5108,7.831,8.1991,8.4773,8.6389,8.6389,8.6868,8.7048,8.6659,8.7586,8.8454,8.9112,8.9531,9.0279,9.1416,9.1087,9.1087,9.1446,9.1446,9.1446,9.1446,9.1835,9.2224,9.2613,9.2613,9.2613,0.0,9.2613,9.2374,9.2015,9.1746,9.1386,0.0,0.0,0.0,0.0,0.0,8.7856,8.6958,0.0,0.0,0.0,0.0,0.0,0.0,0.0,0.0,0.0,0.0,0.0,0.0,0.0,0.0,0.0,0.0,0.0,0.0,0.0,0.0,0.0,0.0,0.0,0.0,0.0,0.0,0.0,0.0,0.0,0.0,0.0,0.0,0.0,0.0,0.0,0.0,0.0,0.0,0.0,0.0,0.0,0.0,7.1637,6.7328,6.5922,6.5892,6.3348,6.1373,5.9757,5.8261,0.0,0.0,0.0,0.0,0.0,0.0,0.0,0.0,0.0,0.0,0.0,0.0,0.0,0.0,0.0,0.0,0.0,0.0,0.0,0.0,0.0,0.0,0.0,0.0,7.0709,7.5677,8.1422,8.1422,8.1931,8.4923,8.7437,8.8933,8.9023,9.007,9.0788,9.0848,9.1386,9.1985,0.0,0.0,0.0,0.0,0.0,9.2733,9.2823,9.2733,9.2793,9.2943,9.2853,9.2913,9.3032,9.2972,9.2943,9.2943,9.2853,9.2793,9.2673,9.2075,9.1805,9.1656,9.0908,9.0638,9.0579,8.998,8.9352,0.0,0.0,0.0,0.0,0.0,0.0,0.0,0.0,0.0,0.0,0.0,0.0,0.0,0.0,0.0,0.0,0.0,0.0,0.0,0.0,0.0,0.0,0.0,0.0,0.0,0.0,0.0,0.0,0.0,0.0,0.0,0.0,0.0,0.0,0.0,0.0,0.0,0.0,0.0,0.0,0.0,0.0,0.0,7.3223,7.0709,6.8854,6.7298,6.5203,6.4904,6.5114,6.272,6.2002,6.1702,5.9308,0.0,0.0,0.0,0.0,0.0,0.0,0.0,0.0,0.0,0.0,0.0,0.0,0.0,0.0,0.0,0.0,0.0,0.0,0.0,0.0,7.1517,7.5796,7.9986,8.4325,8.612,8.7407,8.8574,8.9621,9.0459,9.0997,9.1267,9.1656,9.2194,9.2344,9.2464,9.2583,9.2613,0.0,9.3361,9.3391,9.3661,9.4229,9.3661,9.393,9.5007,0.0,0.0,9.5785,9.5247,9.5007,9.4977,9.4439,9.39,9.3391,9.3242,9.2883,9.2284,9.1087,9.0638,9.0638,9.0489,9.004,8.9471,0.0,0.0,0.0,0.0,0.0,0.0,0.0,0.0,0.0,0.0,0.0,0.0,0.0,0.0,0.0,0.0,0.0,0.0,0.0,0.0,0.0,0.0,0.0,0.0,0.0,0.0,0.0,0.0,0.0,0.0,0.0,0.0,0.0,0.0,0.0,0.0,0.0,0.0,0.0,0.0,0.0,0.0,7.6634,7.4629,7.3073,7.1757,7.044,6.9722,6.9153,6.7178,6.6071,6.5144,6.3169,6.0984,5.88,0.0,0.0,0.0,0.0,0.0,0.0,0.0,0.0,0.0,0.0,0.0,0.0,0.0,0.0,6.1972,0.0,0.0,7.2056,7.7053,8.0614,8.4025,8.7646,8.9023,8.9801,9.01,9.0728,9.1506,9.2494,9.2613,9.3032,9.402,9.411,9.4229,9.4558,9.4588,9.4738,9.5067,9.5067,9.5247,9.5606,9.5247,9.5576,9.6533,9.5905,9.6294,9.7521,9.6533,9.6264,9.6503,9.5516,9.4917,9.4528,9.387,9.3182,9.2524,9.1865,9.1416,9.1117,9.1117,9.0728,9.016,0.0,0.0,0.0,0.0,0.0,0.0,0.0,0.0,0.0,0.0,0.0,0.0,0.0,0.0,0.0,0.0,0.0,0.0,0.0,0.0,0.0,0.0,0.0,0.0,0.0,0.0,0.0,0.0,0.0,0.0,0.0,0.0,0.0,0.0,0.0,0.0,0.0,0.0,0.0,0.0,0.0,0.0,7.9986,7.813,7.6933,7.6185,7.5377,7.3791,7.1966,7.1188,6.9512,6.7597,6.6819,6.5114,6.2899,6.0236,5.9847,0.0,0.0,0.0,0.0,0.0,0.0,0.0,0.0,0.0,6.0416,6.3079,6.4844,6.7059,7.0799,7.4091,7.7652,8.202,8.4833,8.7496,9.0429,9.1057,9.1267,9.1386,9.1746,9.2464,9.3661,9.39,9.4469,9.5695,9.5785,9.6025,9.6533,9.6563,9.6623,9.6743,9.6743,9.6862,9.7132,9.7012,9.7311,9.8059,9.7431,9.776,9.8867,9.7551,9.7222,9.7611,9.6204,9.5516,9.5306,9.4229,9.3481,9.3002,9.3002,9.2583,9.1985,9.1716,9.1357,9.0997,0.0,0.0,0.0,0.0,0.0,0.0,0.0,0.0,0.0,0.0,0.0,0.0,0.0,0.0,0.0,0.0,0.0,0.0,0.0,0.0,0.0,0.0,0.0,0.0,0.0,0.0,0.0,0.0,0.0,0.0,0.0,0.0,0.0,0.0,0.0,0.0,0.0,0.0,0.0,0.0,0.0,0.0,8.1422,8.0016,7.8699,7.7442,7.6215,7.451,7.2954,7.3971,7.2595,7.0649,7.1697,7.029,6.7717,6.5054,0.0,6.0386,5.7543,5.6107,0.0,5.7214,5.7693,5.874,0.0,0.0,6.5892,6.8555,7.1068,7.3642,7.6425,7.9178,8.214,8.5551,8.7885,8.9771,9.1297,9.2524,9.3481,9.408,9.3691,9.3661,9.4439,9.5037,9.5666,9.6414,9.6473,9.6503,9.6563,9.6563,9.6833,9.7371,9.7401,9.797,9.9167,9.8598,9.8927,10.0154,9.9496,9.9556,10.0214,9.8897,9.8329,9.8299,9.6414,9.5247,9.4708,9.4558,9.4439,9.4379,9.4379,9.396,9.3212,9.2045,9.1955,9.2284,0.0,0.0,0.0,0.0,0.0,0.0,0.0,0.0,0.0,0.0,0.0,0.0,0.0,0.0,0.0,0.0,0.0,0.0,0.0,0.0,0.0,0.0,0.0,0.0,0.0,0.0,0.0,0.0,0.0,0.0,0.0,0.0,0.0,0.0,0.0,0.0,0.0,0.0,0.0,0.0,0.0,0.0,8.22,8.0883,7.9088,7.7023,7.5347,7.3702,0.0,0.0,7.2086,7.1697,7.3073,7.1158,6.8106,6.661,6.3468,0.0,5.8201,0.0,0.0,0.0,6.0715,6.3079,6.667,6.9093,7.1457,7.448,7.6904,7.9297,8.1901,8.4265,8.6509,0.0,9.0339,9.1835,9.3182,9.3481,9.384,9.4528,9.4349,9.4738,9.6144,9.6533,9.6982,9.767,9.8059,9.8269,9.8269,9.8628,9.8957,9.9226,9.9226,9.9496,10.0094,9.9795,10.0094,10.1052,10.0393,10.0603,10.159,10.0304,9.9017,9.788,9.7072,9.6114,9.5187,9.5187,9.5187,9.5127,9.4768,9.4439,9.408,9.3122,9.2703,9.2494,0.0,0.0,0.0,0.0,0.0,0.0,0.0,0.0,0.0,0.0,0.0,0.0,0.0,0.0,0.0,0.0,0.0,0.0,0.0,0.0,0.0,0.0,0.0,0.0,0.0,0.0,0.0,0.0,0.0,0.0,0.0,0.0,0.0,0.0,0.0,0.0,0.0,0.0,0.0,0.0,0.0,0.0,8.232,8.0823,7.816,7.4988,7.3373,7.1577,0.0,0.0,6.9064,6.9722,7.1248,6.9871,6.7537,6.67,6.3169,5.9428,5.883,0.0,0.0,6.1942,6.4755,6.7867,7.1577,7.43,7.6963,8.0045,8.229,8.4325,8.6419,8.8274,0.0,9.0997,9.2434,9.378,9.4738,9.4618,9.4379,9.4319,9.4169,9.4618,9.5995,9.6952,9.785,9.8718,9.9406,9.9765,9.9765,10.0214,10.0573,10.0782,10.0782,10.0872,10.1022,10.1082,10.1291,10.177,10.1261,10.1561,10.2488,10.1082,9.9496,9.776,9.7581,9.6773,9.5606,9.5606,9.5486,9.5277,9.4798,9.4618,9.4558,9.405,9.3571,9.3062,0.0,0.0,0.0,0.0,0.0,0.0,0.0,0.0,0.0,0.0,0.0,0.0,0.0,0.0,0.0,0.0,0.0,0.0,0.0,0.0,0.0,0.0,0.0,0.0,0.0,0.0,0.0,0.0,0.0,0.0,0.0,0.0,0.0,0.0,0.0,0.0,0.0,0.0,0.0,0.0,0.0,0.0,8.1601,7.9597,7.5617,7.1009,7.029,0.0,0.0,0.0,6.3318,6.3677,6.5622,6.661,0.0,6.5473,6.1792,0.0,0.0,0.0,6.2271,6.7448,7.0201,7.2894,7.7472,8.0075,8.229,8.4953,8.7077,8.8693,8.9412,9.0638,9.1746,9.2434,9.4199,9.5516,9.5546,9.6084,9.5755,9.384,9.3062,9.2673,0.0,9.5636,9.8059,9.9376,10.0094,10.0483,10.0483,10.0483,10.0782,10.1381,10.1471,10.177,10.2398,10.2398,10.2428,10.2488,10.2428,10.2488,10.2488,10.1082,9.9765,9.8448,9.779,9.6773,9.5606,9.5606,9.5217,9.4648,9.4618,9.4618,9.4618,9.4588,9.4558,9.4439,0.0,0.0,0.0,0.0,0.0,0.0,0.0,0.0,0.0,0.0,0.0,0.0,0.0,0.0,0.0,0.0,0.0,0.0,0.0,0.0,0.0,0.0,0.0,0.0,0.0,0.0,0.0,0.0,0.0,0.0,0.0,0.0,0.0,0.0,0.0,0.0,0.0,0.0,0.0,0.0,0.0,0.0,8.208,7.8759,7.421,6.9213,0.0,0.0,0.0,0.0,0.0,0.0,6.2121,0.0,0.0,5.9129,0.0,0.0,0.0,0.0,6.8016,7.2475,7.5707,7.8789,8.2529,8.4923,8.6748,8.8065,8.7796,8.7407,8.7646,8.8424,8.9531,9.1057,9.3721,9.6055,9.7341,9.7341,9.6294,9.387,9.3391,0.0,0.0,0.0,0.0,9.803,9.9615,10.0693,10.1082,10.159,10.189,10.2159,10.2159,10.2279,10.2488,10.2488,10.2488,10.2488,10.2488,10.2488,10.2488,10.1082,10.0004,9.9137,9.8478,9.7431,9.6264,9.6683,9.6473,9.5905,9.5905,9.5905,9.5845,9.5426,9.5247,9.5097,0.0,0.0,0.0,0.0,0.0,0.0,0.0,0.0,0.0,0.0,0.0,0.0,0.0,0.0,0.0,0.0,0.0,0.0,0.0,0.0,0.0,0.0,0.0,0.0,0.0,0.0,0.0,0.0,0.0,0.0,0.0,0.0,0.0,0.0,0.0,0.0,0.0,0.0,0.0,0.0,0.0,0.0,7.7143,7.4121,6.9542,0.0,0.0,0.0,0.0,0.0,0.0,0.0,0.0,0.0,0.0,0.0,0.0,0.0,0.0,6.9273,7.3762,7.8011,8.1003,8.3636,8.6479,8.8125,8.9023,8.8993,8.7556,8.612,8.5402,8.5252,8.612,8.8783,9.1416,9.4229,9.7371,9.6833,9.5456,9.378,9.2763,0.0,0.0,0.0,0.0,9.7281,9.9137,10.0513,10.1441,10.2099,10.2488,10.2488,10.2488,10.2488,10.2488,10.2488,10.2488,10.2488,10.2488,10.2488,10.2488,10.1082,10.0393,10.0184,9.9017,9.8059,9.7281,9.7431,9.7132,9.6563,9.6563,9.6563,9.6503,9.5845,9.5606,9.5426,0.0,0.0,0.0,0.0,0.0,0.0,0.0,0.0,0.0,0.0,0.0,0.0,0.0,0.0,0.0,0.0,0.0,0.0,0.0,0.0,0.0,0.0,0.0,0.0,0.0,0.0,0.0,0.0,0.0,0.0,0.0,0.0,0.0,0.0,0.0,0.0,0.0,0.0,0.0,0.0,0.0,0.0,6.7717,6.634,0.0,0.0,0.0,0.0,0.0,0.0,0.0,0.0,0.0,0.0,0.0,0.0,0.0,6.658,7.1787,7.5647,7.9297,8.3786,8.5881,8.7347,8.9262,8.9651,8.9172,8.7826,8.6329,8.4654,0.0,0.0,8.1961,8.5881,8.7945,9.0848,9.5995,9.5127,9.393,0.0,0.0,0.0,0.0,0.0,0.0,9.7222,0.0,10.0004,10.1471,10.2159,10.2488,10.2488,10.2488,10.2488,10.2488,10.2488,10.2488,10.2488,10.2488,10.2488,10.2488,10.1112,10.0872,10.1351,9.9406,9.8568,9.8478,9.782,9.7192,9.6623,9.6653,9.6683,9.6593,9.5935,9.5695,9.5606,0.0,0.0,0.0,0.0,0.0,0.0,0.0,0.0,0.0,0.0,0.0,0.0,0.0,0.0,0.0,0.0,0.0,0.0,0.0,0.0,0.0,0.0,0.0,0.0,0.0,0.0,0.0,0.0,0.0,0.0,0.0,0.0,0.0,0.0,0.0,0.0,0.0,0.0,0.0,0.0,0.0,0.0,6.6251,0.0,0.0,0.0,0.0,0.0,0.0,0.0,0.0,0.0,0.0,0.0,6.0326,0.0,0.0,7.1846,7.6125,8.0434,8.4325,8.7018,8.8304,8.9172,9.016,8.9262,8.7676,8.5851,8.208,7.8489,0.0,0.0,0.0,8.3906,8.9741,0.0,9.8299,9.9167,0.0,0.0,0.0,9.5695,9.4229,9.4229,0.0,0.0,9.8089,9.9256,10.2069,10.2398,10.2488,10.2488,10.2488,10.2488,10.2488,10.2488,10.2488,10.2488,10.2488,10.2488,10.2488,10.159,10.1291,10.1381,9.9885,9.8987,9.8508,9.8329,9.788,9.7311,9.782,9.803,9.794,9.7252,9.7012,9.6862,0.0,0.0,0.0,0.0,0.0,0.0,0.0,0.0,0.0,0.0,0.0,0.0,0.0,0.0,0.0,0.0,0.0,0.0,0.0,0.0,0.0,0.0,0.0,0.0,0.0,0.0,0.0,0.0,0.0,0.0,0.0,0.0,0.0,0.0,0.0,0.0,0.0,0.0,0.0,0.0,0.0,0.0,0.0,0.0,0.0,0.0,0.0,0.0,0.0,0.0,0.0,5.7782,6.0356,6.266,6.5323,6.9961,0.0,7.7233,8.1183,8.5013,8.8215,8.9621,9.0249,9.01,8.8424,8.7197,8.5103,8.0494,7.7173,0.0,0.0,0.0,0.0,0.0,0.0,0.0,9.7611,9.8837,9.9077,0.0,9.8209,0.0,9.6533,9.6414,9.7252,0.0,0.0,9.9137,10.189,10.2309,10.2488,10.2488,10.2488,10.2488,10.2488,10.2488,10.2488,10.2488,10.2488,10.2488,10.2488,10.177,10.165,10.18,0.0,9.9466,9.9346,9.8748,9.8299,9.8,9.8359,9.8538,9.8448,9.776,9.7491,9.7311,0.0,0.0,0.0,0.0,0.0,0.0,0.0,0.0,0.0,0.0,0.0,0.0,0.0,0.0,0.0,0.0,0.0,0.0,0.0,0.0,0.0,0.0,0.0,0.0,0.0,0.0,0.0,0.0,0.0,0.0,0.0,0.0,0.0,0.0,0.0,0.0,0.0,0.0,0.0,0.0,0.0,0.0,0.0,0.0,0.0,0.0,0.0,0.0,0.0,0.0,6.0236,6.1613,6.5114,6.8405,7.1876,7.6514,7.9567,8.229,8.615,8.8963,9.0908,9.1596,9.1566,9.019,8.5731,8.4175,8.1512,7.3941,0.0,0.0,6.7119,0.0,7.3851,7.7472,0.0,9.013,9.5965,9.7042,9.788,9.9675,9.8867,9.8149,9.8149,9.8149,9.8867,10.0603,9.9705,9.9795,10.1471,10.2189,10.2488,10.2488,10.2488,10.2488,10.2488,10.2488,10.2488,10.2488,10.2488,10.2488,10.2488,10.177,10.186,10.2398,0.0,0.0,10.0393,9.9077,9.8538,9.8538,9.8538,9.8538,9.8448,9.785,9.7641,9.7461,0.0,0.0,0.0,0.0,0.0,0.0,0.0,0.0,0.0,0.0,0.0,0.0,0.0,0.0,0.0,0.0,0.0,0.0,0.0,0.0,0.0,0.0,0.0,0.0,0.0,0.0,0.0,0.0,0.0,0.0,0.0,0.0,0.0,0.0,0.0,0.0,0.0,0.0,0.0,0.0,0.0,0.0,0.0,0.0,0.0,0.0,0.0,0.0,0.0,0.0,6.3917,6.655,7.0979,7.424,7.7352,8.1991,8.4055,8.5581,8.9023,9.0668,9.1596,9.2254,9.1207,8.9082,8.5521,8.1332,0.0,0.0,0.0,6.5173,6.3977,0.0,0.0,7.8579,0.0,0.0,0.0,0.0,0.0,0.0,0.0,0.0,0.0,0.0,0.0,0.0,0.0,0.0,0.0,10.2398,10.2488,10.2488,10.2488,10.2488,10.2488,10.2488,10.2488,10.2488,10.2488,10.2488,10.2488,10.177,10.186,10.2398,0.0,0.0,10.0393,9.9077,9.8538,9.8538,9.8538,9.8538,9.8508,9.8389,9.8359,9.8239,0.0,0.0,0.0,0.0,0.0,0.0,0.0,0.0,0.0,0.0,0.0,0.0,0.0,0.0,0.0,0.0,0.0,0.0,0.0,0.0,0.0,0.0,0.0,0.0,0.0,0.0,0.0,0.0,0.0,0.0,0.0,0.0,0.0,0.0,0.0,0.0,0.0,0.0,0.0,0.0,0.0,0.0,0.0,0.0,0.0,0.0,0.0,0.0,0.0,0.0,6.4575,7.0081,7.6096,7.9806,8.2619,8.624,8.7766,8.8693,9.0608,9.1865,9.2643,9.2613,9.1117,8.8155,8.2439,0.0,0.0,0.0,0.0,6.2091,6.0745,0.0,0.0,0.0,0.0,0.0,0.0,0.0,0.0,0.0,0.0,0.0,0.0,0.0,0.0,0.0,0.0,0.0,0.0,10.2488,10.2488,10.2488,10.2488,10.2488,10.2488,10.2488,10.2488,10.2488,10.2488,10.2488,10.2488,10.2159,10.2189,10.2398,0.0,0.0,10.0902,9.9945,9.9346,9.9047,9.9047,9.8837,9.8538,9.8538,9.8538,9.8419,0.0,0.0,0.0,0.0,0.0,0.0,0.0,0.0,0.0,0.0,0.0,0.0,0.0,0.0,0.0,0.0,0.0,0.0,0.0,0.0,0.0,0.0,0.0,0.0,0.0,0.0,0.0,0.0,0.0,0.0,0.0,0.0,0.0,0.0,0.0,0.0,0.0,0.0,0.0,0.0,0.0,0.0,0.0,0.0,0.0,0.0,0.0,0.0,0.0,0.0,6.3737,7.044,7.7472,8.2529,8.627,8.8065,8.9681,9.0997,9.1656,9.2673,9.3451,9.2943,9.0908,8.7048,7.9537,7.4599,0.0,0.0,0.0,0.0,0.0,0.0,0.0,0.0,0.0,0.0,0.0,0.0,0.0,0.0,0.0,0.0,0.0,0.0,0.0,0.0,0.0,0.0,0.0,10.2488,10.2488,10.2488,10.2488,10.2488,10.2488,10.2488,10.2488,10.2488,10.2488,10.2488,10.2488,10.2368,10.2368,10.2488,0.0,0.0,0.0,10.0693,10.0004,9.9316,9.9615,9.9226,9.8538,9.8688,9.8658,9.8478,0.0,0.0,0.0,0.0,0.0,0.0,0.0,0.0,0.0,0.0,0.0,0.0,0.0,0.0,0.0,0.0,0.0,0.0,0.0,0.0,0.0,0.0,0.0,0.0,0.0,0.0,0.0,0.0,0.0,0.0,0.0,0.0,0.0,0.0,0.0,0.0,0.0,0.0,0.0,0.0,0.0,0.0,0.0,0.0,0.0,0.0,0.0,0.0,0.0,0.0,0.0,6.4844,7.0919,7.9178,8.6389,8.5432,0.0,0.0,9.2344,9.3032,9.3571,9.3511,9.019,8.5342,7.9208,0.0,0.0,0.0,0.0,0.0,0.0,0.0,0.0,0.0,0.0,0.0,0.0,0.0,0.0,0.0,0.0,0.0,0.0,0.0,0.0,0.0,0.0,0.0,0.0,10.2488,10.2488,10.2488,10.2488,10.2488,10.2488,10.2488,10.2488,10.2488,10.2488,10.2488,10.2488,10.186,10.189,10.2398,0.0,0.0,0.0,10.0483,9.9735,9.8718,9.9915,9.9615,9.8598,9.9197,9.9047,9.8598,0.0,0.0,0.0,0.0,0.0,0.0,0.0,0.0,0.0,0.0,0.0,0.0,0.0,0.0,0.0,0.0,0.0,0.0,0.0,0.0,0.0,0.0,0.0,0.0,0.0,0.0,0.0,0.0,0.0,0.0,0.0,0.0,0.0,0.0,0.0,0.0,0.0,0.0,0.0,0.0,0.0,0.0,0.0,0.0,0.0,0.0,0.0,0.0,0.0,0.0,0.0,0.0,6.2061,6.8974,0.0,0.0,8.5671,8.8723,9.1776,9.3391,9.402,9.3182,8.9501,8.4414,7.81,0.0,0.0,0.0,0.0,0.0,0.0,0.0,0.0,0.0,0.0,0.0,0.0,0.0,0.0,0.0,0.0,0.0,0.0,0.0,0.0,0.0,0.0,0.0,0.0,0.0,10.2488,10.2488,10.2488,10.2488,10.2488,10.2488,10.2488,10.2488,10.2488,10.2488,10.2488,10.2189,10.2219,10.2488,0.0,0.0,0.0,10.168,10.1171,10.0364,10.0872,10.0483,9.9735,10.0004,9.9915,9.9735,0.0,0.0,0.0,0.0,0.0,0.0,0.0,0.0,0.0,0.0,0.0,0.0,0.0,0.0,0.0,0.0,0.0,0.0,0.0,0.0,0.0,0.0,0.0,0.0,0.0,0.0,0.0,0.0,0.0,0.0,0.0,0.0,0.0,0.0,0.0,0.0,0.0,0.0,0.0,0.0,0.0,0.0,0.0,0.0,0.0,0.0,0.0,0.0,0.0,0.0,0.0,0.0,0.0,0.0,0.0,0.0,8.205,8.603,9.0279,9.2853,9.402,9.2883,8.8813,8.3487,0.0,0.0,0.0,0.0,0.0,0.0,5.8291,5.9338,0.0,0.0,0.0,6.7448,0.0,0.0,0.0,0.0,0.0,0.0,0.0,0.0,0.0,0.0,0.0,0.0,0.0,0.0,10.2488,10.2488,10.2698,10.2698,10.2488,10.2488,10.2488,10.2488,10.2488,10.2488,10.2488,10.2488,10.2488,0.0,0.0,0.0,0.0,10.2398,10.1979,10.1201,10.159,10.1261,10.0483,10.0693,10.0663,10.0483,0.0,0.0,0.0,0.0,0.0,0.0,0.0,0.0,0.0,0.0,0.0,0.0,0.0,0.0,0.0,0.0,0.0,0.0,0.0,0.0,0.0,0.0,0.0,0.0,0.0,0.0,0.0,0.0,0.0,0.0,0.0,0.0,0.0,0.0,0.0,0.0,0.0,0.0,0.0,0.0,0.0,0.0,0.0,0.0,0.0,0.0,0.0,0.0,0.0,0.0,0.0,0.0,0.0,0.0,0.0,0.0,7.7083,8.4474,8.7826,9.1117,9.3421,9.2763,8.8125,8.238,0.0,0.0,0.0,0.0,0.0,0.0,5.8979,5.9638,6.0535,6.1912,6.4844,6.9064,7.5078,0.0,0.0,0.0,0.0,0.0,0.0,0.0,0.0,0.0,0.0,0.0,0.0,0.0,10.2488,10.2488,10.3087,10.3117,10.2488,10.2488,10.2488,10.2488,10.2488,10.2488,10.2488,10.2488,0.0,0.0,0.0,0.0,0.0,10.2189,10.171,10.0603,10.1979,10.168,10.0573,10.1201,10.1052,10.0573,0.0,0.0,0.0,0.0,0.0,0.0,0.0,0.0,0.0,0.0,0.0,0.0,0.0,0.0,0.0,0.0,0.0,0.0,0.0,0.0,0.0,0.0,0.0,0.0,0.0,0.0,0.0,0.0,0.0,0.0,0.0,0.0,0.0,0.0,0.0,0.0,0.0,0.0,0.0,0.0,0.0,0.0,0.0,0.0,0.0,0.0,0.0,0.0,0.0,0.0,0.0,0.0,0.0,0.0,0.0,0.0,0.0,0.0,8.0105,8.3337,8.5132,8.3547,8.0405,7.6544,7.2176,0.0,0.0,0.0,0.0,0.0,0.0,5.9279,6.0446,6.3588,6.5353,6.7926,0.0,0.0,0.0,0.0,0.0,0.0,0.0,0.0,0.0,0.0,0.0,0.0,0.0,0.0,0.0,10.3117,10.2907,10.2698,10.2488,10.2488,10.2488,10.2488,10.2488,10.2488,10.2488,10.2488,0.0,0.0,0.0,0.0,0.0,10.2398,10.2219,10.189,10.2309,10.2219,10.189,10.2099,10.2009,10.189,0.0,0.0,0.0,0.0,0.0,0.0,0.0,0.0,0.0,0.0,0.0,0.0,0.0,0.0,0.0,0.0,0.0,0.0,0.0,0.0,0.0,0.0,0.0,0.0,0.0,0.0,0.0,0.0,0.0,0.0,0.0,0.0,0.0,0.0,0.0,0.0,0.0,0.0,0.0,0.0,0.0,0.0,0.0,0.0,0.0,0.0,0.0,0.0,0.0,0.0,0.0,0.0,0.0,0.0,0.0,0.0,0.0,0.0,0.0,7.7861,7.9986,7.8729,7.6275,0.0,0.0,0.0,0.0,0.0,0.0,0.0,0.0,5.9697,6.0745,6.3468,6.4874,6.7029,0.0,0.0,0.0,0.0,0.0,0.0,0.0,0.0,0.0,0.0,0.0,0.0,0.0,0.0,0.0,10.3805,10.3206,10.2698,10.2488,10.2488,10.2488,10.2488,10.2488,10.2488,10.2488,0.0,0.0,0.0,0.0,0.0,0.0,10.2488,10.2488,10.2488,10.2488,10.2488,10.2488,10.2488,10.2488,10.2488,0.0,0.0,0.0,0.0,0.0,0.0,0.0,0.0,0.0,0.0,0.0,0.0,0.0,0.0,0.0,0.0,0.0,0.0,0.0,0.0,0.0,0.0,0.0,0.0,0.0,0.0,0.0,0.0,4.2501,4.2706,4.2192,0.0,0.0,0.0,0.0,0.0,0.0,0.0,0.0,0.0,0.0,0.0,0.0,0.0,0.0,0.0,0.0,0.0,0.0,0.0,0.0,0.0,0.0,0.0,0.0,0.0,0.0,0.0,0.0,0.0,0.0,0.0,0.0,0.0,0.0,0.0,0.0,0.0,0.0,0.0,0.0,0.0,6.1343,6.2241,6.3977,6.658,0.0,0.0,0.0,0.0,0.0,0.0,0.0,0.0,0.0,0.0,0.0,0.0,0.0,0.0,0.0,0.0,10.3715,10.3087,10.2488,10.2488,10.2488,10.2488,10.2488,10.2488,10.2488,0.0,0.0,0.0,0.0,0.0,0.0,10.2398,10.2488,10.2488,10.2398,10.2488,10.2488,10.2398,10.2488,10.2488,0.0,0.0,0.0,0.0,0.0,0.0,0.0,0.0,0.0,0.0,0.0,0.0,0.0,0.0,0.0,0.0,0.0,0.0,0.0,0.0,0.0,0.0,0.0,0.0,0.0,0.0,0.0,4.0074,4.122,4.1701,4.1555,4.2688,0.0,0.0,0.0,0.0,0.0,0.0,0.0,0.0,0.0,0.0,0.0,0.0,0.0,0.0,0.0,0.0,0.0,0.0,0.0,0.0,0.0,0.0,0.0,0.0,5.6436,0.0,0.0,0.0,0.0,0.0,0.0,0.0,0.0,0.0,0.0,0.0,0.0,0.0,0.0,0.0,0.0,6.4575,6.6311,6.8315,0.0,0.0,0.0,0.0,0.0,0.0,0.0,0.0,0.0,0.0,0.0,0.0,0.0,0.0,0.0,0.0,10.3296,10.2608,10.2488,10.2488,10.2488,10.2488,10.2488,10.2488,10.2488,0.0,0.0,0.0,0.0,0.0,0.0,10.189,10.2009,10.2398,10.189,10.2009,10.2398,10.189,10.2069,10.2488,0.0,0.0,0.0,0.0,0.0,0.0,0.0,0.0,0.0,0.0,0.0,0.0,0.0,0.0,0.0,0.0,0.0,0.0,0.0,0.0,0.0,0.0,0.0,0.0,0.0,0.0,0.0,0.0,0.0,4.1982,0.0,0.0,0.0,0.0,0.0,0.0,0.0,0.0,0.0,0.0,0.0,0.0,0.0,0.0,0.0,0.0,5.1229,5.1229,0.0,5.2336,5.3084,5.3773,0.0,0.0,0.0,0.0,5.5688,0.0,0.0,0.0,0.0,0.0,0.0,0.0,0.0,0.0,0.0,0.0,0.0,0.0,0.0,0.0,0.0,0.0,6.667,0.0,0.0,0.0,0.0,0.0,0.0,0.0,0.0,0.0,0.0,0.0,0.0,0.0,0.0,0.0,0.0,0.0,0.0,10.2488,10.2488,10.2488,10.2488,10.2488,10.2488,10.2488,10.2488,0.0,0.0,0.0,0.0,0.0,10.2009,10.1979,10.1979,10.1979,10.159,10.168,10.1979,10.159,10.168,10.2069,0.0,0.0,0.0,0.0,0.0,0.0,0.0,0.0,0.0,0.0,0.0,0.0,0.0,0.0,0.0,0.0,0.0,0.0,0.0,0.0,0.0,0.0,0.0,0.0,0.0,0.0,0.0,0.0,0.0,0.0,0.0,0.0,0.0,0.0,0.0,0.0,0.0,0.0,0.0,0.0,0.0,0.0,0.0,0.0,0.0,0.0,0.0,0.0,0.0,5.2725,5.3563,5.4192,5.494,0.0,0.0,0.0,0.0,0.0,0.0,0.0,0.0,0.0,0.0,0.0,0.0,0.0,0.0,0.0,0.0,0.0,0.0,0.0,0.0,0.0,0.0,0.0,0.0,0.0,0.0,0.0,0.0,0.0,0.0,0.0,0.0,0.0,0.0,0.0,0.0,0.0,0.0,0.0,0.0,0.0,10.2488,10.2488,10.2488,10.2488,10.2488,10.2488,10.2488,10.2488,0.0,0.0,0.0,0.0,10.165,10.2009,10.1979,10.159,10.1381,10.1471,10.159,10.1471,10.1561,10.168,0.0,0.0,0.0,0.0,0.0,0.0,0.0,0.0,0.0,0.0,0.0,0.0,0.0,0.0,0.0,0.0,0.0,0.0,0.0,0.0,0.0,0.0,0.0,0.0,0.0,0.0,0.0,0.0,0.0,0.0,4.4568,4.738,4.7104,0.0,0.0,0.0,0.0,3.9979,4.0107,4.0389,0.0,0.0,0.0,0.0,0.0,0.0,0.0,0.0,0.0,5.2725,5.3264,5.3563,5.479,0.0,0.0,0.0,0.0,0.0,0.0,0.0,0.0,0.0,0.0,0.0,0.0,0.0,0.0,0.0,0.0,0.0,0.0,0.0,0.0,0.0,0.0,0.0,0.0,0.0,0.0,0.0,0.0,0.0,0.0,0.0,0.0,0.0,0.0,0.0,0.0,0.0,0.0,0.0,0.0,0.0,0.0,10.2488,10.2488,10.2488,10.2488,10.2488,10.2488,10.2488,10.2488,0.0,0.0,0.0,10.2279,10.1201,10.1381,10.2219,10.1082,10.1291,10.2279,10.168,10.186,10.2368,0.0,0.0,0.0,0.0,0.0,0.0,0.0,0.0,0.0,0.0,0.0,0.0,0.0,0.0,0.0,0.0,0.0,0.0,0.0,0.0,0.0,0.0,0.0,0.0,0.0,0.0,0.0,0.0,0.0,4.6965,4.6401,4.6753,4.5924,4.4091,0.0,0.0,3.9697,3.9697,3.9873,4.0304,0.0,0.0,0.0,0.0,0.0,0.0,0.0,0.0,0.0,0.0,5.3443,5.3892,5.488,0.0,0.0,0.0,0.0,0.0,5.6675,0.0,0.0,0.0,0.0,0.0,0.0,0.0,0.0,0.0,0.0,0.0,0.0,0.0,0.0,0.0,0.0,0.0,0.0,0.0,0.0,0.0,0.0,0.0,0.0,0.0,0.0,0.0,0.0,0.0,0.0,0.0,0.0,0.0,0.0,0.0,0.0,10.2488,10.2488,10.2488,10.2488,10.2488,10.2488,10.2099,10.2159,0.0,0.0,10.165,10.189,10.168,10.171,10.189,10.1261,10.1381,10.189,10.1561,10.189,10.2488,0.0,0.0,0.0,0.0,0.0,0.0,0.0,0.0,0.0,0.0,0.0,0.0,0.0,0.0,0.0,0.0,0.0,0.0,0.0,0.0,0.0,0.0,0.0,0.0,0.0,0.0,0.0,4.7405,4.8396,4.8953,4.9038,4.704,4.5588,0.0,0.0,0.0,4.0185,4.0185,4.0309,4.0551,0.0,0.0,0.0,0.0,0.0,0.0,0.0,0.0,0.0,0.0,0.0,0.0,0.0,0.0,0.0,0.0,5.5418,5.5568,5.6166,0.0,0.0,0.0,0.0,0.0,0.0,0.0,0.0,0.0,0.0,0.0,0.0,0.0,0.0,0.0,0.0,0.0,0.0,0.0,0.0,0.0,0.0,0.0,0.0,0.0,0.0,0.0,0.0,0.0,0.0,0.0,0.0,0.0,0.0,0.0,0.0,10.2309,10.2309,10.2488,10.2488,10.2398,10.2279,10.189,10.189,10.2219,10.186,10.159,10.1471,10.2069,10.186,10.1261,10.1261,10.1351,10.1471,10.165,10.2069,10.2488,0.0,0.0,0.0,0.0,0.0,0.0,0.0,0.0,0.0,0.0,0.0,0.0,0.0,0.0,0.0,0.0,0.0,0.0,0.0,0.0,0.0,0.0,0.0,0.0,0.0,4.6317,4.8489,4.9203,5.0575,5.164,5.2503,5.0945,4.9359,4.778,0.0,0.0,4.1518,4.1518,4.1079,4.0761,4.3782,0.0,0.0,0.0,0.0,0.0,0.0,0.0,0.0,0.0,0.0,0.0,0.0,0.0,0.0,0.0,5.6107,5.6645,5.9069,5.9368,0.0,0.0,0.0,0.0,0.0,0.0,0.0,0.0,0.0,0.0,0.0,0.0,0.0,0.0,0.0,0.0,0.0,0.0,0.0,0.0,0.0,0.0,0.0,0.0,0.0,0.0,0.0,0.0,0.0,0.0,0.0,0.0,0.0,0.0,0.0,10.186,10.186,10.2488,10.2488,10.2189,10.1561,10.2159,10.2099,10.1561,10.2189,10.2069,10.1471,10.1561,10.1171,10.0573,10.0573,10.0962,10.1561,10.2189,10.2488,10.2488,0.0,0.0,0.0,0.0,0.0,0.0,0.0,0.0,0.0,0.0,0.0,0.0,0.0,0.0,0.0,0.0,0.0,0.0,0.0,0.0,0.0,0.0,0.0,4.5125,4.5621,4.8229,4.9774,5.0274,5.2721,5.4533,5.5771,5.238,0.0,0.0,0.0,0.0,0.0,4.2245,4.2977,4.4238,4.5468,4.5247,0.0,0.0,0.0,0.0,0.0,0.0,0.0,0.0,0.0,0.0,0.0,0.0,0.0,0.0,5.6166,5.6376,5.7393,5.8082,0.0,0.0,0.0,0.0,0.0,0.0,0.0,0.0,0.0,0.0,0.0,0.0,0.0,0.0,0.0,0.0,0.0,0.0,0.0,0.0,0.0,0.0,0.0,0.0,0.0,0.0,0.0,0.0,0.0,0.0,0.0,0.0,0.0,0.0,0.0,10.1171,10.1171,10.186,10.186,10.168,10.1471,10.0902,10.0693,10.0872,10.1112,10.1082,10.0902,10.177,10.168,10.1171,10.159,10.189,10.2159,10.2398,10.2488,10.2488,0.0,0.0,0.0,0.0,0.0,0.0,0.0,0.0,0.0,0.0,0.0,0.0,0.0,0.0,0.0,0.0,0.0,0.0,0.0,0.0,0.0,0.0,0.0,4.6993,4.7837,5.0566,5.2208,5.2678,5.5632,5.6913,5.667,0.0,0.0,0.0,0.0,0.0,0.0,0.0,4.5139,4.6412,4.7208,4.7122,0.0,0.0,0.0,0.0,0.0,0.0,0.0,0.0,0.0,0.0,0.0,0.0,0.0,0.0,0.0,5.6406,5.6226,0.0,0.0,0.0,0.0,0.0,0.0,0.0,0.0,0.0,0.0,0.0,0.0,0.0,0.0,0.0,0.0,0.0,0.0,0.0,0.0,0.0,0.0,0.0,0.0,0.0,0.0,0.0,0.0,0.0,0.0,0.0,0.0,0.0,0.0,0.0,0.0,10.0483,10.0483,10.1171,10.0962,10.0872,10.0812,10.0094,9.9945,10.0184,10.0603,10.0693,10.0573,10.168,10.168,10.0902,10.159,10.189,10.189,10.2309,10.2488,10.2488,0.0,0.0,0.0,0.0,0.0,0.0,0.0,0.0,0.0,0.0,0.0,0.0,0.0,0.0,0.0,0.0,0.0,0.0,0.0,0.0,0.0,0.0,0.0,4.7759,4.8907,5.3668,5.6436,5.7124,5.9335,5.8604,5.5039,5.4771,0.0,0.0,0.0,0.0,0.0,0.0,4.7531,4.6612,4.9128,4.9001,4.7299,0.0,0.0,0.0,0.0,0.0,0.0,0.0,0.0,0.0,0.0,0.0,0.0,0.0,5.6615,5.6974,0.0,0.0,0.0,0.0,0.0,0.0,0.0,0.0,0.0,0.0,0.0,0.0,0.0,0.0,0.0,0.0,0.0,0.0,0.0,0.0,0.0,0.0,0.0,0.0,0.0,0.0,0.0,0.0,0.0,0.0,0.0,0.0,0.0,0.0,0.0,0.0,0.0,9.9795,9.9795,10.0483,9.9795,9.9496,9.9526,10.0184,10.0094,9.9556,10.0872,10.1082,10.0513,10.1171,10.0693,9.9586,10.0274,10.0483,10.0663,10.2009,10.2488,10.2488,0.0,0.0,0.0,0.0,0.0,0.0,0.0,0.0,0.0,0.0,0.0,0.0,0.0,0.0,0.0,0.0,0.0,0.0,0.0,0.0,0.0,0.0,0.0,0.0,0.0,0.0,5.482,5.9189,5.8227,5.6644,0.0,0.0,0.0,4.991,0.0,0.0,0.0,0.0,4.9291,4.9802,5.0619,5.0253,4.9326,0.0,0.0,0.0,0.0,0.0,0.0,0.0,0.0,0.0,0.0,0.0,0.0,5.6286,5.6944,5.7573,0.0,0.0,0.0,0.0,0.0,0.0,0.0,0.0,0.0,0.0,0.0,0.0,0.0,0.0,0.0,0.0,0.0,0.0,0.0,0.0,0.0,0.0,0.0,0.0,0.0,0.0,0.0,0.0,0.0,0.0,0.0,0.0,0.0,0.0,0.0,0.0,0.0,0.0,9.776,9.8389,9.773,9.8179,9.9496,9.9226,9.8987,9.8867,9.9705,9.9705,9.9197,10.0304,10.0782,10.0962,10.162,10.189,10.1979,10.2368,10.2189,10.186,0.0,0.0,0.0,0.0,0.0,0.0,0.0,0.0,0.0,0.0,0.0,0.0,0.0,0.0,0.0,0.0,0.0,0.0,0.0,0.0,0.0,0.0,0.0,0.0,0.0,5.093,5.3623,0.0,0.0,0.0,0.0,0.0,0.0,5.2674,0.0,5.4596,0.0,0.0,5.2191,5.2037,5.2306,5.2007,5.1439,0.0,0.0,0.0,0.0,0.0,0.0,0.0,0.0,0.0,0.0,0.0,0.0,5.5897,5.6526,5.7244,0.0,0.0,0.0,0.0,0.0,0.0,0.0,0.0,0.0,0.0,0.0,0.0,0.0,0.0,0.0,0.0,0.0,0.0,0.0,0.0,0.0,0.0,0.0,0.0,0.0,0.0,0.0,0.0,0.0,0.0,0.0,0.0,0.0,0.0,0.0,0.0,0.0,0.0,0.0,9.7132,9.6743,9.7311,9.8688,9.8299,9.8269,9.8568,9.9226,9.9286,9.8987,9.9765,10.0304,10.0693,10.1171,10.162,10.2069,10.18,10.159,10.1471,0.0,0.0,0.0,0.0,0.0,0.0,0.0,0.0,0.0,0.0,0.0,0.0,0.0,0.0,0.0,0.0,0.0,0.0,0.0,0.0,0.0,0.0,0.0,0.0,0.0,0.0,0.0,0.0,0.0,0.0,0.0,0.0,5.889,5.8949,0.0,6.0954,0.0,5.7004,5.5239,5.3054,5.3743,5.3623,5.3084,5.3773,0.0,0.0,0.0,0.0,0.0,0.0,0.0,0.0,0.0,0.0,0.0,5.5209,5.5748,0.0,0.0,0.0,0.0,0.0,0.0,0.0,0.0,0.0,0.0,0.0,0.0,0.0,0.0,0.0,0.0,0.0,0.0,0.0,0.0,0.0,0.0,0.0,0.0,0.0,0.0,0.0,0.0,0.0,0.0,0.0,0.0,0.0,0.0,0.0,0.0,0.0,0.0,0.0,0.0,0.0,9.6354,9.6713,9.7311,9.7431,9.785,9.8478,9.9047,9.9316,9.9316,9.9376,9.9436,9.9496,9.9556,10.0304,10.1291,10.0693,10.0812,10.1201,0.0,0.0,0.0,0.0,0.0,0.0,0.0,0.0,0.0,0.0,0.0,0.0,0.0,0.0,0.0,0.0,0.0,0.0,0.0,0.0,0.0,0.0,0.0,0.0,0.0,0.0,0.0,0.0,0.0,0.0,0.0,0.0,0.0,5.6915,0.0,5.889,5.5718,5.3982,5.2636,5.1708,5.2366,5.2247,5.1708,5.2366,5.2037,0.0,0.0,0.0,0.0,0.0,0.0,0.0,0.0,5.491,5.5867,5.5329,0.0,0.0,0.0,0.0,0.0,0.0,0.0,0.0,0.0,0.0,0.0,0.0,0.0,0.0,0.0,0.0,0.0,0.0,0.0,0.0,0.0,0.0,0.0,0.0,0.0,0.0,0.0,0.0,0.0,0.0,0.0,0.0,0.0,0.0,0.0,0.0,0.0,0.0,9.4229,9.4768,9.4768,0.0,9.4768,9.5366,9.6025,9.7042,9.7581,9.773,9.788,9.794,9.797,9.8508,9.9047,9.9556,10.0094,10.0483,10.0693,10.0573,10.0274,9.9975,0.0,0.0,0.0,0.0,0.0,0.0,0.0,0.0,0.0,0.0,0.0,0.0,0.0,0.0,0.0,0.0,0.0,0.0,0.0,0.0,0.0,0.0,0.0,0.0,0.0,0.0,0.0,0.0,0.0,0.0,0.0,0.0,0.0,5.8141,0.0,5.9668,5.6496,5.482,5.3533,5.2695,5.3354,5.3234,5.2725,5.3384,5.2636,5.1229,5.1229,0.0,0.0,0.0,0.0,0.0,0.0,0.0,5.5628,5.5299,0.0,0.0,0.0,0.0,0.0,0.0,0.0,0.0,0.0,0.0,0.0,0.0,0.0,0.0,0.0,0.0,0.0,0.0,0.0,0.0,0.0,0.0,0.0,0.0,0.0,0.0,0.0,0.0,0.0,0.0,0.0,0.0,0.0,0.0,0.0,0.0,0.0,0.0,9.3601,9.393,9.393,9.3601,9.4289,9.4947,9.5636,9.6593,9.7042,9.7042,9.7042,9.7222,9.7521,9.788,9.8628,9.9496,9.9526,9.9915,10.0393,9.9765,9.9526,9.9496,0.0,0.0,0.0,0.0,0.0,0.0,0.0,0.0,0.0,0.0,0.0,0.0,0.0,0.0,0.0,0.0,0.0,0.0,0.0,0.0,0.0,0.0,0.0,0.0,0.0,0.0,0.0,0.0,0.0,0.0,0.0,0.0,0.0,5.9997,0.0,0.0,5.7842,5.6047,5.47,5.3743,5.4401,5.4281,5.3773,5.4431,5.3234,5.1229,5.1229,5.1289,5.1498,5.2157,0.0,0.0,0.0,0.0,5.5179,0.0,0.0,0.0,0.0,0.0,0.0,0.0,0.0,0.0,0.0,0.0,0.0,0.0,0.0,0.0,0.0,0.0,0.0,0.0,0.0,0.0,0.0,0.0,0.0,0.0,0.0,0.0,0.0,0.0,0.0,0.0,0.0,0.0,0.0,0.0,0.0,0.0,0.0,9.405,9.3242,9.3361,9.3421,9.3421,9.4229,9.4888,9.5456,9.5995,9.6294,9.6414,9.6414,9.6683,9.7162,9.7281,9.8059,9.9107,9.8568,9.9017,9.9825,9.8748,9.8688,9.9107,0.0,0.0,0.0,0.0,0.0,0.0,0.0,0.0,0.0,0.0,0.0,0.0,0.0,0.0,0.0,0.0,0.0,0.0,0.0,0.0,0.0,0.0,0.0,0.0,0.0,0.0,0.0,0.0,0.0,0.0,0.0,0.0,0.0,0.0,0.0,0.0,0.0,5.3414,5.1768,5.1678,5.2336,5.2217,5.1678,5.2366,5.2037,5.1229,5.1229,5.1588,5.2187,5.2815,5.3503,0.0,0.0,0.0,0.0,0.0,0.0,0.0,0.0,0.0,0.0,0.0,0.0,0.0,0.0,0.0,0.0,0.0,0.0,0.0,0.0,0.0,0.0,0.0,0.0,0.0,0.0,0.0,0.0,0.0,0.0,0.0,0.0,0.0,0.0,0.0,0.0,0.0,0.0,0.0,9.4439,9.375,9.3721,0.0,9.1895,9.2434,9.2733,9.2733,9.402,9.4648,9.4738,9.4828,9.5187,9.5725,9.5725,9.5785,9.5905,9.6473,9.7102,9.776,9.767,9.773,9.788,9.77,9.77,9.785,0.0,0.0,0.0,0.0,0.0,0.0,0.0,0.0,0.0,0.0,0.0,0.0,0.0,0.0,0.0,0.0,0.0,0.0,0.0,0.0,0.0,0.0,0.0,0.0,0.0,0.0,0.0,0.0,0.0,0.0,0.0,5.4491,5.6915,0.0,0.0,0.0,0.0,0.0,0.0,5.1798,5.2097,5.2247,5.2306,5.2217,5.2007,5.1708,5.1349,5.1648,5.2306,5.2965,5.3653,5.4311,5.497,0.0,0.0,0.0,0.0,0.0,0.0,0.0,0.0,0.0,0.0,0.0,0.0,0.0,0.0,0.0,0.0,0.0,0.0,0.0,0.0,0.0,0.0,0.0,0.0,0.0,0.0,0.0,0.0,0.0,0.0,0.0,0.0,0.0,0.0,0.0,0.0,9.399,9.3721,9.3062,9.2673,0.0,9.1626,9.1895,9.2434,9.3152,9.3391,9.387,9.4588,9.4199,9.4409,9.5037,9.5037,9.5247,9.5606,9.5905,9.6593,9.7461,9.7102,9.7192,9.7461,9.7102,9.6982,9.7072,0.0,0.0,0.0,0.0,0.0,0.0,0.0,0.0,0.0,0.0,0.0,0.0,0.0,0.0,0.0,0.0,0.0,0.0,0.0,0.0,0.0,0.0,0.0,0.0,0.0,0.0,0.0,0.0,0.0,0.0,5.3952,5.482,5.7752,0.0,5.9039,0.0,0.0,0.0,0.0,0.0,0.0,5.2336,5.2905,5.2576,5.2456,5.2396,5.2097,5.2276,5.2785,5.3264,5.3892,5.4551,5.5029,5.5179,0.0,0.0,0.0,0.0,0.0,0.0,0.0,0.0,0.0,0.0,0.0,0.0,0.0,0.0,0.0,0.0,0.0,0.0,0.0,0.0,0.0,0.0,0.0,0.0,0.0,0.0,0.0,0.0,0.0,0.0,0.0,0.0,0.0,0.0,9.2673,9.3062,9.3032,9.2374,9.1865,9.1536,9.1386,9.1536,9.2105,9.3092,9.2763,9.3212,9.4319,9.3631,9.381,9.4618,9.4618,9.4888,9.5366,9.5516,9.6144,9.6952,9.6503,9.6593,9.6952,9.6503,9.6414,9.6653,0.0,0.0,0.0,0.0,0.0,0.0,0.0,0.0,0.0,0.0,0.0,0.0,0.0,0.0,0.0,0.0,0.0,0.0,0.0,0.0,0.0,0.0,0.0,0.0,0.0,0.0,0.0,0.0,0.0,0.0,5.6047,5.7334,6.0715,6.5562,6.1014,5.9009,5.877,0.0,0.0,0.0,0.0,0.0,0.0,0.0,0.0,0.0,0.0,0.0,0.0,5.4132,5.4581,5.5149,5.5179,5.5179,5.5179,0.0,0.0,0.0,0.0,0.0,0.0,0.0,0.0,0.0,0.0,0.0,0.0,0.0,0.0,0.0,0.0,0.0,0.0,0.0,0.0,0.0,0.0,0.0,0.0,0.0,0.0,0.0,0.0,0.0,0.0,0.0,0.0,0.0,9.2643,9.2643,9.2344,9.1686,9.1626,9.1327,9.0698,9.1297,9.1656,9.1716,9.2314,9.2972,9.3601,9.2943,9.3361,9.4618,9.4618,9.4618,9.4708,9.5336,9.5636,9.5695,9.5666,9.5666,9.5695,9.5666,9.6025,9.6653,0.0,0.0,0.0,0.0,0.0,0.0,0.0,0.0,0.0,0.0,0.0,0.0,0.0,0.0,0.0,0.0,0.0,0.0,0.0,0.0,0.0,0.0,0.0,0.0,0.0,0.0,0.0,0.0,0.0,4.9703,5.3653,5.5418,5.7932,6.0924,6.0565,6.0386,6.0116,5.5957,0.0,0.0,0.0,0.0,0.0,0.0,0.0,0.0,0.0,0.0,0.0,0.0,0.0,5.5748,5.5329,5.5179,5.5179,5.5179,5.5359,0.0,0.0,0.0,0.0,0.0,0.0,0.0,0.0,0.0,0.0,0.0,0.0,0.0,0.0,0.0,0.0,0.0,0.0,0.0,0.0,0.0,0.0,0.0,0.0,0.0,0.0,0.0,0.0,0.0,0.0,0.0,9.1386,9.1746,9.1656,9.0997,9.0997,9.0878,9.0638,9.0878,9.1207,9.1626,9.1446,9.1895,9.2943,9.2254,9.2703,9.396,9.396,9.4199,9.4618,9.4858,9.5217,9.5546,9.5127,9.5217,9.5546,9.5127,9.5366,9.6025,0.0,0.0,0.0,0.0,0.0,0.0,0.0,0.0,0.0,0.0,0.0,0.0,0.0,0.0,0.0,0.0,0.0,0.0,0.0,0.0,0.0,0.0,0.0,0.0,0.0,0.0,0.0,0.0,0.0,0.0,0.0,0.0,5.6585,5.9159,5.9578,0.0,0.0,0.0,0.0,5.6376,0.0,0.0,5.5837,0.0,0.0,0.0,0.0,0.0,0.0,0.0,0.0,0.0,5.5718,5.5359,5.5179,5.5179,5.5179,5.5658,0.0,0.0,0.0,0.0,0.0,0.0,0.0,0.0,0.0,0.0,0.0,0.0,0.0,0.0,0.0,0.0,0.0,0.0,0.0,0.0,0.0,0.0,0.0,0.0,0.0,0.0,0.0,0.0,0.0,0.0,9.0698,9.1057,9.1087,9.0638,9.0638,9.0638,9.0638,9.0638,9.0848,9.1297,9.0848,9.1207,9.2254,9.1596,9.2135,9.3571,9.3332,9.378,9.4618,9.4618,9.4858,9.5217,9.4768,9.4888,9.5247,9.5007,9.5366,9.6025,0.0,0.0,0.0,0.0,0.0,0.0,0.0,0.0,0.0,0.0,0.0,0.0,0.0,0.0,0.0,0.0,0.0,0.0,0.0,0.0,0.0,0.0,0.0,0.0,0.0,0.0,0.0,0.0,0.0,0.0,0.0,0.0,5.7154,0.0,5.8231,5.9249,6.278,0.0,0.0,6.0835,0.0,5.6615,5.7543,0.0,0.0,0.0,6.1433,6.0475,0.0,0.0,0.0,0.0,0.0,5.5777,5.5239,5.5239,5.5239,5.5508,0.0,0.0,0.0,0.0,0.0,0.0,0.0,0.0,0.0,0.0,0.0,0.0,0.0,0.0,0.0,0.0,0.0,0.0,0.0,0.0,0.0,0.0,0.0,0.0,0.0,0.0,0.0,0.0,0.0,9.1327,9.0668,9.0638,9.0638,9.0638,9.0638,9.0638,9.0638,9.0638,9.0638,9.0638,9.0638,9.0968,9.1566,9.0938,9.1716,9.3511,9.2883,9.3361,9.4618,9.4618,9.4618,9.4618,9.4618,9.4618,9.4678,9.5336,9.5995,9.6653,0.0,0.0,0.0,0.0,0.0,0.0,0.0,0.0,0.0,0.0,0.0,0.0,0.0,0.0,0.0,0.0,0.0,0.0,0.0,0.0,0.0,0.0,0.0,0.0,0.0,0.0,0.0,0.0,0.0,0.0,0.0,0.0,0.0,0.0,5.6376,5.7453,5.7992,5.6675,0.0,0.0,0.0,5.868,0.0,0.0,0.0,0.0,0.0,6.263,0.0,0.0,6.1463,6.0356,0.0,0.0,0.0,5.6555,0.0,0.0,5.7004,0.0,0.0,0.0,0.0,0.0,0.0,0.0,0.0,0.0,0.0,0.0,0.0,0.0,0.0,0.0,0.0,0.0,0.0,0.0,0.0,0.0,0.0,0.0,0.0,0.0,0.0,0.0,0.0,9.0848,9.0638,9.0638,9.0638,9.0638,9.0638,9.0638,9.0638,9.0638,9.0638,9.0638,9.0638,9.0728,9.0908,9.0728,9.1446,9.2853,9.2673,9.3361,9.4618,9.4618,9.4618,9.4618,9.4618,9.4618,9.4618,9.4828,9.5606,9.6593,0.0,0.0,0.0,0.0,0.0,0.0,0.0,0.0,0.0,0.0,0.0,0.0,0.0,0.0,0.0,0.0,0.0,0.0,0.0,0.0,0.0,0.0,0.0,0.0,0.0,0.0,0.0,0.0,0.0,0.0,0.0,0.0,0.0,0.0,0.0,0.0,0.0,0.0,0.0,0.0,5.9937,0.0,0.0,6.3887,6.4665,0.0,0.0,0.0,6.5622,6.5353,6.3857,0.0,0.0,0.0,0.0,0.0,0.0,0.0,0.0,0.0,0.0,0.0,0.0,0.0,0.0,0.0,0.0,0.0,0.0,0.0,0.0,0.0,0.0,0.0,0.0,0.0,0.0,0.0,0.0,0.0,0.0,0.0,0.0,0.0,0.0,0.0,9.0638,9.0638,9.0638,9.0638,9.0638,9.0638,9.0638,9.0638,9.0638,9.0638,9.0638,9.0638,9.0638,9.0788,9.1057,9.1057,9.1776,9.3002,9.2733,9.3361,9.4588,9.4289,9.4349,9.4618,9.4618,9.4618,9.4678,9.5217,9.5905,9.6653,0.0,0.0,0.0,0.0,0.0,0.0,0.0,0.0,0.0,0.0,0.0,0.0,0.0,0.0,0.0,0.0,0.0,0.0,0.0,0.0,0.0,0.0,0.0,0.0,0.0,0.0,0.0,0.0,0.0,0.0,0.0,0.0,0.0,0.0,0.0,0.0,0.0,0.0,0.0,5.8261,6.2211,6.4036,0.0,0.0,7.0111,0.0,7.059,6.9931,6.8405,6.7657,6.5293,0.0,0.0,0.0,0.0,0.0,5.7543,0.0,0.0,0.0,0.0,0.0,0.0,0.0,6.4455,6.4126,6.4366,0.0,0.0,0.0,0.0,0.0,0.0,0.0,0.0,0.0,0.0,0.0,0.0,0.0,0.0,0.0,0.0,0.0,0.0,9.0429,9.0489,9.0549,9.0638,9.0638,9.0638,9.0638,9.0638,9.0638,9.0638,9.0638,9.0638,9.0638,9.0638,9.0968,9.1626,9.1626,9.2344,9.3541,9.2883,9.3332,9.4439,9.384,9.399,9.4618,9.4618,9.4618,9.4738,9.5935,9.6444,9.6743,0.0,0.0,0.0,0.0,0.0,0.0,0.0,0.0,0.0,0.0,0.0,0.0,0.0,0.0,0.0,0.0,0.0,0.0,0.0,0.0,0.0,0.0,0.0,0.0,0.0,0.0,0.0,0.0,0.0,0.0,0.0,0.0,0.0,0.0,0.0,0.0,0.0,0.0,0.0,5.6885,6.0864,0.0,0.0,6.8824,7.0201,7.1368,7.1607,7.1816,7.1757,0.0,6.8315,6.5772,0.0,0.0,0.0,0.0,0.0,0.0,0.0,0.0,0.0,0.0,0.0,0.0,6.1403,6.1792,6.3019,0.0,0.0,0.0,0.0,0.0,0.0,0.0,0.0,0.0,0.0,0.0,0.0,0.0,0.0,0.0,0.0,0.0,8.9651,8.9112,8.9561,9.01,9.0608,9.0638,9.0638,9.0638,9.0638,9.0638,9.0638,9.0638,9.0638,9.0638,9.0638,9.0968,9.1626,9.1626,9.2344,9.3541,9.2883,9.3032,9.378,9.3631,9.399,9.4618,9.4618,9.4618,9.4648,9.4888,9.5666,9.6623,0.0,0.0,0.0,0.0,0.0,0.0,0.0,0.0,0.0,0.0,0.0,0.0,0.0,0.0,0.0,0.0,0.0,0.0,0.0,0.0,0.0,0.0,0.0,0.0,0.0,0.0,0.0,0.0,0.0,0.0,0.0,0.0,0.0,0.0,0.0,0.0,0.0,0.0,5.497,5.6675,6.2271,0.0,6.8315,7.1308,7.3043,7.3881,7.3881,7.4121,7.4001,7.1338,6.9782,0.0,0.0,6.4126,6.2989,0.0,6.2091,6.1523,0.0,0.0,0.0,6.1523,0.0,0.0,0.0,6.1104,6.1642,0.0,0.0,0.0,0.0,0.0,0.0,0.0,0.0,0.0,0.0,0.0,0.0,0.0,0.0,0.0,0.0,0.0,8.9052,8.8723,8.9292,8.9801,9.013,9.0459,9.0638,9.0638,9.0638,9.0638,9.0638,9.0638,9.0638,9.0638,9.0638,9.0968,9.1626,9.1626,9.2344,9.3541,9.2883,9.3182,9.408,9.3721,9.399,9.4618,9.4618,9.4618,9.4648,9.4977,9.5725,9.6563,0.0,0.0,0.0,0.0,0.0,0.0,0.0,0.0,0.0,0.0,0.0,0.0,0.0,0.0,0.0,0.0,0.0,0.0,0.0,0.0,0.0,0.0,0.0,4.7818,0.0,0.0,0.0,0.0,0.0,0.0,0.0,0.0,0.0,0.0,0.0,0.0,0.0,0.0,0.0,0.0,0.0,0.0,6.7597,7.2924,7.5018,7.5228,7.5856,7.6066,7.5557,7.2086,0.0,7.0679,6.7119,6.5413,0.0,0.0,0.0,0.0,0.0,0.0,0.0,0.0,0.0,6.2391,0.0,0.0,0.0,6.26,0.0,0.0,0.0,0.0,0.0,0.0,0.0,0.0,0.0,0.0,0.0,0.0,0.0,0.0,0.0,0.0,8.7826,8.8454,8.8634,8.8933,8.9441,9.01,9.0459,9.0459,9.0579,9.0638,9.0638,9.0638,9.0638,9.0638,9.0638,9.0968,9.1626,9.1626,9.2254,9.3361,9.2703,9.3032,9.399,9.3571,9.3721,9.4259,9.4499,9.4618,9.4678,9.5217,9.5815,9.6414,0.0,0.0,0.0,0.0,0.0,0.0,0.0,0.0,0.0,0.0,0.0,0.0,0.0,0.0,0.0,0.0,0.0,0.0,5.4341,0.0,0.0,0.0,0.0,0.0,4.9134,0.0,0.0,0.0,0.0,0.0,0.0,0.0,0.0,0.0,5.1798,0.0,0.0,0.0,5.6765,0.0,6.4366,6.5114,0.0,6.9482,7.1846,7.2714,7.5677,7.6724,7.6485,0.0,7.3582,7.2295,0.0,6.8555,0.0,0.0,0.0,0.0,0.0,0.0,0.0,0.0,6.5503,0.0,0.0,0.0,6.3288,6.2391,0.0,0.0,0.0,0.0,0.0,0.0,0.0,0.0,0.0,0.0,0.0,0.0,0.0,0.0,0.0,0.0,0.0,8.7586,8.624,8.6299,8.8663,8.9412,8.9771,8.9771,9.0339,9.0638,9.0638,9.0638,9.0638,9.0638,9.0638,9.0968,9.1626,9.1626,9.2015,9.2673,9.2015,9.1805,9.1985,9.2494,9.2763,9.2943,9.4139,9.4618,9.4618,9.4708,9.5127,9.5785,0.0,0.0,0.0,0.0,0.0,0.0,0.0,0.0,0.0,0.0,0.0,0.0,0.0,0.0,0.0,0.0,0.0,0.0,0.0,0.0,0.0,0.0,0.0,0.0,0.0,0.0,0.0,0.0,5.081,0.0,0.0,0.0,0.0,0.0,5.2067,0.0,5.494,0.0,0.0,0.0,0.0,0.0,0.0,7.0919,7.421,7.4988,7.6754,7.7382,7.7143,0.0,7.451,0.0,0.0,0.0,0.0,0.0,0.0,0.0,0.0,0.0,0.0,0.0,0.0,0.0,0.0,0.0,6.2839,0.0,0.0,0.0,0.0,0.0,0.0,0.0,0.0,0.0,0.0,0.0,0.0,0.0,0.0,0.0,0.0,0.0,0.0,0.0,0.0,8.4803,8.6299,8.7736,8.8693,8.9082,8.9741,9.007,9.007,9.0459,9.0638,9.0638,9.0638,9.0788,9.1057,9.1057,9.1416,9.2015,9.1746,9.1835,9.2194,9.2494,9.2823,9.3212,9.378,9.4259,9.4618,9.4618,9.5037,9.5576,0.0,0.0,0.0,0.0,0.0,0.0,0.0,0.0,0.0,0.0,0.0,0.0,6.3468,6.3152,0.0,0.0,0.0,5.9425,0.0,0.0,5.3623,0.0,0.0,0.0,0.0,0.0,0.0,0.0,0.0,0.0,0.0,0.0,0.0,0.0,0.0,5.4551,5.6765,0.0,0.0,6.0805,6.3767,6.5233,6.6281,7.2445,7.5527,7.6694,7.7502,7.7801,7.7562,7.5946,7.5407,0.0,7.3642,0.0,0.0,0.0,0.0,0.0,6.5951,0.0,0.0,0.0,0.0,0.0,0.0,0.0,0.0,0.0,0.0,0.0,0.0,0.0,0.0,0.0,0.0,0.0,0.0,0.0,0.0,0.0,0.0,0.0,0.0,0.0,0.0,0.0,8.0913,0.0,8.3816,8.5462,8.6898,8.8095,8.8963,8.9471,8.9681,9.013,9.0459,9.0638,9.0638,9.0638,9.0638,9.0638,9.0908,9.1357,9.1357,9.1626,9.2075,9.2254,9.2613,9.3092,9.3451,9.39,9.4349,9.4528,9.5037,9.5546,0.0,4.8984,0.0,0.0,0.0,0.0,0.0,0.0,0.0,0.0,0.0,0.0,0.0,0.0,0.0,0.0,0.0,6.4782,6.6059,0.0,5.5508,0.0,0.0,0.0,0.0,0.0,0.0,0.0,0.0,0.0,0.0,0.0,0.0,0.0,0.0,5.6795,5.8261,6.1493,0.0,6.6879,6.8944,7.1637,7.43,0.0,7.3642,7.6096,7.7352,0.0,0.0,7.6993,7.6754,0.0,0.0,0.0,0.0,0.0,0.0,0.0,0.0,0.0,0.0,0.0,0.0,0.0,0.0,0.0,6.649,0.0,0.0,0.0,0.0,0.0,0.0,0.0,0.0,0.0,0.0,0.0,0.0,0.0,0.0,0.0,0.0,0.0,0.0,0.0,7.6574,0.0,8.1631,8.2529,8.4085,8.6659,8.8035,8.9023,8.9651,8.9681,9.001,9.0638,9.0638,9.0638,9.0638,9.0638,9.0638,9.0668,9.0668,9.0668,9.0758,9.1386,9.1656,9.1805,9.3092,9.3601,9.3691,9.4349,9.5037,9.5666,0.0,0.0,0.0,0.0,0.0,0.0,0.0,5.4992,0.0,0.0,0.0,0.0,0.0,0.0,7.5713,0.0,0.0,7.2764,7.0914,6.686,0.0,0.0,0.0,5.8091,0.0,0.0,0.0,0.0,0.0,0.0,0.0,0.0,0.0,0.0,0.0,5.6974,0.0,0.0,0.0,0.0,0.0,7.2206,7.5437,0.0,0.0,7.6006,7.6844,7.7442,0.0,7.8041,7.7562,7.6724,7.6036,7.4629,7.3073,7.2176,7.1607,0.0,0.0,0.0,7.2026,6.8525,0.0,0.0,0.0,0.0,0.0,0.0,0.0,0.0,0.0,0.0,0.0,0.0,0.0,0.0,0.0,0.0,0.0,0.0,0.0,0.0,0.0,0.0,0.0,7.2984,7.2924,7.436,0.0,7.9746,8.202,8.4654,8.6449,8.7885,8.9023,8.9441,8.998,9.0638,9.0638,9.0638,9.0638,9.0638,9.0638,9.0638,9.0638,9.0638,9.0668,9.0878,9.1476,9.2314,9.2763,9.3481,9.4289,9.4528,9.4738,9.5097,5.0947,0.0,0.0,0.0,0.0,0.0,0.0,0.0,0.0,0.0,7.0914,0.0,7.9032,0.0,8.2,0.0,8.1284,7.9039,7.4789,7.2725,0.0,6.7834,6.5803,0.0,0.0,0.0,0.0,0.0,0.0,5.3773,0.0,0.0,0.0,0.0,0.0,0.0,0.0,0.0,6.5592,0.0,0.0,7.3223,0.0,0.0,7.5318,0.0,0.0,7.6784,7.7263,7.816,7.7891,7.7173,7.7173,7.6006,7.448,7.3552,7.2984,7.2565,7.2026,7.2864,0.0,0.0,7.035,0.0,6.652,0.0,0.0,0.0,0.0,0.0,0.0,0.0,0.0,0.0,0.0,0.0,0.0,0.0,0.0,0.0,0.0,0.0,0.0,0.0,6.9901,6.9303,6.9393,7.0799,0.0,0.0,7.9238,8.2589,8.4833,8.6748,8.8334,8.8993,8.9651,9.0279,9.0519,9.0638,9.0638,9.0638,9.0638,9.0638,9.0638,9.0638,9.0638,9.0638,9.1267,9.2284,9.2524,9.3272,9.4259,9.4528,9.4917,9.5456,0.0,0.0,0.0,0.0,5.3328,0.0,0.0,0.0,6.3802,0.0,7.3619,7.8508,8.0431,8.467,8.7262,8.7071,8.6541,0.0,7.8246,7.7767,0.0,0.0,7.0364,6.9717,6.6159,0.0,0.0,0.0,0.0,0.0,0.0,0.0,0.0,0.0,0.0,0.0,6.0526,6.5652,6.8734,7.035,7.3582,7.4899,7.4929,7.4899,0.0,7.5916,7.5916,7.5916,7.6096,7.7352,7.7771,7.7801,7.7771,7.7771,7.7322,7.4779,7.4958,7.5407,7.2864,7.3133,7.3821,7.2475,0.0,0.0,0.0,0.0,7.2684,0.0,0.0,0.0,0.0,0.0,0.0,0.0,0.0,0.0,0.0,0.0,0.0,0.0,0.0,0.0,0.0,6.7627,6.7178,6.7717,6.6041,6.667,0.0,0.0,0.0,8.0464,8.3217,8.5581,8.7646,8.8304,8.8993,8.9681,9.0279,9.0608,9.0638,9.0638,9.0638,9.0638,9.0638,9.0638,9.0638,9.0668,9.1087,9.1746,9.2404,9.3062,9.3721,9.4379,9.5456,9.6653,5.2334,5.3382,5.4431,0.0,0.0,5.4821,0.0,0.0,0.0,0.0,7.9797,8.5043,8.8781,9.175,9.3318,9.276,9.2438,0.0,0.0,0.0,0.0,8.123,7.902,7.6438,7.3566,7.0335,0.0,6.4154,0.0,0.0,5.9192,0.0,0.0,0.0,0.0,0.0,6.1676,6.5106,6.8405,7.1607,7.3941,7.5198,0.0,0.0,7.5318,7.5916,7.5916,7.5916,7.6036,7.6814,7.7412,7.7711,7.7233,7.7412,7.7592,7.6425,7.6335,7.6544,7.6335,7.6904,7.7203,7.5886,7.5198,7.436,0.0,0.0,0.0,0.0,0.0,0.0,0.0,0.0,0.0,0.0,0.0,0.0,0.0,0.0,0.0,0.0,0.0,0.0,6.4545,6.5622,6.5922,6.5084,6.4545,6.5353,0.0,0.0,0.0,7.7741,8.1362,8.4444,8.6928,8.7616,8.8514,8.9681,8.983,9.016,9.0638,9.0638,9.0638,9.0638,9.0638,9.0638,9.0668,9.1177,9.1746,9.2404,9.3062,9.375,9.4379,9.4558,9.5456,9.6593,5.2875,0.0,0.0,0.0,0.0,0.0,6.2651,0.0,0.0,7.598,8.2374,0.0,8.9748,9.3774,9.5973,9.5263,9.5195,0.0,0.0,0.0,0.0,8.6399,8.4573,8.2263,7.9418,7.5101,0.0,6.8405,0.0,0.0,6.1014,0.0,0.0,0.0,0.0,6.0515,0.0,6.5343,6.8974,7.2445,7.3881,0.0,0.0,7.5018,7.5108,7.5467,7.5467,7.5467,7.5557,7.6215,7.6844,7.7382,7.7293,7.7711,7.81,7.7442,7.7263,7.7352,7.7711,7.8071,7.831,7.816,7.7891,7.7173,7.5437,7.5916,7.6335,0.0,0.0,0.0,0.0,0.0,0.0,0.0,0.0,0.0,0.0,0.0,0.0,0.0,0.0,0.0,6.3079,6.3827,6.4096,6.3617,6.3318,6.3917,0.0,0.0,0.0,7.5437,7.9956,8.3307,8.5372,8.7227,8.8215,8.8364,8.9262,8.986,9.0219,9.0519,9.0638,9.0638,9.0638,9.0638,9.0698,9.1357,9.2015,9.2703,9.3661,9.4259,9.4618,9.4618,9.5456,9.6563,0.0,0.0,0.0,0.0,0.0,0.0,0.0,6.9654,0.0,7.7266,0.0,8.7955,8.8057,9.3436,9.6785,0.0,0.0,9.4654,9.1305,9.2827,9.2049,8.7955,8.8192,8.711,8.4268,7.9346,0.0,0.0,0.0,0.0,0.0,0.0,0.0,0.0,0.0,0.0,0.0,6.6356,7.0145,0.0,7.404,7.4691,7.5248,7.5489,7.5248,7.4869,7.5112,7.5142,7.4958,7.5557,7.6185,7.6814,7.7472,7.813,7.8579,7.8071,7.8011,7.8041,7.7951,7.8071,7.8489,7.9656,7.9956,7.9656,7.8579,7.834,7.813,7.7382,7.6305,0.0,0.0,0.0,0.0,0.0,0.0,0.0,0.0,0.0,0.0,0.0,0.0,0.0,0.0,6.257,6.245,6.3019,6.254,6.272,0.0,0.0,0.0,0.0,7.84,0.0,8.3726,0.0,8.7676,8.6958,8.8604,8.9501,8.9681,9.0339,9.0638,9.0638,9.0638,9.0638,9.0698,9.1446,9.2194,9.2972,9.4139,9.4618,9.4618,9.4618,9.5456,9.6563,0.0,0.0,0.0,0.0,0.0,0.0,0.0,7.7807,8.0141,8.2915,8.914,0.0,9.418,9.6379,9.7766,9.7631,9.7631,0.0,0.0,0.0,0.0,9.2489,9.1305,8.9918,8.8158,8.3616,7.9466,0.0,7.0623,6.6618,0.0,0.0,0.0,0.0,0.0,0.0,6.6075,6.8608,0.0,7.436,7.6161,7.6933,7.7061,7.8439,7.7222,7.5112,7.6467,7.5966,7.4899,7.5018,7.5497,7.6185,7.6814,7.7442,7.8071,7.8489,7.9028,7.9327,7.8789,7.9417,8.0345,8.0584,8.0614,8.0704,8.1033,8.1093,8.0734,7.9537,7.9118,7.816,7.5527,0.0,0.0,0.0,0.0,0.0,0.0,0.0,0.0,0.0,0.0,0.0,0.0,0.0,0.0,0.0,6.2959,0.0,0.0,0.0,0.0,0.0,0.0,0.0,0.0,0.0,0.0,8.8334,8.8155,8.8604,8.9681,9.0339,9.0638,9.0638,9.0638,9.0638,9.0728,9.1925,9.3152,9.4289,9.4528,9.4618,9.4618,9.4618,9.5456,9.6563,0.0,0.0,0.0,0.0,0.0,0.0,0.0,8.464,0.0,8.5926,8.9309,9.2083,9.2827,9.5939,9.8003,9.8003,9.8003,9.7867,9.7495,9.6785,9.5872,9.4789,9.33,0.0,8.9715,8.5655,8.1731,7.8044,7.2428,6.8335,0.0,0.0,0.0,0.0,0.0,6.5151,0.0,0.0,0.0,7.4601,7.671,7.7818,7.8154,7.9276,7.8816,7.7579,7.8313,7.8059,7.7191,7.5489,7.5942,7.7122,7.6884,7.7293,7.7951,7.8579,7.9028,7.9208,7.8878,7.9537,8.0375,8.0704,8.1063,8.1392,8.1721,8.1512,8.1003,8.0016,7.9537,7.828,7.4988,7.1158,0.0,0.0,0.0,0.0,0.0,0.0,0.0,0.0,0.0,0.0,0.0,0.0,0.0,0.0,0.0,0.0,0.0,0.0,0.0,0.0,0.0,0.0,0.0,0.0,0.0,8.6629,8.6988,8.7856,8.9172,8.983,9.0309,9.0638,9.0638,9.0638,9.0728,9.2075,9.3391,9.4618,9.4618,9.4618,9.4618,9.4618,9.5456,9.6563,0.0,6.6406,0.0,0.0,7.598,0.0,0.0,8.941,9.1744,8.914,8.9918,9.1034,9.1778,9.5533,9.8003,9.8003,9.8003,9.8003,9.8003,9.7292,9.6616,9.6041,9.462,9.2827,9.0729,8.7177,8.3219,0.0,7.351,0.0,0.0,0.0,0.0,0.0,0.0,0.0,0.0,0.0,7.2605,7.5279,7.7398,7.8526,7.9225,8.0194,8.0279,7.9803,8.0167,8.0288,7.9893,7.6962,7.6967,7.7856,7.6921,7.7083,7.7741,7.84,7.8878,7.9178,7.9058,7.9597,8.0345,8.0883,8.1392,8.1811,8.1961,8.1572,8.1033,8.0375,7.9686,7.822,7.4929,7.2206,0.0,0.0,0.0,0.0,0.0,0.0,0.0,0.0,0.0,0.0,0.0,0.0,0.0,0.0,0.0,6.3438,6.3767,6.4455,0.0,0.0,0.0,7.6155,7.9357,0.0,8.4175,0.0,8.603,8.7257,8.8693,8.9352,9.001,9.0638,9.0638,9.0788,9.1147,9.2165,9.3391,9.4618,9.4618,9.4618,9.4618,9.4618,9.5366,9.6384,0.0,0.0,0.0,0.0,0.0,0.0,0.0,9.056,9.3842,9.4823,9.5669,9.6447,9.7191,9.7732,9.8003,9.8003,9.8003,9.8003,9.8003,9.7292,9.6853,9.6785,9.5364,9.3842,9.2252,8.9241,8.4539,0.0,0.0,7.1007,0.0,0.0,0.0,0.0,0.0,0.0,0.0,7.2262,7.4888,7.7782,7.933,8.0375,8.0997,8.2603,8.1751,8.0046,8.1505,8.1968,8.1737,7.9925,7.8471,7.7277,7.6258,7.6425,7.7053,7.7711,7.9178,8.0494,7.9896,8.0644,8.1601,8.1661,8.1721,8.1931,8.2529,8.2619,8.238,8.1721,8.1063,7.9597,7.6335,7.5467,7.3881,0.0,0.0,0.0,0.0,0.0,0.0,0.0,0.0,0.0,0.0,0.0,0.0,0.0,0.0,6.3677,6.3199,6.3767,6.4784,6.634,0.0,7.2894,7.7951,7.9507,0.0,8.6479,8.6,8.6808,8.8693,8.9352,9.001,9.0638,9.0638,9.1327,9.2434,9.2554,9.3391,9.4618,9.4618,9.4618,9.4618,9.4618,9.5067,9.5755,0.0,0.0,0.0,0.0,0.0,0.0,0.0,9.2522,9.4789,9.6244,9.6717,9.7157,9.7935,9.8409,9.8645,9.8645,9.8645,9.8645,9.8645,9.7969,9.736,9.6886,9.6311,9.5093,9.3165,9.1068,8.711,0.0,0.0,0.0,0.0,0.0,0.0,0.0,0.0,6.9248,7.165,7.3883,7.6318,7.8822,8.075,8.196,8.2711,8.3751,8.3515,8.283,8.3421,8.3674,8.3421,8.1737,8.0766,8.0142,7.9129,7.8891,7.9296,8.0518,8.1423,8.1963,8.1507,8.2082,8.2619,8.196,8.208,8.2439,8.2709,8.2469,8.211,8.1841,8.1272,8.0285,7.8579,7.6963,7.5407,0.0,0.0,0.0,0.0,0.0,0.0,0.0,0.0,0.0,0.0,0.0,0.0,0.0,0.0,0.0,6.3617,6.3528,6.4246,6.5951,0.0,7.2295,7.6006,7.8938,8.1931,8.4923,8.5043,8.615,8.8125,8.8783,8.9651,9.0638,9.0638,9.1386,9.2613,9.2613,9.3391,9.4618,9.4618,9.4618,9.4618,9.4618,9.5037,9.5636,7.9837,0.0,8.0615,0.0,8.5858,8.7448,9.2353,9.418,9.5567,9.7022,9.7225,9.7495,9.824,9.8781,9.9187,9.939,9.9424,9.9424,9.9424,9.8747,9.8104,9.7563,9.7123,0.0,9.3943,9.2184,8.897,8.4167,7.9938,0.0,7.2529,0.0,0.0,0.0,6.9214,7.1109,7.3849,7.5845,7.7874,7.9904,8.1697,8.2847,8.3558,8.4099,8.4437,8.464,8.464,8.464,8.4392,8.331,8.2942,8.2671,8.0956,8.0512,8.0895,8.2203,8.2843,8.3099,8.34,8.4006,8.4171,8.3113,8.363,8.4112,8.3041,8.283,8.2766,8.22,8.1691,8.1183,8.0524,7.8579,7.7083,7.7113,0.0,0.0,0.0,0.0,0.0,0.0,6.6131,6.4395,6.3199,0.0,0.0,0.0,0.0,0.0,0.0,6.3707,0.0,0.0,0.0,0.0,0.0,7.8639,8.1601,8.3756,8.4384,8.5761,8.7736,8.8574,8.9591,9.0638,9.0638,9.1267,9.2314,9.2524,9.3272,9.4319,9.4528,9.4618,9.4618,9.4618,9.4917,9.5336,8.1934,8.3524,8.5486,8.8497,9.0222,9.1981,9.4315,9.5296,9.6311,9.78,9.8003,9.8273,9.9018,9.9085,9.939,10.0134,10.0202,10.0202,10.0202,9.9491,9.9085,0.0,0.0,9.621,9.4721,9.2455,8.9478,8.5757,0.0,7.8619,7.5574,0.0,7.165,7.236,7.3105,7.4695,7.6927,7.845,7.9904,8.1325,8.2103,8.2847,8.349,8.3524,8.3964,8.464,8.464,8.464,8.464,8.4606,8.4606,8.4035,8.0799,8.0251,8.0799,8.1659,8.2875,8.4122,8.5691,8.6454,8.6722,8.5712,8.6819,8.7233,8.358,8.4112,8.4926,8.3161,8.2739,8.2529,8.1871,8.0674,7.9327,7.8011,0.0,0.0,0.0,0.0,0.0,0.0,6.7358,6.5922,6.3318,0.0,0.0,0.0,0.0,0.0,0.0,0.0,0.0,6.5951,6.8585,0.0,7.4839,7.816,8.1153,8.3756,8.4384,8.5761,8.7766,8.9052,9.001,9.0638,9.0638,9.1027,9.1686,9.2344,9.3002,9.3661,9.4349,9.4618,9.4618,9.4618,9.4618,9.4708,8.5892,8.6602,8.755,8.9512,9.1068,9.2319,9.303,9.5093,9.6514,9.6514,9.7394,9.8476,9.9728,9.9863,9.9762,0.0,10.0405,10.0811,0.0,9.9525,9.9085,9.9085,9.7664,9.621,9.4755,9.2962,9.0493,8.7279,0.0,0.0,0.0,7.4999,7.4424,7.4661,7.4897,7.6284,7.8483,7.9431,8.0987,8.2813,8.305,8.3592,8.4268,8.4268,8.4403,8.464,8.464,8.464,8.464,8.464,8.464,8.4392,8.3421,8.3553,8.4318,8.505,8.5948,8.6744,8.7012,8.7554,8.7856,8.6722,8.6472,8.604,8.4957,8.4142,8.3461,8.289,8.2769,8.2709,8.2499,8.1751,8.0853,7.9986,7.8519,0.0,0.0,0.0,0.0,0.0,6.5533,6.3977,0.0,6.3887,0.0,0.0,0.0,0.0,0.0,0.0,0.0,0.0,6.9901,0.0,7.418,7.837,8.1362,8.3098,8.4175,8.6,8.8394,8.8813,8.9591,9.0638,9.0638,9.0997,9.1626,9.1835,9.2583,9.3601,9.381,9.4199,9.4618,9.4618,9.4618,9.4648,8.782,8.8226,8.8869,9.0357,9.1372,9.2286,9.3131,9.5093,9.6413,9.6244,9.7258,9.8375,9.9288,9.9627,0.0,10.0303,10.098,0.0,10.1115,10.01,9.9525,9.9525,9.7834,9.6311,9.5161,0.0,0.0,8.9241,8.5384,8.1934,7.8957,7.7604,7.7266,7.7807,7.7807,7.8889,8.0784,8.1257,8.2408,8.393,8.393,8.42,8.464,8.464,8.464,8.464,8.464,8.464,8.464,8.464,8.464,8.4674,8.4979,8.5587,8.6298,8.6771,8.7414,8.8071,8.8379,8.9041,8.9221,8.7434,8.7239,8.7127,8.5757,8.4142,8.2769,8.2769,8.2769,8.2769,8.2769,8.223,8.1572,8.0913,7.9327,7.7233,7.451,0.0,0.0,0.0,0.0,0.0,0.0,6.5233,0.0,0.0,0.0,0.0,0.0,0.0,0.0,6.7448,7.1248,0.0,7.5347,7.8968,8.1452,8.2769,8.4594,8.6599,8.8693,8.8693,8.9412,9.0638,9.0638,9.0878,9.1267,9.1506,9.2254,9.3242,9.3481,9.399,9.4618,9.4618,9.4618,9.4618,8.8125,8.87,0.0,0.0,9.1406,0.0,9.4383,9.5364,9.6108,9.6785,9.7529,9.8037,9.807,9.8645,9.9931,10.213,0.0,0.0,0.0,10.0912,10.0134,10.0032,9.7969,0.0,9.5567,9.3436,9.1913,9.1068,8.6196,8.3422,8.2611,8.0479,8.0175,8.1426,8.1393,8.2171,8.349,8.349,8.393,8.464,8.464,8.464,8.464,8.464,8.464,8.464,8.464,8.464,8.464,8.464,8.464,8.4776,8.5554,8.6298,8.6941,8.6974,8.7516,8.8361,8.9748,9.0696,9.0674,8.7923,8.909,8.9935,8.6431,8.4259,8.3041,8.3041,8.292,8.2769,8.2769,8.223,8.1572,8.0973,7.9597,7.7263,7.3462,0.0,0.0,0.0,0.0,0.0,0.0,6.6939,6.7777,0.0,0.0,0.0,0.0,0.0,6.7537,7.0021,7.2714,7.5318,7.7861,7.9836,8.1512,8.2918,8.5462,8.7377,8.8693,8.8693,8.9412,9.0638,9.0638,9.0638,9.0698,9.1297,9.1955,9.2613,9.3242,9.393,9.4558,9.4588,9.4618,9.4618,0.0,0.0,9.0391,9.188,9.2658,9.3436,9.4552,9.5804,9.6683,9.6853,9.7529,9.8206,9.8781,9.8476,9.895,10.0608,10.0608,10.0303,9.9931,9.9559,9.9119,9.8544,9.6954,9.5161,9.3267,9.2116,9.0662,8.8767,8.755,8.6264,8.4979,8.3828,8.3186,8.2949,8.2408,8.2644,8.349,8.349,8.393,8.464,8.464,8.464,8.464,8.464,8.464,8.464,8.464,8.464,8.464,8.464,8.464,8.4776,8.5554,8.6298,8.7008,8.7583,8.826,8.8903,8.9241,9.029,9.1074,9.0471,9.0592,9.0353,8.8052,8.615,8.4812,8.4812,8.3729,8.2769,8.2769,8.223,8.1721,8.1572,7.8759,7.5736,7.3253,7.0769,0.0,0.0,6.667,6.7268,6.7268,6.8166,6.8704,0.0,0.0,0.0,0.0,0.0,7.0769,7.1398,7.448,7.6904,7.8549,8.0045,8.1961,8.4265,8.591,8.7377,8.8693,8.8693,8.9412,9.0638,9.0638,9.0638,9.0638,9.0818,9.1267,9.1925,9.2583,9.3242,9.39,9.4409,9.4618,9.4618,8.9545,8.9985,9.056,9.1711,9.2556,9.33,9.4079,9.5432,9.6379,9.6379,9.7326,9.8172,9.8544,9.824,9.8341,9.9119,9.9525,9.966,9.9627,9.9288,9.8781,9.8037,9.6582,9.489,9.2996,9.188,9.0391,8.8497,8.782,8.7076,8.6264,8.5148,8.4403,8.3998,8.3592,8.3659,8.3998,8.3998,8.4234,8.464,8.464,8.464,8.464,8.464,8.464,8.464,8.464,8.464,8.464,8.464,8.4843,8.5283,8.6061,8.6805,8.755,8.8294,8.8767,8.9072,8.9072,8.9918,9.0703,9.0572,8.9899,8.8731,8.7307,8.6182,8.5215,8.4405,8.3431,8.2769,8.2769,8.223,8.1392,8.0165,7.7412,7.43,7.1098,6.9423,0.0,6.6221,6.7717,6.9123,6.9692,7.0649,7.0979,7.038,0.0,0.0,7.035,7.2744,7.3732,7.2834,7.6006,7.837,7.9686,8.1631,8.3457,8.5162,8.618,8.7377,8.8693,8.8693,8.9412,9.0638,9.0638,9.0638,9.0638,9.0638,9.1027,9.1656,9.2015,9.2733,9.3631,9.399,9.4349,9.4618,8.9241,8.985,9.0594,9.1338,9.2083,9.2861,9.3639,9.4823,9.5702,9.5939,9.7056,9.7867,9.8003,9.8003,9.8003,9.8003,9.8578,9.9187,9.9863,9.9187,9.8442,9.7698,9.6244,9.4755,9.3267,9.1744,9.0324,8.9072,8.7719,8.7008,8.6873,8.5452,8.4742,8.464,8.464,8.464,8.464,8.464,8.464,8.464,8.464,8.464,8.464,8.464,8.464,8.464,8.464,8.464,8.464,8.4776,8.5249,8.5926,8.6805,8.7516,8.8125,8.8869,8.9072,8.9106,8.9241,8.9884,9.0452,9.0217,8.8953,8.7657,8.6673,8.6275,8.5774,8.4375,8.358,8.3191,8.3191,8.235,8.0734,7.8489,7.5946,7.2864,6.8824,0.0,6.7717,6.661,6.8974,7.1188,7.2385,7.3432,7.3642,7.2714,7.3941,7.4121,0.0,7.5407,7.6245,7.4689,7.7442,7.9627,8.1093,8.3606,8.5132,8.5701,8.6359,8.7317,8.8544,8.8634,8.9352,9.0489,9.0608,9.0638,9.0638,9.0638,9.0968,9.1476,9.1566,9.2314,9.3302,9.3391,9.381,9.4319,8.9918,9.0628,9.1372,9.2116,9.2895,9.3673,9.4417,9.4721,9.533,9.6548,9.692,9.7292,9.7935,9.8003,9.8003,9.8003,9.8104,9.824,9.8341,9.7631,9.6886,9.6176,9.4721,9.3199,9.1677,9.0188,8.9309,8.9072,8.8226,8.7516,8.6907,8.6027,8.5249,8.464,8.464,8.464,8.464,8.464,8.464,8.464,8.464,8.464,8.464,8.464,8.464,8.464,8.464,8.464,8.4708,8.5384,8.5689,8.6027,8.738,8.7922,8.8125,8.8869,8.9072,8.9241,8.985,9.1034,9.2,9.1969,9.1766,9.1528,9.1355,9.0189,8.9152,8.9545,8.7233,8.5102,8.5102,8.2389,7.9986,7.9567,7.5018,7.1068,6.9812,0.0,6.8764,6.8555,7.1846,7.442,7.5198,7.4958,7.5078,7.6006,7.4809,7.4629,7.6006,7.7083,7.7771,7.8011,7.9088,8.0554,8.2439,8.4504,8.5611,8.5701,8.6359,8.7107,8.7885,8.8424,8.9112,8.986,9.0399,9.0638,9.0638,9.0638,9.0698,9.0848,9.1386,9.1746,9.1985,9.2554,9.2823,9.3002,8.9545,9.0188,9.0831,9.1169,9.2184,9.3064,9.3436,9.4518,9.5533,9.621,9.6988,9.7631,9.7969,9.8003,9.8003,9.8003,9.8003,9.8003,9.8003,9.7698,9.6988,9.5838,9.4755,9.3098,9.0763,8.9647,8.8903,8.8497,8.8158,8.7414,8.6298,8.596,8.5384,8.464,8.464,8.464,8.464,8.508,8.5012,8.4674,8.508,8.5012,8.464,8.464,8.464,8.464,8.464,8.4911,8.5317,8.5655,8.6332,8.7076,8.7786,8.826,8.8632,8.897,8.9072,8.9241,9.0019,9.0696,9.144,9.2218,9.2421,9.2255,9.1757,9.09,9.0182,8.961,8.8187,8.6957,8.6957,8.4914,8.2482,8.0462,7.5815,0.0,0.0,6.9393,6.9393,7.047,7.3462,7.5976,7.7322,7.6844,7.6844,7.7801,7.7053,7.6933,7.7831,7.8519,7.9357,8.0375,8.1392,8.2709,8.4325,8.5581,8.621,8.621,8.6539,8.7048,8.7736,8.8394,8.9052,8.9711,9.0369,9.0638,9.0638,9.0638,9.0638,9.0668,9.0968,9.1297,9.1656,9.1955,9.2284,9.2703,8.9072,8.9816,9.0459,9.0459,9.1711,9.2692,9.2692,9.4315,9.5601,9.577,9.692,9.78,9.8003,9.8003,9.8003,9.8003,9.8003,9.8003,9.8003,9.7834,9.7089,9.5601,9.4349,9.2489,9.0019,8.9376,8.8801,8.826,8.8091,8.7313,8.6027,8.5858,8.5384,8.464,8.464,8.464,8.4674,8.5249,8.5182,8.4674,8.5283,8.5148,8.464,8.464,8.464,8.464,8.4843,8.5283,8.5824,8.6196,8.7042,8.8023,8.8192,8.8632,8.9072,8.9072,8.9207,8.9512,9.0256,9.0594,9.0966,9.1913,9.2286,9.2171,9.1436,9.1289,9.0982,8.9968,8.9249,8.8855,8.8855,8.6907,8.4157,8.0937,0.0,0.0,0.0,7.0201,7.059,7.2415,7.4958,7.7233,7.8878,7.8699,7.8699,7.9208,7.9267,7.9327,7.9477,8.0135,8.1183,8.2649,8.3517,8.4504,8.5671,8.6329,8.6689,8.6689,8.6689,8.6958,8.7496,8.8304,8.8963,8.9471,9.0279,9.0638,9.0638,9.0638,9.0638,9.0638,9.0638,9.0938,9.1386,9.1386,9.1716,9.2254,8.9072,9.0222,9.1203,9.1203,9.2489,9.3503,9.3503,9.4214,9.5026,9.5702,9.648,9.7225,9.7935,9.8003,9.8003,9.8003,9.8003,9.8003,9.8003,9.736,9.6311,9.4857,9.2049,9.0121,8.9173,8.9106,8.9038,8.9004,8.8328,8.7583,8.6805,8.6095,8.5384,8.464,8.464,8.464,8.464,8.4674,8.4674,8.464,8.4674,8.4674,8.464,8.464,8.464,8.4708,8.5452,8.5723,8.5993,8.738,8.7922,8.8125,8.8801,8.9038,8.9072,8.9072,8.9579,9.029,9.1034,9.1711,9.2116,9.1508,9.1913,9.2421,9.2372,9.2255,9.266,9.3923,9.2301,9.0768,9.0768,8.6358,8.2274,8.0709,0.0,0.0,7.2684,7.2654,7.3133,7.448,7.6993,7.8878,7.9656,8.0255,8.0614,8.0644,8.0644,8.0913,8.1542,8.217,8.3427,8.5342,8.4923,8.4983,8.5671,8.6329,8.6689,8.6689,8.6689,8.6689,8.6808,8.8095,8.8723,8.8813,9.01,9.0638,9.0638,9.0638,9.0638,9.0638,9.0638,9.0668,9.0698,9.0698,9.0728,9.0968,8.9072,8.9545,9.0087,9.0527,9.1474,9.2319,9.2793,9.3909,9.4823,9.5093,9.577,9.648,9.7225,9.7326,9.7495,9.7969,9.8003,9.78,9.7326,9.621,9.4857,9.3368,9.1305,8.985,8.9106,8.9072,8.8869,8.8395,8.8125,8.738,8.6196,8.5926,8.5384,8.464,8.464,8.464,8.464,8.5148,8.508,8.4674,8.5148,8.5046,8.464,8.464,8.4911,8.5384,8.5689,8.6366,8.7245,8.782,8.8294,8.8734,8.9004,8.9072,8.9173,8.9647,8.9985,9.0357,9.1102,9.1846,9.2455,9.2658,9.2928,9.3131,9.3131,9.3131,9.33,9.3909,9.3231,9.2635,9.2635,8.9196,8.5889,8.4301,0.0,7.5764,7.5905,7.5258,7.5407,7.7113,7.8908,8.0285,8.0973,8.1272,8.1422,8.1422,8.1781,8.1961,8.1781,8.3158,8.4504,8.5671,8.5851,8.606,8.6299,8.6539,8.6689,8.6689,8.6689,8.6689,8.6718,8.8065,8.8693,8.8753,9.007,9.0638,9.0638,9.0638,9.0638,9.0638,9.0638,9.0638,9.0638,9.0638,9.0638,9.0758,8.9669,8.9746,8.9951,9.0459,9.1372,9.2184,9.2692,9.4079,9.4958,9.4755,9.577,9.6582,9.6853,9.7089,9.7428,9.7969,9.8003,9.7698,9.692,9.506,9.33,9.1812,9.0527,8.9613,8.9106,8.9072,8.8835,8.8328,8.8091,8.7347,8.6129,8.5892,8.5384,8.464,8.464,8.4776,8.5012,8.5554,8.5621,8.5384,8.5655,8.5452,8.4979,8.4979,8.5317,8.5858,8.6298,8.7144,8.8023,8.826,8.8666,8.9072,8.9072,8.9072,8.9241,8.9985,9.0357,9.0729,9.144,9.2218,9.2861,9.3131,9.3402,9.3639,9.3876,9.3774,9.3706,9.418,9.3909,9.3571,9.3571,9.0682,8.7626,8.5791,8.1377,7.8216,7.8093,7.7562,7.7711,7.9238,8.0434,8.1272,8.1751,8.1961,8.208,8.208,8.2499,8.2739,8.2709,8.4175,8.5312,8.597,8.6449,8.6689,8.6689,8.6689,8.6689,8.6689,8.6689,8.6778,8.7048,8.8155,8.8783,8.9052,9.016,9.0638,9.0638,9.0638,9.0638,9.0638,9.0638,9.0638,9.0638,9.0638,9.0638,9.0728,9.1022,9.1159,9.1271,9.1271,9.2556,9.3571,9.3571,9.4823,9.5533,9.4789,9.6616,9.7698,9.6954,9.7529,9.8003,9.8003,9.8003,9.7664,9.6886,9.4079,9.1744,9.0256,8.9478,8.9072,8.9072,8.9072,8.9072,8.9072,8.8361,8.7617,8.6907,8.6129,8.5384,8.464,8.464,8.5046,8.579,8.579,8.623,8.6839,8.6095,8.579,8.579,8.579,8.579,8.5993,8.7482,8.7989,8.8125,8.8835,8.9072,8.9072,8.9072,8.9072,8.9241,8.9985,9.0729,9.1474,9.2218,9.2996,9.3402,9.2624,9.2996,9.3774,9.4518,9.4112,9.4011,9.5466,9.462,9.3571,9.3571,9.0143,8.6559,8.4443,8.1725,7.9597,7.8908,7.9417,8.0075,8.0734,8.1392,8.1781,8.1781,8.238,8.2769,8.2769,8.2769,8.3337,8.4654,8.5342,8.6,8.6659,8.6689,8.6689,8.6689,8.6689,8.6689,8.6689,8.6689,8.7048,8.7736,8.8394,8.9052,8.9711,9.0369,9.0638,9.0638,9.0638,9.0638,9.0638,9.0638,9.0638,9.0638,9.0638,9.0638,9.0728,9.1022,9.0304,8.9918,9.0425,9.1338,9.215,9.2692,9.3605,9.418,9.3943,9.4958,9.5804,9.6074,9.6785,9.7428,9.7969,9.7529,9.6244,9.3909,9.2421,9.0966,8.9478,8.9207,8.9072,8.9072,8.9072,8.9072,8.9072,8.7854,8.738,8.7617,8.5824,8.5418,8.6196,8.5689,8.5587,8.579,8.579,8.5926,8.6095,8.5892,8.6095,8.6569,8.6569,8.6907,8.738,8.7854,8.8328,8.8801,8.9004,8.9072,8.9072,8.9072,8.9072,8.9241,8.9985,9.0729,9.1474,9.2218,9.2996,9.3537,9.33,9.3402,9.3639,9.3876,9.374,9.3706,9.4146,9.3909,9.3571,9.3571,9.108,8.8502,8.6562,8.41,8.2214,8.1749,8.1751,8.214,8.2769,8.3038,8.2978,8.2499,8.2649,8.2769,8.2769,8.2769,8.3337,8.4654,8.4893,8.5521,8.6629,8.6689,8.6689,8.6689,8.6689,8.6689,8.6689,8.6689,8.6778,8.7018,8.8155,8.8783,8.9052,9.016,9.0638,9.0638,9.0638,9.0638,9.0638,9.0638,9.0638,9.0638,9.0638,9.0638,9.0668,9.1766,9.0563,8.9681,9.0121,9.1068,9.1913,9.2353,9.3334,9.3909,9.3605,9.4485,9.5195,9.5364,9.6007,9.665,9.7089,9.6447,9.4992,9.259,9.1711,9.0763,8.9579,8.9241,8.9072,8.9072,8.9072,8.9072,8.9072,8.7922,8.755,8.7955,8.6298,8.6027,8.6907,8.6433,8.6399,8.6636,8.6366,8.6399,8.6636,8.6332,8.6501,8.6941,8.7245,8.7617,8.8023,8.8328,8.87,8.9072,8.9072,8.9072,8.9072,8.9072,8.9275,8.9681,9.0425,9.1169,9.1913,9.2692,9.3233,9.3571,9.3571,9.3808,9.4045,9.4045,9.4248,9.4383,9.4079,9.4045,9.3943,9.3639,9.1714,8.9853,8.8506,8.6062,8.4023,8.3508,8.3221,8.3187,8.3337,8.3816,8.3756,8.2858,8.3008,8.3038,8.2769,8.3008,8.3606,8.4654,8.4953,8.5581,8.6629,8.6689,8.6689,8.6689,8.6689,8.6689,8.6689,8.6689,8.6958,8.7496,8.8304,8.8963,8.9501,9.0309,9.0638,9.0638,9.0638,9.0638,9.0638,9.0638,9.0638,9.0638,9.0638,9.0638,9.0638,9.2978,9.1403,9.0121,9.02,9.1385,9.2218,9.2218,9.3537,9.4248,9.3571,9.4789,9.5466,9.4789,9.5432,9.5872,9.5804,9.5127,9.4079,9.2522,9.1711,9.0966,9.0256,8.9478,8.9072,8.9072,8.9072,8.9072,8.9072,8.8361,8.8023,8.8091,8.7279,8.6974,8.711,8.7042,8.738,8.7955,8.7211,8.7279,8.7854,8.7177,8.6941,8.7076,8.782,8.8091,8.8192,8.8835,8.9072,8.9072,8.9072,8.9072,8.9072,8.9072,8.9545,9.0256,9.1,9.1711,9.2489,9.3267,9.3537,9.3571,9.3571,9.4146,9.4687,9.462,9.5127,9.5398,9.4755,9.462,9.4417,9.3706,9.2237,9.0949,9.0097,8.7636,8.5428,8.4727,8.412,8.3576,8.2918,8.3995,8.4265,8.2888,8.3307,8.3457,8.2978,8.3427,8.4055,8.4773,8.5372,8.6,8.6659,8.6689,8.6689,8.6689,8.6689,8.6689,8.6689,8.6689,8.7347,8.8604,8.8663,8.9382,9.0549,9.0608,9.0638,9.0638,9.0638,9.0638,9.0638,9.0638,9.0638,9.0638,9.0638,9.0638,9.0638,9.3227,9.1185,8.961,9.067,9.0768,9.0696,9.0696,9.1947,9.2861,9.2692,9.4011,9.489,9.4721,9.5872,9.6413,9.5838,9.5127,9.4079,9.2522,9.1711,9.0966,9.0256,8.9478,8.9072,8.9072,8.9072,8.9072,8.9072,8.8361,8.8294,8.8801,8.7516,8.7516,8.8598,8.8023,8.7854,8.7955,8.7211,8.7008,8.7144,8.6974,8.7245,8.7854,8.8564,8.8835,8.8869,8.9038,8.9072,8.9072,8.9072,8.9072,8.9072,8.9072,8.9207,8.9478,9.0222,9.0966,9.1711,9.2489,9.3131,9.3571,9.3571,9.4146,9.4552,9.3977,9.3943,9.4011,9.3842,9.3842,9.3774,9.3605,9.3301,9.2447,9.0949,8.889,8.7222,8.6111,8.5091,8.4265,8.3606,8.4684,8.4773,8.2948,8.2888,8.3337,8.4235,8.3936,8.4235,8.5432,8.5611,8.6,8.6659,8.6689,8.6689,8.6689,8.6689,8.6689,8.6689,8.6689,8.7107,8.7945,8.8454,8.9112,8.989,9.0399,9.0638,9.0638,9.0638,9.0638,9.0638,9.0638,9.0638,9.0638,9.0638,9.0638,9.0728,9.3517,9.1697,9.025,9.0919,9.0577,9.0324,9.0662,9.1677,9.2556,9.2928,9.3673,9.418,9.418,9.4857,9.4992,9.4248,9.3842,9.3267,9.2489,9.1406,9.0763,9.0729,8.9681,8.9072,8.9072,8.9072,8.9072,8.9072,8.87,8.87,8.9072,8.8294,8.8361,8.9072,8.87,8.8497,8.8463,8.7753,8.7414,8.7414,8.7414,8.7651,8.8091,8.8801,8.9072,8.9072,8.9072,8.9072,8.9072,8.9072,8.9072,8.9072,8.9072,8.9342,8.9782,9.0527,9.1237,9.2015,9.2759,9.3267,9.3571,9.3571,9.3876,9.4079,9.3673,9.4112,9.4451,9.374,9.3876,9.4011,9.3639,9.3571,9.3301,9.2359,9.0609,8.9249,8.8667,8.6845,8.5241,8.4572,8.527,8.5282,8.4265,8.3876,8.3965,8.4654,8.4684,8.4983,8.5671,8.6,8.6329,8.6659,8.6689,8.6689,8.6689,8.6689,8.6689,8.6689,8.7018,8.7676,8.8663,8.8993,8.9501,9.016,9.0489,9.0638,9.0638,9.0638,9.0638,9.0638,9.0638,9.0638,9.0638,9.0638,9.0638,9.0698,9.383,9.2481,9.1296,9.1296,9.0765,9.0527,9.0831,9.1677,9.2455,9.3098,9.3436,9.3571,9.3571,9.3571,9.3368,9.2861,9.2692,9.2556,9.2421,9.1169,9.0594,9.1102,8.9918,8.9207,8.9072,8.9207,8.9207,8.9072,8.9072,8.9072,8.9072,8.9072,8.9072,8.9072,8.9072,8.9072,8.9038,8.8294,8.7989,8.7989,8.7989,8.7989,8.8091,8.8801,8.9072,8.9072,8.9072,8.9072,8.9072,8.9072,8.9072,8.9072,8.9072,8.9512,9.0188,9.1034,9.1744,9.2421,9.3334,9.3571,9.3571,9.3571,9.3571,9.3571,9.3571,9.4552,9.506,9.3842,9.4079,9.4315,9.3706,9.3571,9.3571,9.3571,9.2081,9.0895,9.0895,8.8354,8.6215,8.5564,8.5425,8.5492,8.5821,8.5162,8.4773,8.4863,8.5282,8.5581,8.5701,8.621,8.6569,8.6689,8.6689,8.6689,8.6689,8.6689,8.6748,8.6868,8.7556,8.8454,8.9501,8.9501,8.992,9.0638,9.0638,9.0638,9.0638,9.0638,9.0638,9.0638,9.0638,9.0638,9.0638,9.0638,9.0638,9.0638,9.3993,9.3417,9.2611,9.2611,9.167,9.0529,8.9567,9.056,9.1474,9.1609,9.2759,9.3571,9.3571,9.3571,9.3808,9.4349,9.3808,9.3131,9.2455,9.1609,9.0899,9.0391,9.0154,8.9748,8.9106,8.9715,8.9748,8.9072,8.9072,8.9072,8.9072,8.9072,8.9072,8.9072,8.9072,8.9072,8.9038,8.8294,8.7989,8.7989,8.7989,8.7989,8.8091,8.8801,8.9072,8.9072,8.9072,8.9072,8.9072,8.9072,8.9072,8.9072,8.9072,8.914,8.9512,9.0899,9.1372,9.1744,9.3199,9.3571,9.3571,9.3571,9.3571,9.3571,9.3571,9.374,9.3808,9.3605,9.3673,9.3706,9.3605,9.3571,9.3571,9.3571,9.2081,9.0895,9.0895,8.8354,8.6215,8.5564,8.4605,8.4654,8.6389,8.5432,8.4953,8.5521,8.5103,8.5103,8.5671,8.5791,8.609,8.6659,8.6689,8.6689,8.6689,8.6689,8.6988,8.7556,8.8245,8.8634,8.8813,8.8813,8.9471,9.0638,9.0638,9.0638,9.0638,9.0638,9.0638,9.0638,9.0638,9.0638,9.0638,9.0638,9.0638,9.0638,9.4188,9.3732,9.3229,9.292,9.1865,9.0672,8.9838,9.0256,9.0831,9.1237,9.188,9.2319,9.2319,9.2692,9.3233,9.4011,9.3368,9.2962,9.3064,9.1947,9.1338,9.144,9.1034,9.0662,9.0324,9.0662,9.0459,8.9715,8.9275,8.9072,8.9072,8.9072,8.9072,8.9072,8.9072,8.9072,8.9072,8.8734,8.8598,8.8598,8.8598,8.8598,8.8632,8.897,8.9072,8.9072,8.9072,8.9072,8.9072,8.9072,8.9072,8.9072,8.9072,8.9072,8.9376,9.0865,9.1305,9.1643,9.3165,9.3571,9.3571,9.3571,9.3571,9.3571,9.3571,9.3571,9.3571,9.3571,9.3571,9.3571,9.3571,9.3571,9.3571,9.3571,9.2909,9.2359,9.2359,8.951,8.6619,8.466,8.3973,8.4354,8.597,8.5282,8.4983,8.5641,8.5073,8.4983,8.5671,8.5701,8.6,8.6659,8.6689,8.6689,8.6689,8.6689,8.6838,8.7137,8.7826,8.8514,8.9232,8.9621,9.01,9.0638,9.0638,9.0638,9.0638,9.0638,9.0638,9.0638,9.0638,9.0638,9.0638,9.0638,9.0638,9.0638]},{"header":{"parameterUnit":"m.s-1","parameterCategory":1,"la1":30.6,"la2":28.766,"lo1":-90.7593,"lo2":-88.6598,"dx":0.0162,"dy":0.0183,"nx":116,"ny":114,"refTime":"2023-02-10T06:00:00:Z","depth":0,"parameterNumber":3,"parameterNumberName":"V-component_of_WINDS"},"data":[0.0,0.0,0.0,0.0,0.0,0.0,0.0,0.0,0.0,0.0,0.0,0.0,0.0,0.0,0.0,0.0,0.0,0.0,0.0,0.0,0.0,0.0,0.0,0.0,0.0,0.0,0.0,0.0,0.0,0.0,0.0,0.0,0.0,0.0,0.0,0.0,0.0,0.0,0.0,0.0,0.0,0.0,0.0,0.0,0.0,0.0,0.0,0.0,0.0,0.0,0.0,0.0,0.0,0.0,0.0,0.0,0.0,0.0,0.0,0.0,0.0,0.0,0.0,0.0,0.0,0.0,0.0,0.0,0.0,0.0,0.0,0.0,0.0,0.0,0.0,0.0,0.0,0.0,0.0,0.0,0.0,0.0,0.0,0.0,0.0,0.0,0.0,0.0,0.0,0.0,0.0,0.0,0.0,0.0,0.0,0.0,0.0,0.0,0.0,0.0,0.0,0.0,0.0,0.0,0.0,0.0,0.0,0.0,0.0,0.0,0.0,0.0,0.0,0.0,0.0,0.0,0.0,0.0,0.0,0.0,0.0,0.0,0.0,0.0,0.0,0.0,0.0,0.0,0.0,0.0,0.0,0.0,0.0,0.0,0.0,0.0,0.0,0.0,0.0,0.0,0.0,0.0,0.0,0.0,0.0,0.0,0.0,0.0,0.0,0.0,0.0,0.0,0.0,0.0,0.0,0.0,0.0,0.0,0.0,0.0,0.0,0.0,0.0,0.0,0.0,0.0,0.0,0.0,0.0,0.0,0.0,0.0,0.0,0.0,0.0,0.0,0.0,0.0,0.0,0.0,0.0,0.0,0.0,0.0,0.0,0.0,0.0,0.0,0.0,0.0,0.0,0.0,0.0,0.0,0.0,0.0,0.0,0.0,0.0,0.0,0.0,0.0,0.0,0.0,0.0,0.0,0.0,0.0,0.0,0.0,0.0,0.0,0.0,0.0,0.0,0.0,0.0,0.0,0.0,0.0,0.0,0.0,0.0,0.0,0.0,0.0,0.0,0.0,0.0,0.0,0.0,0.0,0.0,0.0,0.0,0.0,0.0,0.0,0.0,0.0,0.0,0.0,0.0,0.0,0.0,0.0,0.0,0.0,0.0,0.0,0.0,0.0,0.0,0.0,0.0,0.0,0.0,0.0,0.0,0.0,0.0,0.0,0.0,0.0,0.0,0.0,0.0,0.0,0.0,0.0,0.0,0.0,0.0,0.0,0.0,0.0,0.0,0.0,0.0,0.0,0.0,0.0,0.0,0.0,0.0,0.0,0.0,0.0,0.0,0.0,0.0,0.0,0.0,0.0,0.0,0.0,0.0,0.0,0.0,0.0,0.0,0.0,0.0,0.0,0.0,0.0,0.0,0.0,0.0,0.0,0.0,0.0,0.0,0.0,0.0,0.0,0.0,0.0,0.0,0.0,0.0,0.0,0.0,0.0,0.0,0.0,0.0,0.0,0.0,0.0,0.0,0.0,0.0,0.0,0.0,0.0,0.0,0.0,0.0,0.0,0.0,0.0,0.0,0.0,0.0,0.0,0.0,0.0,0.0,0.0,0.0,0.0,0.0,0.0,0.0,0.0,0.0,0.0,0.0,0.0,0.0,0.0,0.0,0.0,0.0,0.0,0.0,0.0,0.0,0.0,0.0,0.0,0.0,0.0,0.0,0.0,0.0,0.0,0.0,0.0,0.0,0.0,0.0,0.0,0.0,0.0,0.0,0.0,0.0,0.0,0.0,0.0,0.0,0.0,0.0,0.0,0.0,0.0,0.0,0.0,0.0,0.0,0.0,0.0,0.0,0.0,0.0,0.0,0.0,0.0,0.0,0.0,0.0,0.0,0.0,0.0,0.0,0.0,0.0,0.0,0.0,0.0,0.0,0.0,0.0,0.0,0.0,0.0,0.0,0.0,0.0,0.0,0.0,0.0,0.0,0.0,0.0,0.0,0.0,0.0,0.0,0.0,0.0,0.0,0.0,0.0,0.0,0.0,0.0,0.0,0.0,0.0,0.0,0.0,0.0,0.0,0.0,0.0,0.0,0.0,0.0,0.0,0.0,0.0,0.0,0.0,0.0,0.0,0.0,0.0,0.0,0.0,0.0,0.0,0.0,0.0,0.0,0.0,0.0,0.0,0.0,0.0,0.0,0.0,0.0,0.0,0.0,0.0,0.0,0.0,0.0,0.0,0.0,0.0,0.0,0.0,0.0,0.0,0.0,0.0,0.0,0.0,0.0,0.0,0.0,0.0,0.0,0.0,0.0,0.0,0.0,0.0,0.0,0.0,0.0,0.0,0.0,0.0,0.0,0.0,0.0,0.0,0.0,0.0,0.0,0.0,0.0,0.0,0.0,0.0,0.0,0.0,0.0,0.0,0.0,0.0,0.0,0.0,0.0,0.0,0.0,0.0,0.0,0.0,0.0,0.0,0.0,0.0,0.0,0.0,0.0,0.0,0.0,0.0,0.0,0.0,0.0,0.0,0.0,0.0,0.0,0.0,0.0,0.0,0.0,0.0,0.0,0.0,0.0,0.0,0.0,0.0,0.0,0.0,0.0,0.0,0.0,0.0,0.0,0.0,0.0,0.0,0.0,0.0,0.0,0.0,0.0,0.0,0.0,0.0,0.0,0.0,0.0,0.0,0.0,0.0,0.0,0.0,0.0,0.0,0.0,0.0,0.0,0.0,0.0,0.0,0.0,0.0,0.0,0.0,0.0,0.0,0.0,0.0,0.0,0.0,0.0,0.0,0.0,0.0,0.0,0.0,0.0,0.0,0.0,0.0,0.0,0.0,0.0,0.0,0.0,0.0,0.0,0.0,0.0,0.0,0.0,0.0,0.0,0.0,0.0,0.0,0.0,0.0,0.0,0.0,0.0,0.0,0.0,0.0,0.0,0.0,0.0,0.0,0.0,0.0,0.0,0.0,0.0,0.0,0.0,0.0,0.0,0.0,0.0,0.0,0.0,0.0,0.0,0.0,0.0,0.0,0.0,0.0,0.0,0.0,0.0,0.0,0.0,0.0,0.0,0.0,0.0,0.0,0.0,0.0,0.0,0.0,0.0,0.0,0.0,0.0,0.0,0.0,0.0,0.0,0.0,0.0,0.0,0.0,0.0,0.0,0.0,0.0,0.0,0.0,0.0,0.0,0.0,0.0,0.0,0.0,0.0,0.0,0.0,0.0,0.0,0.0,0.0,0.0,0.0,0.0,0.0,0.0,0.0,0.0,0.0,0.0,0.0,0.0,0.0,0.0,0.0,0.0,0.0,0.0,0.0,0.0,0.0,0.0,0.0,0.0,0.0,0.0,0.0,0.0,0.0,0.0,0.0,0.0,0.0,0.0,0.0,0.0,0.0,0.0,0.0,0.0,0.0,0.0,0.0,0.0,0.0,0.0,0.0,0.0,0.0,0.0,0.0,0.0,0.0,0.0,0.0,0.0,0.0,0.0,0.0,0.0,0.0,0.0,0.0,0.0,0.0,0.0,0.0,0.0,0.0,0.0,0.0,0.0,0.0,0.0,0.0,0.0,0.0,0.0,0.0,0.0,0.0,0.0,0.0,0.0,0.0,0.0,0.0,0.0,0.0,0.0,0.0,0.0,0.0,0.0,0.0,0.0,0.0,0.0,0.0,0.0,0.0,0.0,0.0,0.0,0.0,0.0,0.0,0.0,0.0,0.0,0.0,0.0,0.0,0.0,0.0,0.0,0.0,0.0,0.0,0.0,0.0,0.0,0.0,0.0,0.0,0.0,0.0,0.0,0.0,0.0,0.0,0.0,0.0,0.0,0.0,0.0,0.0,0.0,0.0,0.0,0.0,0.0,0.0,0.0,0.0,0.0,0.0,0.0,0.0,0.0,0.0,0.0,0.0,0.0,0.0,0.0,0.0,0.0,0.0,0.0,0.0,0.0,0.0,0.0,0.0,0.0,0.0,0.0,0.0,0.0,0.0,0.0,0.0,0.0,0.0,0.0,0.0,0.0,0.0,0.0,0.0,0.0,0.0,0.0,0.0,0.0,0.0,0.0,0.0,0.0,0.0,0.0,0.0,0.0,0.0,0.0,0.0,0.0,0.0,0.0,0.0,0.0,0.0,0.0,0.0,0.0,0.0,0.0,0.0,0.0,0.0,0.0,0.0,0.0,0.0,0.0,0.0,0.0,0.0,0.0,0.0,0.0,0.0,0.0,0.0,0.0,0.0,0.0,0.0,0.0,0.0,0.0,0.0,0.0,0.0,0.0,0.0,0.0,0.0,0.0,0.0,0.0,0.0,0.0,0.0,0.0,0.0,0.0,0.0,0.0,0.0,0.0,0.0,0.0,0.0,0.0,0.0,0.0,0.0,0.0,0.0,0.0,0.0,0.0,0.0,0.0,0.0,0.0,0.0,0.0,0.0,0.0,0.0,0.0,0.0,0.0,0.0,0.0,0.0,0.0,0.0,0.0,0.0,0.0,0.0,0.0,0.0,0.0,0.0,0.0,0.0,0.0,0.0,0.0,0.0,0.0,0.0,0.0,0.0,0.0,0.0,0.0,0.0,0.0,0.0,0.0,0.0,0.0,0.0,0.0,0.0,0.0,0.0,0.0,0.0,0.0,0.0,0.0,0.0,0.0,0.0,0.0,0.0,0.0,0.0,0.0,0.0,0.0,0.0,0.0,0.0,0.0,0.0,0.0,0.0,0.0,0.0,0.0,0.0,0.0,0.0,0.0,0.0,0.0,0.0,0.0,0.0,0.0,0.0,0.0,0.0,0.0,0.0,0.0,0.0,0.0,0.0,0.0,0.0,0.0,0.0,0.0,0.0,0.0,0.0,0.0,0.0,0.0,0.0,0.0,0.0,0.0,0.0,0.0,0.0,0.0,0.0,0.0,0.0,0.0,0.0,0.0,0.0,0.0,0.0,0.0,0.0,0.0,0.0,0.0,0.0,0.0,0.0,0.0,0.0,0.0,0.0,0.0,0.0,0.0,0.0,0.0,0.0,0.0,0.0,0.0,0.0,0.0,0.0,0.0,0.0,0.0,0.0,0.0,0.0,0.0,0.0,0.0,0.0,0.0,0.0,0.0,0.0,0.0,0.0,0.0,0.0,0.0,0.0,0.0,0.0,0.0,0.0,0.0,0.0,0.0,0.0,0.0,0.0,0.0,0.0,0.0,0.0,0.0,0.0,0.0,0.0,0.0,0.0,0.0,0.0,0.0,0.0,0.0,0.0,0.0,0.0,0.0,0.0,0.0,0.0,0.0,0.0,0.0,0.0,0.0,0.0,0.0,0.0,0.0,0.0,0.0,0.0,0.0,0.0,0.0,0.0,0.0,0.0,0.0,0.0,0.0,0.0,0.0,0.0,0.0,0.0,0.0,0.0,0.0,0.0,0.0,0.0,0.0,0.0,0.0,0.0,0.0,0.0,0.0,0.0,0.0,0.0,0.0,0.0,0.0,0.0,0.0,0.0,0.0,0.0,0.0,0.0,0.0,0.0,0.0,0.0,0.0,0.0,0.0,0.0,0.0,0.0,0.0,0.0,0.0,0.0,0.0,0.0,0.0,0.0,0.0,0.0,0.0,0.0,0.0,0.0,0.0,0.0,0.0,0.0,0.0,0.0,0.0,0.0,0.0,0.0,0.0,0.0,0.0,0.0,0.0,0.0,0.0,0.0,0.0,0.0,0.0,0.0,0.0,0.0,0.0,0.0,0.0,0.0,0.0,0.0,0.0,0.0,0.0,0.0,0.0,0.0,0.0,0.0,0.0,0.0,0.0,0.0,0.0,0.0,0.0,0.0,0.0,0.0,0.0,0.0,0.0,0.0,0.0,0.0,0.0,0.0,0.0,0.0,0.0,0.0,0.0,0.0,0.0,0.0,0.0,0.0,0.0,0.0,0.0,0.0,0.0,0.0,0.0,0.0,0.0,0.0,0.0,0.0,0.0,0.0,0.0,0.0,0.0,0.0,0.0,0.0,0.0,0.0,0.0,0.0,0.0,0.0,0.0,0.0,0.0,0.0,0.0,0.0,0.0,0.0,0.0,0.0,0.0,0.0,0.0,0.0,0.0,0.0,0.0,0.0,0.0,0.0,0.0,0.0,0.0,0.0,0.0,0.0,0.0,0.0,0.0,0.0,0.0,0.0,0.0,-4.3463,0.0,0.0,0.0,0.0,0.0,0.0,0.0,0.0,0.0,0.0,0.0,0.0,0.0,0.0,0.0,0.0,0.0,0.0,0.0,0.0,0.0,0.0,0.0,0.0,0.0,0.0,0.0,0.0,0.0,0.0,0.0,0.0,0.0,0.0,0.0,0.0,0.0,0.0,0.0,0.0,0.0,0.0,0.0,0.0,0.0,0.0,0.0,0.0,0.0,0.0,0.0,0.0,0.0,0.0,0.0,0.0,0.0,0.0,0.0,0.0,0.0,0.0,0.0,0.0,0.0,0.0,0.0,0.0,0.0,0.0,0.0,0.0,0.0,0.0,0.0,0.0,0.0,0.0,0.0,0.0,0.0,0.0,0.0,0.0,0.0,0.0,0.0,0.0,0.0,0.0,0.0,0.0,0.0,0.0,0.0,0.0,0.0,0.0,0.0,0.0,0.0,0.0,0.0,0.0,0.0,0.0,0.0,0.0,0.0,0.0,0.0,0.0,0.0,0.0,0.0,0.0,-4.5296,0.0,0.0,0.0,0.0,0.0,0.0,0.0,0.0,0.0,0.0,0.0,0.0,0.0,0.0,0.0,0.0,0.0,0.0,0.0,0.0,0.0,0.0,0.0,0.0,0.0,0.0,0.0,0.0,0.0,0.0,0.0,0.0,0.0,0.0,0.0,0.0,0.0,0.0,0.0,0.0,0.0,0.0,0.0,0.0,0.0,0.0,0.0,0.0,0.0,0.0,0.0,0.0,0.0,0.0,0.0,0.0,0.0,0.0,0.0,0.0,0.0,0.0,0.0,0.0,0.0,0.0,0.0,0.0,0.0,0.0,0.0,0.0,0.0,0.0,0.0,0.0,0.0,0.0,0.0,0.0,0.0,0.0,0.0,0.0,0.0,0.0,0.0,0.0,0.0,0.0,0.0,0.0,0.0,0.0,0.0,0.0,0.0,0.0,0.0,0.0,0.0,0.0,0.0,0.0,0.0,0.0,0.0,0.0,0.0,0.0,-5.3783,-5.3884,-5.4285,-5.4662,-5.1021,-4.8937,-4.8159,0.0,0.0,0.0,0.0,0.0,0.0,0.0,0.0,0.0,0.0,0.0,0.0,0.0,0.0,0.0,0.0,0.0,0.0,0.0,0.0,0.0,0.0,0.0,0.0,0.0,0.0,0.0,0.0,0.0,0.0,0.0,0.0,0.0,0.0,0.0,0.0,0.0,0.0,0.0,0.0,0.0,0.0,0.0,0.0,0.0,0.0,0.0,0.0,0.0,0.0,0.0,0.0,0.0,0.0,0.0,0.0,0.0,0.0,0.0,0.0,0.0,0.0,0.0,0.0,0.0,0.0,0.0,0.0,0.0,0.0,0.0,0.0,0.0,0.0,0.0,0.0,0.0,0.0,0.0,0.0,0.0,0.0,0.0,0.0,0.0,0.0,0.0,-4.3489,-4.4597,0.0,0.0,0.0,0.0,0.0,0.0,0.0,0.0,0.0,0.0,0.0,0.0,0.0,0.0,-5.2703,-5.3783,-5.4411,-5.4637,-5.6168,-5.7022,-5.7248,-5.775,-5.8504,-5.9408,-5.883,0.0,-5.2101,-5.1197,0.0,0.0,0.0,0.0,0.0,0.0,0.0,0.0,0.0,0.0,0.0,0.0,0.0,0.0,0.0,0.0,0.0,0.0,0.0,0.0,0.0,0.0,0.0,0.0,0.0,0.0,0.0,0.0,0.0,0.0,0.0,0.0,0.0,0.0,0.0,0.0,0.0,0.0,0.0,0.0,0.0,0.0,0.0,0.0,0.0,0.0,0.0,0.0,0.0,0.0,0.0,0.0,0.0,0.0,0.0,0.0,0.0,0.0,0.0,0.0,0.0,0.0,0.0,0.0,0.0,0.0,0.0,0.0,0.0,0.0,0.0,0.0,0.0,0.0,0.0,0.0,0.0,0.0,0.0,0.0,0.0,0.0,0.0,0.0,0.0,-4.3866,-4.4471,-4.4684,-4.5067,-4.5045,0.0,0.0,0.0,0.0,0.0,0.0,0.0,0.0,0.0,-5.2327,-5.3482,-5.4536,-5.5566,-5.6972,-5.8328,-5.9583,-6.0939,-6.2421,-6.3927,-6.4178,-6.4555,-6.4982,-6.4982,-6.3224,-6.0111,-5.7123,-5.5013,-5.3557,0.0,0.0,0.0,0.0,0.0,0.0,0.0,0.0,0.0,0.0,0.0,0.0,0.0,0.0,0.0,0.0,0.0,0.0,0.0,0.0,0.0,0.0,0.0,0.0,0.0,0.0,0.0,0.0,0.0,0.0,0.0,0.0,0.0,0.0,0.0,0.0,0.0,0.0,0.0,0.0,0.0,0.0,0.0,0.0,0.0,0.0,0.0,0.0,0.0,0.0,0.0,0.0,0.0,0.0,0.0,0.0,0.0,0.0,0.0,0.0,0.0,0.0,0.0,0.0,0.0,0.0,0.0,0.0,0.0,0.0,0.0,0.0,0.0,0.0,0.0,0.0,0.0,0.0,0.0,0.0,0.0,0.0,0.0,-4.4644,0.0,-4.5146,-4.6903,-4.7481,0.0,0.0,0.0,0.0,0.0,0.0,-5.1197,-5.2754,-5.4411,-5.6194,-5.76,-5.8654,-5.9357,-6.0864,-6.2521,-6.4329,-6.5434,-6.7116,-6.925,-6.9551,-6.9677,-6.9677,-6.9677,-6.8798,-6.7041,-6.2446,-5.9508,-5.775,-5.6369,-5.5641,0.0,-5.5717,-5.6093,-5.6545,0.0,0.0,0.0,0.0,0.0,0.0,0.0,0.0,0.0,0.0,0.0,0.0,0.0,0.0,0.0,0.0,0.0,0.0,0.0,0.0,0.0,0.0,0.0,0.0,0.0,0.0,0.0,0.0,0.0,0.0,0.0,0.0,0.0,0.0,0.0,0.0,0.0,0.0,0.0,0.0,0.0,0.0,0.0,0.0,0.0,0.0,0.0,0.0,0.0,0.0,0.0,0.0,0.0,0.0,0.0,0.0,0.0,0.0,0.0,0.0,0.0,0.0,0.0,0.0,0.0,0.0,0.0,0.0,0.0,0.0,0.0,0.0,0.0,0.0,0.0,0.0,0.0,0.0,0.0,-4.6426,-4.9088,0.0,0.0,0.0,0.0,-5.0896,-5.2026,-5.3582,-5.5767,-5.6972,-5.8604,-6.0788,-6.2923,-6.4555,-6.5634,-6.6815,-6.7693,-6.8346,-6.9451,-7.0305,-7.1008,-7.2037,-7.2514,-7.2514,-7.2514,-7.1887,-7.0455,-6.5509,-6.3099,-6.227,-6.0085,-5.9558,-5.9935,-5.9433,-5.9257,-5.9282,0.0,0.0,0.0,0.0,0.0,0.0,0.0,0.0,0.0,0.0,0.0,0.0,0.0,0.0,0.0,0.0,0.0,0.0,0.0,0.0,0.0,0.0,0.0,0.0,0.0,0.0,0.0,0.0,0.0,0.0,0.0,0.0,0.0,0.0,0.0,0.0,0.0,0.0,0.0,0.0,0.0,0.0,0.0,0.0,0.0,0.0,0.0,0.0,0.0,0.0,0.0,0.0,0.0,0.0,0.0,0.0,0.0,0.0,0.0,0.0,0.0,0.0,0.0,0.0,0.0,0.0,0.0,0.0,0.0,0.0,0.0,0.0,0.0,0.0,0.0,0.0,0.0,0.0,0.0,-5.1096,-5.4034,0.0,0.0,-5.3607,-5.4009,-5.4411,-5.5817,-5.7625,-5.9809,-6.1341,-6.3299,-6.5886,-6.6739,-6.7668,-6.8773,-6.9526,-7.0179,-7.0757,-7.1861,-7.2891,-7.377,-7.4171,-7.4347,-7.4347,-7.4347,-7.392,-7.3067,-7.0932,-6.8472,-6.5911,-6.4756,-6.3776,-6.2998,-6.3174,-6.2998,-6.2797,0.0,0.0,0.0,0.0,0.0,0.0,0.0,0.0,0.0,0.0,0.0,0.0,0.0,0.0,0.0,0.0,0.0,0.0,0.0,0.0,0.0,0.0,0.0,0.0,0.0,0.0,0.0,0.0,0.0,0.0,0.0,0.0,0.0,0.0,0.0,0.0,0.0,0.0,0.0,0.0,0.0,0.0,-4.5999,0.0,0.0,0.0,0.0,0.0,0.0,0.0,0.0,0.0,0.0,0.0,0.0,0.0,0.0,0.0,0.0,0.0,0.0,0.0,0.0,0.0,0.0,0.0,0.0,0.0,0.0,0.0,0.0,0.0,0.0,0.0,0.0,0.0,0.0,0.0,-5.4511,-5.5064,-5.8554,-6.0211,-5.8353,-5.883,-5.9357,-5.9533,-6.0939,-6.2672,-6.468,-6.6011,-6.7618,-6.9677,-7.0104,-7.0656,-7.1384,-7.1937,-7.2389,-7.2765,-7.3694,-7.4523,-7.5251,-7.5427,-7.5502,-7.5502,-7.5502,-7.5201,-7.4674,-7.4498,-7.269,-6.9928,-6.8999,-6.797,-6.6965,-6.6965,-6.6739,-6.6513,0.0,0.0,0.0,0.0,0.0,0.0,0.0,0.0,0.0,0.0,0.0,0.0,0.0,0.0,0.0,0.0,0.0,0.0,0.0,0.0,0.0,0.0,0.0,0.0,0.0,0.0,0.0,0.0,0.0,0.0,0.0,0.0,0.0,0.0,0.0,0.0,0.0,0.0,0.0,0.0,0.0,0.0,-4.9264,0.0,0.0,0.0,0.0,0.0,0.0,0.0,0.0,0.0,0.0,0.0,0.0,0.0,0.0,0.0,0.0,0.0,0.0,0.0,0.0,0.0,0.0,0.0,0.0,0.0,0.0,0.0,0.0,0.0,0.0,0.0,0.0,0.0,-4.9766,-5.4059,-5.7474,-5.8127,-6.2496,-6.463,-6.2496,-6.4228,-6.5685,-6.6212,-6.7292,-6.8622,-7.0255,-7.0857,-7.1435,-7.2012,-7.3067,-7.3644,-7.3669,-7.4197,-7.4473,-7.4473,-7.5025,-7.5301,-7.5327,-7.5854,-7.6105,-7.6105,-7.6105,-7.5804,-7.5327,-7.5854,-7.5452,-7.4297,-7.264,-7.1987,-7.1836,-7.0757,-7.0355,-7.0229,0.0,0.0,0.0,0.0,0.0,0.0,0.0,0.0,0.0,0.0,0.0,0.0,0.0,0.0,0.0,0.0,0.0,0.0,0.0,0.0,0.0,0.0,0.0,0.0,0.0,0.0,0.0,0.0,0.0,0.0,0.0,0.0,0.0,0.0,0.0,0.0,0.0,0.0,0.0,0.0,0.0,0.0,-5.1674,0.0,0.0,0.0,0.0,0.0,0.0,0.0,0.0,0.0,0.0,0.0,0.0,0.0,0.0,0.0,0.0,0.0,0.0,0.0,0.0,0.0,0.0,0.0,0.0,0.0,0.0,0.0,0.0,0.0,0.0,0.0,0.0,-5.3331,-5.3733,-5.8102,-6.2195,-6.4781,-6.7693,-6.925,-6.8648,-6.9125,-6.9401,-6.915,-7.0154,-7.1158,-7.2012,-7.259,-7.3519,-7.4875,-7.4824,-7.4975,-7.5377,-7.5527,-7.5603,-7.5603,-7.6155,-7.6632,-7.7034,-7.7185,-7.726,-7.726,-7.726,-7.6933,-7.6431,-7.6582,-7.623,-7.5527,-7.4649,-7.3845,-7.3092,-7.2791,-7.2163,-7.1435,0.0,0.0,0.0,0.0,0.0,0.0,0.0,0.0,0.0,0.0,0.0,0.0,0.0,0.0,0.0,0.0,0.0,0.0,0.0,0.0,0.0,0.0,0.0,0.0,0.0,0.0,0.0,0.0,0.0,0.0,0.0,0.0,0.0,0.0,0.0,0.0,0.0,0.0,0.0,0.0,0.0,0.0,-5.5666,-5.2427,-5.0745,-4.9916,-4.8335,-4.7531,-4.6928,-4.5171,0.0,0.0,0.0,0.0,0.0,0.0,0.0,0.0,0.0,0.0,0.0,0.0,0.0,0.0,0.0,0.0,0.0,0.0,0.0,0.0,0.0,0.0,0.0,0.0,-5.5013,-5.8177,-6.0588,-6.3023,-6.571,-6.8798,-7.1133,-7.2489,-7.2489,-7.2891,-7.3042,-7.2715,-7.3494,-7.4222,-7.4774,-7.5126,-7.5753,-7.6707,-7.6431,-7.6431,-7.6733,-7.6733,-7.6733,-7.6733,-7.7059,-7.7385,-7.7712,-7.7712,-7.7712,0.0,-7.7712,-7.7511,-7.721,-7.6984,-7.6682,0.0,0.0,0.0,0.0,0.0,-7.372,-7.2966,0.0,0.0,0.0,0.0,0.0,0.0,0.0,0.0,0.0,0.0,0.0,0.0,0.0,0.0,0.0,0.0,0.0,0.0,0.0,0.0,0.0,0.0,0.0,0.0,0.0,0.0,0.0,0.0,0.0,0.0,0.0,0.0,0.0,0.0,0.0,0.0,0.0,0.0,0.0,0.0,0.0,0.0,-6.0111,-5.6495,-5.5315,-5.529,-5.3155,-5.1498,-5.0142,-4.8887,0.0,0.0,0.0,0.0,0.0,0.0,0.0,0.0,0.0,0.0,0.0,0.0,0.0,0.0,0.0,0.0,0.0,0.0,0.0,0.0,0.0,0.0,0.0,0.0,-5.9332,-6.35,-6.8321,-6.8321,-6.8748,-7.1259,-7.3368,-7.4623,-7.4699,-7.5578,-7.618,-7.623,-7.6682,-7.7185,0.0,0.0,0.0,0.0,0.0,-7.7812,-7.7888,-7.7812,-7.7862,-7.7988,-7.7913,-7.7963,-7.8063,-7.8013,-7.7988,-7.7988,-7.7913,-7.7862,-7.7762,-7.726,-7.7034,-7.6908,-7.6281,-7.6055,-7.6004,-7.5502,-7.4975,0.0,0.0,0.0,0.0,0.0,0.0,0.0,0.0,0.0,0.0,0.0,0.0,0.0,0.0,0.0,0.0,0.0,0.0,0.0,0.0,0.0,0.0,0.0,0.0,0.0,0.0,0.0,0.0,0.0,0.0,0.0,0.0,0.0,0.0,0.0,0.0,0.0,0.0,0.0,0.0,0.0,0.0,0.0,-6.1441,-5.9332,-5.7775,-5.647,-5.4712,-5.4461,-5.4637,-5.2628,-5.2026,-5.1774,-4.9766,0.0,0.0,0.0,0.0,0.0,0.0,0.0,0.0,0.0,0.0,0.0,0.0,0.0,0.0,0.0,0.0,0.0,0.0,0.0,0.0,-6.001,-6.3601,-6.7116,-7.0757,-7.2263,-7.3343,-7.4322,-7.5201,-7.5904,-7.6356,-7.6582,-7.6908,-7.736,-7.7486,-7.7586,-7.7687,-7.7712,0.0,-7.834,-7.8365,-7.8591,-7.9068,-7.8591,-7.8817,-7.9721,0.0,0.0,-8.0373,-7.9921,-7.9721,-7.9695,-7.9243,-7.8792,-7.8365,-7.8239,-7.7938,-7.7436,-7.6431,-7.6055,-7.6055,-7.5929,-7.5552,-7.5075,0.0,0.0,0.0,0.0,0.0,0.0,0.0,0.0,0.0,0.0,0.0,0.0,0.0,0.0,0.0,0.0,0.0,0.0,0.0,0.0,0.0,0.0,0.0,0.0,0.0,0.0,0.0,0.0,0.0,0.0,0.0,0.0,0.0,0.0,0.0,0.0,0.0,0.0,0.0,0.0,0.0,0.0,-6.4304,-6.2621,-6.1316,-6.0211,-5.9106,-5.8504,-5.8027,-5.6369,-5.544,-5.4662,-5.3005,-5.1172,-4.9339,0.0,0.0,0.0,0.0,0.0,0.0,0.0,0.0,0.0,0.0,0.0,0.0,0.0,0.0,-5.2,0.0,0.0,-6.0462,-6.4655,-6.7643,-7.0506,-7.3544,-7.4699,-7.5352,-7.5603,-7.613,-7.6783,-7.7611,-7.7712,-7.8063,-7.8892,-7.8967,-7.9068,-7.9344,-7.9369,-7.9495,-7.9771,-7.9771,-7.9921,-8.0223,-7.9921,-8.0198,-8.1001,-8.0474,-8.08,-8.183,-8.1001,-8.0775,-8.0976,-8.0147,-7.9645,-7.9319,-7.8766,-7.8189,-7.7637,-7.7084,-7.6707,-7.6456,-7.6456,-7.613,-7.5653,0.0,0.0,0.0,0.0,0.0,0.0,0.0,0.0,0.0,0.0,0.0,0.0,0.0,0.0,0.0,0.0,0.0,0.0,0.0,0.0,0.0,0.0,0.0,0.0,0.0,0.0,0.0,0.0,0.0,0.0,0.0,0.0,0.0,0.0,0.0,0.0,0.0,0.0,0.0,0.0,0.0,0.0,-6.7116,-6.5559,-6.4555,-6.3927,-6.3249,-6.1918,-6.0387,-5.9734,-5.8328,-5.6721,-5.6068,-5.4637,-5.2779,-5.0544,-5.0218,0.0,0.0,0.0,0.0,0.0,0.0,0.0,0.0,0.0,-5.0695,-5.2929,-5.4411,-5.6269,-5.9408,-6.2169,-6.5157,-6.8823,-7.1184,-7.3418,-7.5879,-7.6406,-7.6582,-7.6682,-7.6984,-7.7586,-7.8591,-7.8792,-7.9269,-8.0298,-8.0373,-8.0574,-8.1001,-8.1026,-8.1076,-8.1177,-8.1177,-8.1277,-8.1503,-8.1403,-8.1654,-8.2282,-8.1754,-8.2031,-8.296,-8.1855,-8.1579,-8.1905,-8.0725,-8.0147,-7.9972,-7.9068,-7.844,-7.8038,-7.8038,-7.7687,-7.7185,-7.6959,-7.6657,-7.6356,0.0,0.0,0.0,0.0,0.0,0.0,0.0,0.0,0.0,0.0,0.0,0.0,0.0,0.0,0.0,0.0,0.0,0.0,0.0,0.0,0.0,0.0,0.0,0.0,0.0,0.0,0.0,0.0,0.0,0.0,0.0,0.0,0.0,0.0,0.0,0.0,0.0,0.0,0.0,0.0,0.0,0.0,-6.8321,-6.7141,-6.6036,-6.4982,-6.3952,-6.2521,-6.1215,-6.2069,-6.0914,-5.9282,-6.0161,-5.8981,-5.6821,-5.4587,0.0,-5.067,-4.8284,-4.7079,0.0,-4.8008,-4.841,-4.9289,0.0,0.0,-5.529,-5.7524,-5.9633,-6.1793,-6.4128,-6.6438,-6.8924,-7.1786,-7.3745,-7.5327,-7.6607,-7.7637,-7.844,-7.8942,-7.8616,-7.8591,-7.9243,-7.9746,-8.0273,-8.0901,-8.0951,-8.0976,-8.1026,-8.1026,-8.1252,-8.1704,-8.1729,-8.2206,-8.3211,-8.2734,-8.301,-8.4039,-8.3487,-8.3537,-8.4089,-8.2985,-8.2508,-8.2483,-8.0901,-7.9921,-7.9469,-7.9344,-7.9243,-7.9193,-7.9193,-7.8842,-7.8214,-7.7235,-7.7159,-7.7436,0.0,0.0,0.0,0.0,0.0,0.0,0.0,0.0,0.0,0.0,0.0,0.0,0.0,0.0,0.0,0.0,0.0,0.0,0.0,0.0,0.0,0.0,0.0,0.0,0.0,0.0,0.0,0.0,0.0,0.0,0.0,0.0,0.0,0.0,0.0,0.0,0.0,0.0,0.0,0.0,0.0,0.0,-6.8974,-6.7869,-6.6363,-6.463,-6.3224,-6.1843,0.0,0.0,-6.0487,-6.0161,-6.1316,-5.9709,-5.7148,-5.5892,-5.3256,0.0,-4.8837,0.0,0.0,0.0,-5.0946,-5.2929,-5.5942,-5.7976,-5.996,-6.2496,-6.453,-6.6538,-6.8723,-7.0706,-7.259,0.0,-7.5804,-7.7059,-7.8189,-7.844,-7.8741,-7.9319,-7.9168,-7.9495,-8.0675,-8.1001,-8.1378,-8.1955,-8.2282,-8.2457,-8.2457,-8.2759,-8.3035,-8.3261,-8.3261,-8.3487,-8.3989,-8.3738,-8.3989,-8.4793,-8.424,-8.4416,-8.5244,-8.4165,-8.3085,-8.2131,-8.1453,-8.065,-7.9871,-7.9871,-7.9871,-7.9821,-7.952,-7.9243,-7.8942,-7.8139,-7.7787,-7.7611,0.0,0.0,0.0,0.0,0.0,0.0,0.0,0.0,0.0,0.0,0.0,0.0,0.0,0.0,0.0,0.0,0.0,0.0,0.0,0.0,0.0,0.0,0.0,0.0,0.0,0.0,0.0,0.0,0.0,0.0,0.0,0.0,0.0,0.0,0.0,0.0,0.0,0.0,0.0,0.0,0.0,0.0,-6.9074,-6.7819,-6.5584,-6.2923,-6.1567,-6.006,0.0,0.0,-5.7951,-5.8504,-5.9784,-5.8629,-5.6671,-5.5968,-5.3005,-4.9866,-4.9364,0.0,0.0,-5.1975,-5.4336,-5.6947,-6.006,-6.2345,-6.458,-6.7166,-6.9049,-7.0757,-7.2514,-7.4071,0.0,-7.6356,-7.7561,-7.8691,-7.9495,-7.9394,-7.9193,-7.9143,-7.9018,-7.9394,-8.0549,-8.1353,-8.2106,-8.2834,-8.3412,-8.3713,-8.3713,-8.4089,-8.4391,-8.4567,-8.4567,-8.4642,-8.4767,-8.4818,-8.4993,-8.5395,-8.4968,-8.5219,-8.5998,-8.4818,-8.3487,-8.2031,-8.188,-8.1202,-8.0223,-8.0223,-8.0122,-7.9947,-7.9545,-7.9394,-7.9344,-7.8917,-7.8515,-7.8088,0.0,0.0,0.0,0.0,0.0,0.0,0.0,0.0,0.0,0.0,0.0,0.0,0.0,0.0,0.0,0.0,0.0,0.0,0.0,0.0,0.0,0.0,0.0,0.0,0.0,0.0,0.0,0.0,0.0,0.0,0.0,0.0,0.0,0.0,0.0,0.0,0.0,0.0,0.0,0.0,0.0,0.0,-6.8472,-6.6789,-6.345,-5.9583,-5.8981,0.0,0.0,0.0,-5.313,-5.3432,-5.5064,-5.5892,0.0,-5.4938,-5.185,0.0,0.0,0.0,-5.2251,-5.6595,-5.8905,-6.1165,-6.5007,-6.7191,-6.9049,-7.1284,-7.3067,-7.4423,-7.5025,-7.6055,-7.6984,-7.7561,-7.9043,-8.0147,-8.0173,-8.0624,-8.0348,-7.8741,-7.8088,-7.7762,0.0,-8.0248,-8.2282,-8.3386,-8.3989,-8.4315,-8.4315,-8.4315,-8.4567,-8.5069,-8.5144,-8.5395,-8.5922,-8.5922,-8.5948,-8.5998,-8.5948,-8.5998,-8.5998,-8.4818,-8.3713,-8.2608,-8.2056,-8.1202,-8.0223,-8.0223,-7.9896,-7.9419,-7.9394,-7.9394,-7.9394,-7.9369,-7.9344,-7.9243,0.0,0.0,0.0,0.0,0.0,0.0,0.0,0.0,0.0,0.0,0.0,0.0,0.0,0.0,0.0,0.0,0.0,0.0,0.0,0.0,0.0,0.0,0.0,0.0,0.0,0.0,0.0,0.0,0.0,0.0,0.0,0.0,0.0,0.0,0.0,0.0,0.0,0.0,0.0,0.0,0.0,0.0,-6.8874,-6.6086,-6.227,-5.8077,0.0,0.0,0.0,0.0,0.0,0.0,-5.2126,0.0,0.0,-4.9615,0.0,0.0,0.0,0.0,-5.7072,-6.0814,-6.3525,-6.6112,-6.925,-7.1259,-7.2791,-7.3895,-7.3669,-7.3343,-7.3544,-7.4197,-7.5126,-7.6406,-7.8641,-8.0599,-8.1679,-8.1679,-8.08,-7.8766,-7.8365,0.0,0.0,0.0,0.0,-8.2257,-8.3587,-8.4491,-8.4818,-8.5244,-8.5496,-8.5722,-8.5722,-8.5822,-8.5998,-8.5998,-8.5998,-8.5998,-8.5998,-8.5998,-8.5998,-8.4818,-8.3914,-8.3186,-8.2633,-8.1754,-8.0775,-8.1127,-8.0951,-8.0474,-8.0474,-8.0474,-8.0424,-8.0072,-7.9921,-7.9796,0.0,0.0,0.0,0.0,0.0,0.0,0.0,0.0,0.0,0.0,0.0,0.0,0.0,0.0,0.0,0.0,0.0,0.0,0.0,0.0,0.0,0.0,0.0,0.0,0.0,0.0,0.0,0.0,0.0,0.0,0.0,0.0,0.0,0.0,0.0,0.0,0.0,0.0,0.0,0.0,0.0,0.0,-6.4731,-6.2195,-5.8353,0.0,0.0,0.0,0.0,0.0,0.0,0.0,0.0,0.0,0.0,0.0,0.0,0.0,0.0,-5.8127,-6.1893,-6.5459,-6.797,-7.0179,-7.2565,-7.3946,-7.4699,-7.4674,-7.3468,-7.2263,-7.1661,-7.1535,-7.2263,-7.4498,-7.6707,-7.9068,-8.1704,-8.1252,-8.0097,-7.8691,-7.7837,0.0,0.0,0.0,0.0,-8.1629,-8.3186,-8.4341,-8.5119,-8.5671,-8.5998,-8.5998,-8.5998,-8.5998,-8.5998,-8.5998,-8.5998,-8.5998,-8.5998,-8.5998,-8.5998,-8.4818,-8.424,-8.4064,-8.3085,-8.2282,-8.1629,-8.1754,-8.1503,-8.1026,-8.1026,-8.1026,-8.0976,-8.0424,-8.0223,-8.0072,0.0,0.0,0.0,0.0,0.0,0.0,0.0,0.0,0.0,0.0,0.0,0.0,0.0,0.0,0.0,0.0,0.0,0.0,0.0,0.0,0.0,0.0,0.0,0.0,0.0,0.0,0.0,0.0,0.0,0.0,0.0,0.0,0.0,0.0,0.0,0.0,0.0,0.0,0.0,0.0,0.0,0.0,-5.6821,-5.5666,0.0,0.0,0.0,0.0,0.0,0.0,0.0,0.0,0.0,0.0,0.0,0.0,0.0,-5.5867,-6.0236,-6.3475,-6.6538,-7.0305,-7.2062,-7.3293,-7.49,-7.5226,-7.4824,-7.3694,-7.2439,-7.1033,0.0,0.0,-6.8773,-7.2062,-7.3795,-7.623,-8.0549,-7.9821,-7.8817,0.0,0.0,0.0,0.0,0.0,0.0,-8.1579,0.0,-8.3914,-8.5144,-8.5722,-8.5998,-8.5998,-8.5998,-8.5998,-8.5998,-8.5998,-8.5998,-8.5998,-8.5998,-8.5998,-8.5998,-8.4843,-8.4642,-8.5044,-8.3412,-8.2708,-8.2633,-8.2081,-8.1553,-8.1076,-8.1102,-8.1127,-8.1051,-8.0499,-8.0298,-8.0223,0.0,0.0,0.0,0.0,0.0,0.0,0.0,0.0,0.0,0.0,0.0,0.0,0.0,0.0,0.0,0.0,0.0,0.0,0.0,0.0,0.0,0.0,0.0,0.0,0.0,0.0,0.0,0.0,0.0,0.0,0.0,0.0,0.0,0.0,0.0,0.0,0.0,0.0,0.0,0.0,0.0,0.0,-5.5591,0.0,0.0,0.0,0.0,0.0,0.0,0.0,0.0,0.0,0.0,0.0,-5.0619,0.0,0.0,-6.0286,-6.3877,-6.7493,-7.0757,-7.3016,-7.4096,-7.4824,-7.5653,-7.49,-7.3569,-7.2037,-6.8874,-6.586,0.0,0.0,0.0,-7.0405,-7.5301,0.0,-8.2483,-8.3211,0.0,0.0,0.0,-8.0298,-7.9068,-7.9068,0.0,0.0,-8.2307,-8.3286,-8.5646,-8.5922,-8.5998,-8.5998,-8.5998,-8.5998,-8.5998,-8.5998,-8.5998,-8.5998,-8.5998,-8.5998,-8.5998,-8.5244,-8.4993,-8.5069,-8.3813,-8.306,-8.2658,-8.2508,-8.2131,-8.1654,-8.2081,-8.2257,-8.2181,-8.1604,-8.1403,-8.1277,0.0,0.0,0.0,0.0,0.0,0.0,0.0,0.0,0.0,0.0,0.0,0.0,0.0,0.0,0.0,0.0,0.0,0.0,0.0,0.0,0.0,0.0,0.0,0.0,0.0,0.0,0.0,0.0,0.0,0.0,0.0,0.0,0.0,0.0,0.0,0.0,0.0,0.0,0.0,0.0,0.0,0.0,0.0,0.0,0.0,0.0,0.0,0.0,0.0,0.0,0.0,-4.8485,-5.0645,-5.2578,-5.4813,-5.8704,0.0,-6.4806,-6.812,-7.1334,-7.4021,-7.5201,-7.5728,-7.5603,-7.4197,-7.3167,-7.141,-6.7543,-6.4756,0.0,0.0,0.0,0.0,0.0,0.0,0.0,-8.1905,-8.2934,-8.3135,0.0,-8.2407,0.0,-8.1001,-8.0901,-8.1604,0.0,0.0,-8.3186,-8.5496,-8.5847,-8.5998,-8.5998,-8.5998,-8.5998,-8.5998,-8.5998,-8.5998,-8.5998,-8.5998,-8.5998,-8.5998,-8.5395,-8.5295,-8.542,0.0,-8.3462,-8.3361,-8.2859,-8.2483,-8.2231,-8.2533,-8.2683,-8.2608,-8.2031,-8.1805,-8.1654,0.0,0.0,0.0,0.0,0.0,0.0,0.0,0.0,0.0,0.0,0.0,0.0,0.0,0.0,0.0,0.0,0.0,0.0,0.0,0.0,0.0,0.0,0.0,0.0,0.0,0.0,0.0,0.0,0.0,0.0,0.0,0.0,0.0,0.0,0.0,0.0,0.0,0.0,0.0,0.0,0.0,0.0,0.0,0.0,0.0,0.0,0.0,0.0,0.0,0.0,-5.0544,-5.1699,-5.4637,-5.7399,-6.0311,-6.4203,-6.6764,-6.9049,-7.2288,-7.4649,-7.6281,-7.6858,-7.6833,-7.5678,-7.1937,-7.0631,-6.8396,-6.2044,0.0,0.0,-5.6319,0.0,-6.1969,-6.5007,0.0,-7.5628,-8.0524,-8.1428,-8.2131,-8.3638,-8.296,-8.2357,-8.2357,-8.2357,-8.296,-8.4416,-8.3663,-8.3738,-8.5144,-8.5747,-8.5998,-8.5998,-8.5998,-8.5998,-8.5998,-8.5998,-8.5998,-8.5998,-8.5998,-8.5998,-8.5998,-8.5395,-8.547,-8.5922,0.0,0.0,-8.424,-8.3135,-8.2683,-8.2683,-8.2683,-8.2683,-8.2608,-8.2106,-8.193,-8.1779,0.0,0.0,0.0,0.0,0.0,0.0,0.0,0.0,0.0,0.0,0.0,0.0,0.0,0.0,0.0,0.0,0.0,0.0,0.0,0.0,0.0,0.0,0.0,0.0,0.0,0.0,0.0,0.0,0.0,0.0,0.0,0.0,0.0,0.0,0.0,0.0,0.0,0.0,0.0,0.0,0.0,0.0,0.0,0.0,0.0,0.0,0.0,0.0,0.0,0.0,-5.3632,-5.5842,-5.9558,-6.2295,-6.4906,-6.8798,-7.0531,-7.1811,-7.4699,-7.608,-7.6858,-7.7411,-7.6532,-7.4749,-7.1761,-6.8246,0.0,0.0,0.0,-5.4687,-5.3683,0.0,0.0,-6.5936,0.0,0.0,0.0,0.0,0.0,0.0,0.0,0.0,0.0,0.0,0.0,0.0,0.0,0.0,0.0,-8.5922,-8.5998,-8.5998,-8.5998,-8.5998,-8.5998,-8.5998,-8.5998,-8.5998,-8.5998,-8.5998,-8.5998,-8.5395,-8.547,-8.5922,0.0,0.0,-8.424,-8.3135,-8.2683,-8.2683,-8.2683,-8.2683,-8.2658,-8.2558,-8.2533,-8.2432,0.0,0.0,0.0,0.0,0.0,0.0,0.0,0.0,0.0,0.0,0.0,0.0,0.0,0.0,0.0,0.0,0.0,0.0,0.0,0.0,0.0,0.0,0.0,0.0,0.0,0.0,0.0,0.0,0.0,0.0,0.0,0.0,0.0,0.0,0.0,0.0,0.0,0.0,0.0,0.0,0.0,0.0,0.0,0.0,0.0,0.0,0.0,0.0,0.0,0.0,-5.4185,-5.8805,-6.3852,-6.6965,-6.9325,-7.2364,-7.3644,-7.4423,-7.603,-7.7084,-7.7737,-7.7712,-7.6456,-7.3971,-6.9175,0.0,0.0,0.0,0.0,-5.2101,-5.0971,0.0,0.0,0.0,0.0,0.0,0.0,0.0,0.0,0.0,0.0,0.0,0.0,0.0,0.0,0.0,0.0,0.0,0.0,-8.5998,-8.5998,-8.5998,-8.5998,-8.5998,-8.5998,-8.5998,-8.5998,-8.5998,-8.5998,-8.5998,-8.5998,-8.5722,-8.5747,-8.5922,0.0,0.0,-8.4667,-8.3864,-8.3361,-8.311,-8.311,-8.2934,-8.2683,-8.2683,-8.2683,-8.2583,0.0,0.0,0.0,0.0,0.0,0.0,0.0,0.0,0.0,0.0,0.0,0.0,0.0,0.0,0.0,0.0,0.0,0.0,0.0,0.0,0.0,0.0,0.0,0.0,0.0,0.0,0.0,0.0,0.0,0.0,0.0,0.0,0.0,0.0,0.0,0.0,0.0,0.0,0.0,0.0,0.0,0.0,0.0,0.0,0.0,0.0,0.0,0.0,0.0,0.0,-5.3482,-5.9106,-6.5007,-6.925,-7.2389,-7.3895,-7.5251,-7.6356,-7.6908,-7.7762,-7.8415,-7.7988,-7.6281,-7.3042,-6.6739,-6.2596,0.0,0.0,0.0,0.0,0.0,0.0,0.0,0.0,0.0,0.0,0.0,0.0,0.0,0.0,0.0,0.0,0.0,0.0,0.0,0.0,0.0,0.0,0.0,-8.5998,-8.5998,-8.5998,-8.5998,-8.5998,-8.5998,-8.5998,-8.5998,-8.5998,-8.5998,-8.5998,-8.5998,-8.5897,-8.5897,-8.5998,0.0,0.0,0.0,-8.4491,-8.3914,-8.3336,-8.3587,-8.3261,-8.2683,-8.2809,-8.2784,-8.2633,0.0,0.0,0.0,0.0,0.0,0.0,0.0,0.0,0.0,0.0,0.0,0.0,0.0,0.0,0.0,0.0,0.0,0.0,0.0,0.0,0.0,0.0,0.0,0.0,0.0,0.0,0.0,0.0,0.0,0.0,0.0,0.0,0.0,0.0,0.0,0.0,0.0,0.0,0.0,0.0,0.0,0.0,0.0,0.0,0.0,0.0,0.0,0.0,0.0,0.0,0.0,-5.4411,-5.9508,-6.6438,-7.2489,-7.1686,0.0,0.0,-7.7486,-7.8063,-7.8515,-7.8465,-7.5678,-7.161,-6.6463,0.0,0.0,0.0,0.0,0.0,0.0,0.0,0.0,0.0,0.0,0.0,0.0,0.0,0.0,0.0,0.0,0.0,0.0,0.0,0.0,0.0,0.0,0.0,0.0,-8.5998,-8.5998,-8.5998,-8.5998,-8.5998,-8.5998,-8.5998,-8.5998,-8.5998,-8.5998,-8.5998,-8.5998,-8.547,-8.5496,-8.5922,0.0,0.0,0.0,-8.4315,-8.3688,-8.2834,-8.3838,-8.3587,-8.2734,-8.3236,-8.311,-8.2734,0.0,0.0,0.0,0.0,0.0,0.0,0.0,0.0,0.0,0.0,0.0,0.0,0.0,0.0,0.0,0.0,0.0,0.0,0.0,0.0,0.0,0.0,0.0,0.0,0.0,0.0,0.0,0.0,0.0,0.0,0.0,0.0,0.0,0.0,0.0,0.0,0.0,0.0,0.0,0.0,0.0,0.0,0.0,0.0,0.0,0.0,0.0,0.0,0.0,0.0,0.0,0.0,-5.2076,-5.7876,0.0,0.0,-7.1887,-7.4448,-7.7009,-7.8365,-7.8892,-7.8189,-7.5101,-7.0832,-6.5534,0.0,0.0,0.0,0.0,0.0,0.0,0.0,0.0,0.0,0.0,0.0,0.0,0.0,0.0,0.0,0.0,0.0,0.0,0.0,0.0,0.0,0.0,0.0,0.0,0.0,-8.5998,-8.5998,-8.5998,-8.5998,-8.5998,-8.5998,-8.5998,-8.5998,-8.5998,-8.5998,-8.5998,-8.5747,-8.5772,-8.5998,0.0,0.0,0.0,-8.532,-8.4893,-8.4215,-8.4642,-8.4315,-8.3688,-8.3914,-8.3838,-8.3688,0.0,0.0,0.0,0.0,0.0,0.0,0.0,0.0,0.0,0.0,0.0,0.0,0.0,0.0,0.0,0.0,0.0,0.0,0.0,0.0,0.0,0.0,0.0,0.0,0.0,0.0,0.0,0.0,0.0,0.0,0.0,0.0,0.0,0.0,0.0,0.0,0.0,0.0,0.0,0.0,0.0,0.0,0.0,0.0,0.0,0.0,0.0,0.0,0.0,0.0,0.0,0.0,0.0,0.0,0.0,0.0,-6.8848,-7.2188,-7.5753,-7.7913,-7.8892,-7.7938,-7.4523,-7.0054,0.0,0.0,0.0,0.0,0.0,0.0,-4.8912,-4.9791,0.0,0.0,0.0,-5.6595,0.0,0.0,0.0,0.0,0.0,0.0,0.0,0.0,0.0,0.0,0.0,0.0,0.0,0.0,-8.5998,-8.5998,-8.6174,-8.6174,-8.5998,-8.5998,-8.5998,-8.5998,-8.5998,-8.5998,-8.5998,-8.5998,-8.5998,0.0,0.0,0.0,0.0,-8.5922,-8.5571,-8.4918,-8.5244,-8.4968,-8.4315,-8.4491,-8.4466,-8.4315,0.0,0.0,0.0,0.0,0.0,0.0,0.0,0.0,0.0,0.0,0.0,0.0,0.0,0.0,0.0,0.0,0.0,0.0,0.0,0.0,0.0,0.0,0.0,0.0,0.0,0.0,0.0,0.0,0.0,0.0,0.0,0.0,0.0,0.0,0.0,0.0,0.0,0.0,0.0,0.0,0.0,0.0,0.0,0.0,0.0,0.0,0.0,0.0,0.0,0.0,0.0,0.0,0.0,0.0,0.0,0.0,-6.468,-7.0882,-7.3694,-7.6456,-7.839,-7.7837,-7.3946,-6.9125,0.0,0.0,0.0,0.0,0.0,0.0,-4.949,-5.0042,-5.0795,-5.195,-5.4411,-5.7951,-6.2998,0.0,0.0,0.0,0.0,0.0,0.0,0.0,0.0,0.0,0.0,0.0,0.0,0.0,-8.5998,-8.5998,-8.65,-8.6525,-8.5998,-8.5998,-8.5998,-8.5998,-8.5998,-8.5998,-8.5998,-8.5998,0.0,0.0,0.0,0.0,0.0,-8.5747,-8.5345,-8.4416,-8.5571,-8.532,-8.4391,-8.4918,-8.4793,-8.4391,0.0,0.0,0.0,0.0,0.0,0.0,0.0,0.0,0.0,0.0,0.0,0.0,0.0,0.0,0.0,0.0,0.0,0.0,0.0,0.0,0.0,0.0,0.0,0.0,0.0,0.0,0.0,0.0,0.0,0.0,0.0,0.0,0.0,0.0,0.0,0.0,0.0,0.0,0.0,0.0,0.0,0.0,0.0,0.0,0.0,0.0,0.0,0.0,0.0,0.0,0.0,0.0,0.0,0.0,0.0,0.0,0.0,0.0,-6.7216,-6.9928,-7.1435,-7.0104,-6.7467,-6.4228,-6.0563,0.0,0.0,0.0,0.0,0.0,0.0,-4.9741,-5.072,-5.3356,-5.4838,-5.6997,0.0,0.0,0.0,0.0,0.0,0.0,0.0,0.0,0.0,0.0,0.0,0.0,0.0,0.0,0.0,-8.6525,-8.6349,-8.6174,-8.5998,-8.5998,-8.5998,-8.5998,-8.5998,-8.5998,-8.5998,-8.5998,0.0,0.0,0.0,0.0,0.0,-8.5922,-8.5772,-8.5496,-8.5847,-8.5772,-8.5496,-8.5671,-8.5596,-8.5496,0.0,0.0,0.0,0.0,0.0,0.0,0.0,0.0,0.0,0.0,0.0,0.0,0.0,0.0,0.0,0.0,0.0,0.0,0.0,0.0,0.0,0.0,0.0,0.0,0.0,0.0,0.0,0.0,0.0,0.0,0.0,0.0,0.0,0.0,0.0,0.0,0.0,0.0,0.0,0.0,0.0,0.0,0.0,0.0,0.0,0.0,0.0,0.0,0.0,0.0,0.0,0.0,0.0,0.0,0.0,0.0,0.0,0.0,0.0,-6.5333,-6.7116,-6.6061,-6.4002,0.0,0.0,0.0,0.0,0.0,0.0,0.0,0.0,-5.0092,-5.0971,-5.3256,-5.4436,-5.6244,0.0,0.0,0.0,0.0,0.0,0.0,0.0,0.0,0.0,0.0,0.0,0.0,0.0,0.0,0.0,-8.7103,-8.66,-8.6174,-8.5998,-8.5998,-8.5998,-8.5998,-8.5998,-8.5998,-8.5998,0.0,0.0,0.0,0.0,0.0,0.0,-8.5998,-8.5998,-8.5998,-8.5998,-8.5998,-8.5998,-8.5998,-8.5998,-8.5998,0.0,0.0,0.0,0.0,0.0,0.0,0.0,0.0,0.0,0.0,0.0,0.0,0.0,0.0,0.0,0.0,0.0,0.0,0.0,0.0,0.0,0.0,0.0,0.0,0.0,0.0,0.0,0.0,-4.8038,-4.8483,-5.006,0.0,0.0,0.0,0.0,0.0,0.0,0.0,0.0,0.0,0.0,0.0,0.0,0.0,0.0,0.0,0.0,0.0,0.0,0.0,0.0,0.0,0.0,0.0,0.0,0.0,0.0,0.0,0.0,0.0,0.0,0.0,0.0,0.0,0.0,0.0,0.0,0.0,0.0,0.0,0.0,0.0,-5.1473,-5.2226,-5.3683,-5.5867,0.0,0.0,0.0,0.0,0.0,0.0,0.0,0.0,0.0,0.0,0.0,0.0,0.0,0.0,0.0,0.0,-8.7027,-8.65,-8.5998,-8.5998,-8.5998,-8.5998,-8.5998,-8.5998,-8.5998,0.0,0.0,0.0,0.0,0.0,0.0,-8.5922,-8.5998,-8.5998,-8.5922,-8.5998,-8.5998,-8.5922,-8.5998,-8.5998,0.0,0.0,0.0,0.0,0.0,0.0,0.0,0.0,0.0,0.0,0.0,0.0,0.0,0.0,0.0,0.0,0.0,0.0,0.0,0.0,0.0,0.0,0.0,0.0,0.0,0.0,0.0,-4.7758,-4.8477,-4.9042,-4.9523,-5.0203,0.0,0.0,0.0,0.0,0.0,0.0,0.0,0.0,0.0,0.0,0.0,0.0,0.0,0.0,0.0,0.0,0.0,0.0,0.0,0.0,0.0,0.0,0.0,0.0,-4.7355,0.0,0.0,0.0,0.0,0.0,0.0,0.0,0.0,0.0,0.0,0.0,0.0,0.0,0.0,0.0,0.0,-5.4185,-5.5641,-5.7323,0.0,0.0,0.0,0.0,0.0,0.0,0.0,0.0,0.0,0.0,0.0,0.0,0.0,0.0,0.0,0.0,-8.6676,-8.6098,-8.5998,-8.5998,-8.5998,-8.5998,-8.5998,-8.5998,-8.5998,0.0,0.0,0.0,0.0,0.0,0.0,-8.5496,-8.5596,-8.5922,-8.5496,-8.5596,-8.5922,-8.5496,-8.5646,-8.5998,0.0,0.0,0.0,0.0,0.0,0.0,0.0,0.0,0.0,0.0,0.0,0.0,0.0,0.0,0.0,0.0,0.0,0.0,0.0,0.0,0.0,0.0,0.0,0.0,0.0,0.0,0.0,0.0,0.0,-5.0032,0.0,0.0,0.0,0.0,0.0,0.0,0.0,0.0,0.0,0.0,0.0,0.0,0.0,0.0,0.0,0.0,-4.2986,-4.2986,0.0,-4.3915,-4.4543,-4.5121,0.0,0.0,0.0,0.0,-4.6728,0.0,0.0,0.0,0.0,0.0,0.0,0.0,0.0,0.0,0.0,0.0,0.0,0.0,0.0,0.0,0.0,0.0,-5.5942,0.0,0.0,0.0,0.0,0.0,0.0,0.0,0.0,0.0,0.0,0.0,0.0,0.0,0.0,0.0,0.0,0.0,0.0,-8.5998,-8.5998,-8.5998,-8.5998,-8.5998,-8.5998,-8.5998,-8.5998,0.0,0.0,0.0,0.0,0.0,-8.5596,-8.5571,-8.5571,-8.5571,-8.5244,-8.532,-8.5571,-8.5244,-8.532,-8.5646,0.0,0.0,0.0,0.0,0.0,0.0,0.0,0.0,0.0,0.0,0.0,0.0,0.0,0.0,0.0,0.0,0.0,0.0,0.0,0.0,0.0,0.0,0.0,0.0,0.0,0.0,0.0,0.0,0.0,0.0,0.0,0.0,0.0,0.0,0.0,0.0,0.0,0.0,0.0,0.0,0.0,0.0,0.0,0.0,0.0,0.0,0.0,0.0,0.0,-4.4242,-4.4945,-4.5472,-4.61,0.0,0.0,0.0,0.0,0.0,0.0,0.0,0.0,0.0,0.0,0.0,0.0,0.0,0.0,0.0,0.0,0.0,0.0,0.0,0.0,0.0,0.0,0.0,0.0,0.0,0.0,0.0,0.0,0.0,0.0,0.0,0.0,0.0,0.0,0.0,0.0,0.0,0.0,0.0,0.0,0.0,-8.5998,-8.5998,-8.5998,-8.5998,-8.5998,-8.5998,-8.5998,-8.5998,0.0,0.0,0.0,0.0,-8.5295,-8.5596,-8.5571,-8.5244,-8.5069,-8.5144,-8.5244,-8.5144,-8.5219,-8.532,0.0,0.0,0.0,0.0,0.0,0.0,0.0,0.0,0.0,0.0,0.0,0.0,0.0,0.0,0.0,0.0,0.0,0.0,0.0,0.0,0.0,0.0,0.0,0.0,0.0,0.0,0.0,0.0,0.0,0.0,-5.3114,-5.6466,-5.6137,0.0,0.0,0.0,0.0,-4.7225,-4.7167,-4.7081,0.0,0.0,0.0,0.0,0.0,0.0,0.0,0.0,0.0,-4.4242,-4.4694,-4.4945,-4.5974,0.0,0.0,0.0,0.0,0.0,0.0,0.0,0.0,0.0,0.0,0.0,0.0,0.0,0.0,0.0,0.0,0.0,0.0,0.0,0.0,0.0,0.0,0.0,0.0,0.0,0.0,0.0,0.0,0.0,0.0,0.0,0.0,0.0,0.0,0.0,0.0,0.0,0.0,0.0,0.0,0.0,0.0,-8.5998,-8.5998,-8.5998,-8.5998,-8.5998,-8.5998,-8.5998,-8.5998,0.0,0.0,0.0,-8.5822,-8.4918,-8.5069,-8.5772,-8.4818,-8.4993,-8.5822,-8.532,-8.547,-8.5897,0.0,0.0,0.0,0.0,0.0,0.0,0.0,0.0,0.0,0.0,0.0,0.0,0.0,0.0,0.0,0.0,0.0,0.0,0.0,0.0,0.0,0.0,0.0,0.0,0.0,0.0,0.0,0.0,0.0,-5.2851,-5.5299,-5.5718,-5.473,-5.2546,0.0,0.0,-4.7309,-4.7309,-4.7519,-4.782,0.0,0.0,0.0,0.0,0.0,0.0,0.0,0.0,0.0,0.0,-4.4844,-4.5221,-4.605,0.0,0.0,0.0,0.0,0.0,-4.7556,0.0,0.0,0.0,0.0,0.0,0.0,0.0,0.0,0.0,0.0,0.0,0.0,0.0,0.0,0.0,0.0,0.0,0.0,0.0,0.0,0.0,0.0,0.0,0.0,0.0,0.0,0.0,0.0,0.0,0.0,0.0,0.0,0.0,0.0,0.0,0.0,-8.5998,-8.5998,-8.5998,-8.5998,-8.5998,-8.5998,-8.5671,-8.5722,0.0,0.0,-8.5295,-8.5496,-8.532,-8.5345,-8.5496,-8.4968,-8.5069,-8.5496,-8.5219,-8.5496,-8.5998,0.0,0.0,0.0,0.0,0.0,0.0,0.0,0.0,0.0,0.0,0.0,0.0,0.0,0.0,0.0,0.0,0.0,0.0,0.0,0.0,0.0,0.0,0.0,0.0,0.0,0.0,0.0,-4.7612,-5.1222,-5.4847,-5.8441,-5.5321,-5.3377,0.0,0.0,0.0,-4.6844,-4.6844,-4.7405,-4.8327,0.0,0.0,0.0,0.0,0.0,0.0,0.0,0.0,0.0,0.0,0.0,0.0,0.0,0.0,0.0,0.0,-4.6502,-4.6627,-4.7129,0.0,0.0,0.0,0.0,0.0,0.0,0.0,0.0,0.0,0.0,0.0,0.0,0.0,0.0,0.0,0.0,0.0,0.0,0.0,0.0,0.0,0.0,0.0,0.0,0.0,0.0,0.0,0.0,0.0,0.0,0.0,0.0,0.0,0.0,0.0,0.0,-8.5847,-8.5847,-8.5998,-8.5998,-8.5922,-8.5822,-8.5496,-8.5496,-8.5772,-8.547,-8.5244,-8.5144,-8.5646,-8.547,-8.4968,-8.4968,-8.5044,-8.5144,-8.5295,-8.5646,-8.5998,0.0,0.0,0.0,0.0,0.0,0.0,0.0,0.0,0.0,0.0,0.0,0.0,0.0,0.0,0.0,0.0,0.0,0.0,0.0,0.0,0.0,0.0,0.0,0.0,0.0,-4.5715,-4.6621,-4.8352,-5.3998,-5.8884,-6.257,-5.8091,-5.506,-5.3065,0.0,0.0,-4.5508,-4.5508,-4.6636,-4.8149,-4.6338,0.0,0.0,0.0,0.0,0.0,0.0,0.0,0.0,0.0,0.0,0.0,0.0,0.0,0.0,0.0,-4.7079,-4.7531,-4.9565,-4.9816,0.0,0.0,0.0,0.0,0.0,0.0,0.0,0.0,0.0,0.0,0.0,0.0,0.0,0.0,0.0,0.0,0.0,0.0,0.0,0.0,0.0,0.0,0.0,0.0,0.0,0.0,0.0,0.0,0.0,0.0,0.0,0.0,0.0,0.0,0.0,-8.547,-8.547,-8.5998,-8.5998,-8.5747,-8.5219,-8.5722,-8.5671,-8.5219,-8.5747,-8.5646,-8.5144,-8.5219,-8.4893,-8.4391,-8.4391,-8.4717,-8.5219,-8.5747,-8.5998,-8.5998,0.0,0.0,0.0,0.0,0.0,0.0,0.0,0.0,0.0,0.0,0.0,0.0,0.0,0.0,0.0,0.0,0.0,0.0,0.0,0.0,0.0,0.0,0.0,-4.1531,-4.4248,-4.6778,-4.9774,-5.3209,-5.7283,-5.848,-5.6753,-5.4005,0.0,0.0,0.0,0.0,0.0,-4.5901,-4.6289,-4.6821,-4.6067,-4.6448,0.0,0.0,0.0,0.0,0.0,0.0,0.0,0.0,0.0,0.0,0.0,0.0,0.0,0.0,-4.7129,-4.7305,-4.8159,-4.8736,0.0,0.0,0.0,0.0,0.0,0.0,0.0,0.0,0.0,0.0,0.0,0.0,0.0,0.0,0.0,0.0,0.0,0.0,0.0,0.0,0.0,0.0,0.0,0.0,0.0,0.0,0.0,0.0,0.0,0.0,0.0,0.0,0.0,0.0,0.0,-8.4893,-8.4893,-8.547,-8.547,-8.532,-8.5144,-8.4667,-8.4491,-8.4642,-8.4843,-8.4818,-8.4667,-8.5395,-8.532,-8.4893,-8.5244,-8.5496,-8.5722,-8.5922,-8.5998,-8.5998,0.0,0.0,0.0,0.0,0.0,0.0,0.0,0.0,0.0,0.0,0.0,0.0,0.0,0.0,0.0,0.0,0.0,0.0,0.0,0.0,0.0,0.0,0.0,-4.0671,-4.3834,-4.7154,-5.0417,-5.3605,-5.7108,-5.7162,-5.3778,0.0,0.0,0.0,0.0,0.0,0.0,0.0,-4.5733,-4.6008,-4.5191,-4.5505,0.0,0.0,0.0,0.0,0.0,0.0,0.0,0.0,0.0,0.0,0.0,0.0,0.0,0.0,0.0,-4.733,-4.7179,0.0,0.0,0.0,0.0,0.0,0.0,0.0,0.0,0.0,0.0,0.0,0.0,0.0,0.0,0.0,0.0,0.0,0.0,0.0,0.0,0.0,0.0,0.0,0.0,0.0,0.0,0.0,0.0,0.0,0.0,0.0,0.0,0.0,0.0,0.0,0.0,-8.4315,-8.4315,-8.4893,-8.4717,-8.4642,-8.4592,-8.3989,-8.3864,-8.4064,-8.4416,-8.4491,-8.4391,-8.532,-8.532,-8.4667,-8.5244,-8.5496,-8.5496,-8.5847,-8.5998,-8.5998,0.0,0.0,0.0,0.0,0.0,0.0,0.0,0.0,0.0,0.0,0.0,0.0,0.0,0.0,0.0,0.0,0.0,0.0,0.0,0.0,0.0,0.0,0.0,-4.1516,-4.5209,-4.6448,-4.7355,-4.7933,-5.2958,-5.5371,-5.528,-5.1976,0.0,0.0,0.0,0.0,0.0,0.0,-4.4908,-4.5805,-4.3274,-4.4121,-4.6888,0.0,0.0,0.0,0.0,0.0,0.0,0.0,0.0,0.0,0.0,0.0,0.0,0.0,-4.7506,-4.7807,0.0,0.0,0.0,0.0,0.0,0.0,0.0,0.0,0.0,0.0,0.0,0.0,0.0,0.0,0.0,0.0,0.0,0.0,0.0,0.0,0.0,0.0,0.0,0.0,0.0,0.0,0.0,0.0,0.0,0.0,0.0,0.0,0.0,0.0,0.0,0.0,0.0,-8.3738,-8.3738,-8.4315,-8.3738,-8.3487,-8.3512,-8.4064,-8.3989,-8.3537,-8.4642,-8.4818,-8.4341,-8.4893,-8.4491,-8.3562,-8.414,-8.4315,-8.4466,-8.5596,-8.5998,-8.5998,0.0,0.0,0.0,0.0,0.0,0.0,0.0,0.0,0.0,0.0,0.0,0.0,0.0,0.0,0.0,0.0,0.0,0.0,0.0,0.0,0.0,0.0,0.0,0.0,0.0,0.0,-4.5999,-4.9665,-5.197,-5.1452,0.0,0.0,0.0,-4.5734,0.0,0.0,0.0,0.0,-4.4382,-4.3868,-4.3042,-4.311,-4.364,0.0,0.0,0.0,0.0,0.0,0.0,0.0,0.0,0.0,0.0,0.0,0.0,-4.723,-4.7782,-4.8309,0.0,0.0,0.0,0.0,0.0,0.0,0.0,0.0,0.0,0.0,0.0,0.0,0.0,0.0,0.0,0.0,0.0,0.0,0.0,0.0,0.0,0.0,0.0,0.0,0.0,0.0,0.0,0.0,0.0,0.0,0.0,0.0,0.0,0.0,0.0,0.0,0.0,0.0,-8.2031,-8.2558,-8.2005,-8.2382,-8.3487,-8.3261,-8.306,-8.296,-8.3663,-8.3663,-8.3236,-8.4165,-8.4567,-8.4717,-8.527,-8.5496,-8.5571,-8.5897,-8.5747,-8.547,0.0,0.0,0.0,0.0,0.0,0.0,0.0,0.0,0.0,0.0,0.0,0.0,0.0,0.0,0.0,0.0,0.0,0.0,0.0,0.0,0.0,0.0,0.0,0.0,0.0,-4.2735,-4.4995,0.0,0.0,0.0,0.0,0.0,0.0,-4.6398,0.0,-4.788,0.0,0.0,-4.517,-4.3664,-4.389,-4.3639,-4.3162,0.0,0.0,0.0,0.0,0.0,0.0,0.0,0.0,0.0,0.0,0.0,0.0,-4.6903,-4.7431,-4.8033,0.0,0.0,0.0,0.0,0.0,0.0,0.0,0.0,0.0,0.0,0.0,0.0,0.0,0.0,0.0,0.0,0.0,0.0,0.0,0.0,0.0,0.0,0.0,0.0,0.0,0.0,0.0,0.0,0.0,0.0,0.0,0.0,0.0,0.0,0.0,0.0,0.0,0.0,0.0,-8.1503,-8.1177,-8.1654,-8.2809,-8.2483,-8.2457,-8.2708,-8.3261,-8.3311,-8.306,-8.3713,-8.4165,-8.4491,-8.4893,-8.527,-8.5646,-8.542,-8.5244,-8.5144,0.0,0.0,0.0,0.0,0.0,0.0,0.0,0.0,0.0,0.0,0.0,0.0,0.0,0.0,0.0,0.0,0.0,0.0,0.0,0.0,0.0,0.0,0.0,0.0,0.0,0.0,0.0,0.0,0.0,0.0,0.0,0.0,-4.9414,-4.9464,0.0,-5.1147,0.0,-4.7832,-4.6351,-4.4518,-4.5095,-4.4995,-4.4543,-4.5121,0.0,0.0,0.0,0.0,0.0,0.0,0.0,0.0,0.0,0.0,0.0,-4.6326,-4.6778,0.0,0.0,0.0,0.0,0.0,0.0,0.0,0.0,0.0,0.0,0.0,0.0,0.0,0.0,0.0,0.0,0.0,0.0,0.0,0.0,0.0,0.0,0.0,0.0,0.0,0.0,0.0,0.0,0.0,0.0,0.0,0.0,0.0,0.0,0.0,0.0,0.0,0.0,0.0,0.0,0.0,-8.085,-8.1152,-8.1654,-8.1754,-8.2106,-8.2633,-8.311,-8.3336,-8.3336,-8.3386,-8.3437,-8.3487,-8.3537,-8.4165,-8.4993,-8.4491,-8.4592,-8.4918,0.0,0.0,0.0,0.0,0.0,0.0,0.0,0.0,0.0,0.0,0.0,0.0,0.0,0.0,0.0,0.0,0.0,0.0,0.0,0.0,0.0,0.0,0.0,0.0,0.0,0.0,0.0,0.0,0.0,0.0,0.0,0.0,0.0,-4.7757,0.0,-4.9414,-4.6753,-4.5296,-4.4166,-4.3388,-4.394,-4.384,-4.3388,-4.394,-4.3664,0.0,0.0,0.0,0.0,0.0,0.0,0.0,0.0,-4.6075,-4.6878,-4.6426,0.0,0.0,0.0,0.0,0.0,0.0,0.0,0.0,0.0,0.0,0.0,0.0,0.0,0.0,0.0,0.0,0.0,0.0,0.0,0.0,0.0,0.0,0.0,0.0,0.0,0.0,0.0,0.0,0.0,0.0,0.0,0.0,0.0,0.0,0.0,0.0,0.0,0.0,-7.9068,-7.952,-7.952,0.0,-7.952,-8.0022,-8.0574,-8.1428,-8.188,-8.2005,-8.2131,-8.2181,-8.2206,-8.2658,-8.311,-8.3537,-8.3989,-8.4315,-8.4491,-8.4391,-8.414,-8.3889,0.0,0.0,0.0,0.0,0.0,0.0,0.0,0.0,0.0,0.0,0.0,0.0,0.0,0.0,0.0,0.0,0.0,0.0,0.0,0.0,0.0,0.0,0.0,0.0,0.0,0.0,0.0,0.0,0.0,0.0,0.0,0.0,0.0,-4.8786,0.0,-5.0067,-4.7405,-4.5999,-4.492,-4.4217,-4.4769,-4.4669,-4.4242,-4.4794,-4.4166,-4.2986,-4.2986,0.0,0.0,0.0,0.0,0.0,0.0,0.0,-4.6677,-4.6401,0.0,0.0,0.0,0.0,0.0,0.0,0.0,0.0,0.0,0.0,0.0,0.0,0.0,0.0,0.0,0.0,0.0,0.0,0.0,0.0,0.0,0.0,0.0,0.0,0.0,0.0,0.0,0.0,0.0,0.0,0.0,0.0,0.0,0.0,0.0,0.0,0.0,0.0,-7.854,-7.8817,-7.8817,-7.854,-7.9118,-7.967,-8.0248,-8.1051,-8.1428,-8.1428,-8.1428,-8.1579,-8.183,-8.2131,-8.2759,-8.3487,-8.3512,-8.3838,-8.424,-8.3713,-8.3512,-8.3487,0.0,0.0,0.0,0.0,0.0,0.0,0.0,0.0,0.0,0.0,0.0,0.0,0.0,0.0,0.0,0.0,0.0,0.0,0.0,0.0,0.0,0.0,0.0,0.0,0.0,0.0,0.0,0.0,0.0,0.0,0.0,0.0,0.0,-5.0343,0.0,0.0,-4.8535,-4.7029,-4.5899,-4.5095,-4.5648,-4.5547,-4.5121,-4.5673,-4.4669,-4.2986,-4.2986,-4.3037,-4.3212,-4.3765,0.0,0.0,0.0,0.0,-4.6301,0.0,0.0,0.0,0.0,0.0,0.0,0.0,0.0,0.0,0.0,0.0,0.0,0.0,0.0,0.0,0.0,0.0,0.0,0.0,0.0,0.0,0.0,0.0,0.0,0.0,0.0,0.0,0.0,0.0,0.0,0.0,0.0,0.0,0.0,0.0,0.0,0.0,0.0,-7.8917,-7.8239,-7.834,-7.839,-7.839,-7.9068,-7.962,-8.0097,-8.0549,-8.08,-8.0901,-8.0901,-8.1127,-8.1528,-8.1629,-8.2282,-8.316,-8.2708,-8.3085,-8.3763,-8.2859,-8.2809,-8.316,0.0,0.0,0.0,0.0,0.0,0.0,0.0,0.0,0.0,0.0,0.0,0.0,0.0,0.0,0.0,0.0,0.0,0.0,0.0,0.0,0.0,0.0,0.0,0.0,0.0,0.0,0.0,0.0,0.0,0.0,0.0,0.0,0.0,0.0,0.0,0.0,0.0,-4.4819,-4.3438,-4.3363,-4.3915,-4.3815,-4.3363,-4.394,-4.3664,-4.2986,-4.2986,-4.3288,-4.379,-4.4317,-4.4895,0.0,0.0,0.0,0.0,0.0,0.0,0.0,0.0,0.0,0.0,0.0,0.0,0.0,0.0,0.0,0.0,0.0,0.0,0.0,0.0,0.0,0.0,0.0,0.0,0.0,0.0,0.0,0.0,0.0,0.0,0.0,0.0,0.0,0.0,0.0,0.0,0.0,0.0,0.0,-7.9243,-7.8666,-7.8641,0.0,-7.7109,-7.7561,-7.7812,-7.7812,-7.8892,-7.9419,-7.9495,-7.957,-7.9871,-8.0323,-8.0323,-8.0373,-8.0474,-8.0951,-8.1478,-8.2031,-8.1955,-8.2005,-8.2131,-8.198,-8.198,-8.2106,0.0,0.0,0.0,0.0,0.0,0.0,0.0,0.0,0.0,0.0,0.0,0.0,0.0,0.0,0.0,0.0,0.0,0.0,0.0,0.0,0.0,0.0,0.0,0.0,0.0,0.0,0.0,0.0,0.0,0.0,0.0,-4.5723,-4.7757,0.0,0.0,0.0,0.0,0.0,0.0,-4.3463,-4.3714,-4.384,-4.389,-4.3815,-4.3639,-4.3388,-4.3087,-4.3338,-4.389,-4.4443,-4.502,-4.5573,-4.6125,0.0,0.0,0.0,0.0,0.0,0.0,0.0,0.0,0.0,0.0,0.0,0.0,0.0,0.0,0.0,0.0,0.0,0.0,0.0,0.0,0.0,0.0,0.0,0.0,0.0,0.0,0.0,0.0,0.0,0.0,0.0,0.0,0.0,0.0,0.0,0.0,-7.8867,-7.8641,-7.8088,-7.7762,0.0,-7.6883,-7.7109,-7.7561,-7.8164,-7.8365,-7.8766,-7.9369,-7.9043,-7.9218,-7.9746,-7.9746,-7.9921,-8.0223,-8.0474,-8.1051,-8.1779,-8.1478,-8.1553,-8.1779,-8.1478,-8.1378,-8.1453,0.0,0.0,0.0,0.0,0.0,0.0,0.0,0.0,0.0,0.0,0.0,0.0,0.0,0.0,0.0,0.0,0.0,0.0,0.0,0.0,0.0,0.0,0.0,0.0,0.0,0.0,0.0,0.0,0.0,0.0,-4.5271,-4.5999,-4.846,0.0,-4.954,0.0,0.0,0.0,0.0,0.0,0.0,-4.3915,-4.4392,-4.4116,-4.4016,-4.3966,-4.3714,-4.3865,-4.4292,-4.4694,-4.5221,-4.5773,-4.6175,-4.6301,0.0,0.0,0.0,0.0,0.0,0.0,0.0,0.0,0.0,0.0,0.0,0.0,0.0,0.0,0.0,0.0,0.0,0.0,0.0,0.0,0.0,0.0,0.0,0.0,0.0,0.0,0.0,0.0,0.0,0.0,0.0,0.0,0.0,0.0,-7.7762,-7.8088,-7.8063,-7.7511,-7.7084,-7.6808,-7.6682,-7.6808,-7.7285,-7.8114,-7.7837,-7.8214,-7.9143,-7.8566,-7.8716,-7.9394,-7.9394,-7.962,-8.0022,-8.0147,-8.0675,-8.1353,-8.0976,-8.1051,-8.1353,-8.0976,-8.0901,-8.1102,0.0,0.0,0.0,0.0,0.0,0.0,0.0,0.0,0.0,0.0,0.0,0.0,0.0,0.0,0.0,0.0,0.0,0.0,0.0,0.0,0.0,0.0,0.0,0.0,0.0,0.0,0.0,0.0,0.0,0.0,-4.7029,-4.8109,-5.0946,-5.5013,-5.1197,-4.9515,-4.9314,0.0,0.0,0.0,0.0,0.0,0.0,0.0,0.0,0.0,0.0,0.0,0.0,-4.5422,-4.5799,-4.6276,-4.6301,-4.6301,-4.6301,0.0,0.0,0.0,0.0,0.0,0.0,0.0,0.0,0.0,0.0,0.0,0.0,0.0,0.0,0.0,0.0,0.0,0.0,0.0,0.0,0.0,0.0,0.0,0.0,0.0,0.0,0.0,0.0,0.0,0.0,0.0,0.0,0.0,-7.7737,-7.7737,-7.7486,-7.6933,-7.6883,-7.6632,-7.6105,-7.6607,-7.6908,-7.6959,-7.7461,-7.8013,-7.854,-7.7988,-7.834,-7.9394,-7.9394,-7.9394,-7.9469,-7.9997,-8.0248,-8.0298,-8.0273,-8.0273,-8.0298,-8.0273,-8.0574,-8.1102,0.0,0.0,0.0,0.0,0.0,0.0,0.0,0.0,0.0,0.0,0.0,0.0,0.0,0.0,0.0,0.0,0.0,0.0,0.0,0.0,0.0,0.0,0.0,0.0,0.0,0.0,0.0,0.0,0.0,-4.1706,-4.502,-4.6502,-4.8611,-5.1122,-5.082,-5.067,-5.0444,-4.6954,0.0,0.0,0.0,0.0,0.0,0.0,0.0,0.0,0.0,0.0,0.0,0.0,0.0,-4.6778,-4.6426,-4.6301,-4.6301,-4.6301,-4.6451,0.0,0.0,0.0,0.0,0.0,0.0,0.0,0.0,0.0,0.0,0.0,0.0,0.0,0.0,0.0,0.0,0.0,0.0,0.0,0.0,0.0,0.0,0.0,0.0,0.0,0.0,0.0,0.0,0.0,0.0,0.0,-7.6682,-7.6984,-7.6908,-7.6356,-7.6356,-7.6256,-7.6055,-7.6256,-7.6532,-7.6883,-7.6733,-7.7109,-7.7988,-7.7411,-7.7787,-7.8842,-7.8842,-7.9043,-7.9394,-7.9595,-7.9896,-8.0173,-7.9821,-7.9896,-8.0173,-7.9821,-8.0022,-8.0574,0.0,0.0,0.0,0.0,0.0,0.0,0.0,0.0,0.0,0.0,0.0,0.0,0.0,0.0,0.0,0.0,0.0,0.0,0.0,0.0,0.0,0.0,0.0,0.0,0.0,0.0,0.0,0.0,0.0,0.0,0.0,0.0,-4.7481,-4.964,-4.9992,0.0,0.0,0.0,0.0,-4.7305,0.0,0.0,-4.6853,0.0,0.0,0.0,0.0,0.0,0.0,0.0,0.0,0.0,-4.6753,-4.6451,-4.6301,-4.6301,-4.6301,-4.6702,0.0,0.0,0.0,0.0,0.0,0.0,0.0,0.0,0.0,0.0,0.0,0.0,0.0,0.0,0.0,0.0,0.0,0.0,0.0,0.0,0.0,0.0,0.0,0.0,0.0,0.0,0.0,0.0,0.0,0.0,-7.6105,-7.6406,-7.6431,-7.6055,-7.6055,-7.6055,-7.6055,-7.6055,-7.623,-7.6607,-7.623,-7.6532,-7.7411,-7.6858,-7.731,-7.8515,-7.8314,-7.8691,-7.9394,-7.9394,-7.9595,-7.9896,-7.952,-7.962,-7.9921,-7.9721,-8.0022,-8.0574,0.0,0.0,0.0,0.0,0.0,0.0,0.0,0.0,0.0,0.0,0.0,0.0,0.0,0.0,0.0,0.0,0.0,0.0,0.0,0.0,0.0,0.0,0.0,0.0,0.0,0.0,0.0,0.0,0.0,0.0,0.0,0.0,-4.7958,0.0,-4.8862,-4.9715,-5.2678,0.0,0.0,-5.1046,0.0,-4.7506,-4.8284,0.0,0.0,0.0,-5.1548,-5.0745,0.0,0.0,0.0,0.0,0.0,-4.6803,-4.6351,-4.6351,-4.6351,-4.6577,0.0,0.0,0.0,0.0,0.0,0.0,0.0,0.0,0.0,0.0,0.0,0.0,0.0,0.0,0.0,0.0,0.0,0.0,0.0,0.0,0.0,0.0,0.0,0.0,0.0,0.0,0.0,0.0,0.0,-7.6632,-7.608,-7.6055,-7.6055,-7.6055,-7.6055,-7.6055,-7.6055,-7.6055,-7.6055,-7.6055,-7.6055,-7.6331,-7.6833,-7.6306,-7.6959,-7.8465,-7.7938,-7.834,-7.9394,-7.9394,-7.9394,-7.9394,-7.9394,-7.9394,-7.9444,-7.9997,-8.0549,-8.1102,0.0,0.0,0.0,0.0,0.0,0.0,0.0,0.0,0.0,0.0,0.0,0.0,0.0,0.0,0.0,0.0,0.0,0.0,0.0,0.0,0.0,0.0,0.0,0.0,0.0,0.0,0.0,0.0,0.0,0.0,0.0,0.0,0.0,0.0,-4.7305,-4.8209,-4.8661,-4.7556,0.0,0.0,0.0,-4.9238,0.0,0.0,0.0,0.0,0.0,-5.2553,0.0,0.0,-5.1574,-5.0645,0.0,0.0,0.0,-4.7456,0.0,0.0,-4.7832,0.0,0.0,0.0,0.0,0.0,0.0,0.0,0.0,0.0,0.0,0.0,0.0,0.0,0.0,0.0,0.0,0.0,0.0,0.0,0.0,0.0,0.0,0.0,0.0,0.0,0.0,0.0,0.0,-7.623,-7.6055,-7.6055,-7.6055,-7.6055,-7.6055,-7.6055,-7.6055,-7.6055,-7.6055,-7.6055,-7.6055,-7.613,-7.6281,-7.613,-7.6733,-7.7913,-7.7762,-7.834,-7.9394,-7.9394,-7.9394,-7.9394,-7.9394,-7.9394,-7.9394,-7.957,-8.0223,-8.1051,0.0,0.0,0.0,0.0,0.0,0.0,0.0,0.0,0.0,0.0,0.0,0.0,0.0,0.0,0.0,0.0,0.0,0.0,0.0,0.0,0.0,0.0,0.0,0.0,0.0,0.0,0.0,0.0,0.0,0.0,0.0,0.0,0.0,0.0,0.0,0.0,0.0,0.0,0.0,0.0,-5.0293,0.0,0.0,-5.3607,-5.426,0.0,0.0,0.0,-5.5064,-5.4838,-5.3582,0.0,0.0,0.0,0.0,0.0,0.0,0.0,0.0,0.0,0.0,0.0,0.0,0.0,0.0,0.0,0.0,0.0,0.0,0.0,0.0,0.0,0.0,0.0,0.0,0.0,0.0,0.0,0.0,0.0,0.0,0.0,0.0,0.0,0.0,0.0,-7.6055,-7.6055,-7.6055,-7.6055,-7.6055,-7.6055,-7.6055,-7.6055,-7.6055,-7.6055,-7.6055,-7.6055,-7.6055,-7.618,-7.6406,-7.6406,-7.7009,-7.8038,-7.7812,-7.834,-7.9369,-7.9118,-7.9168,-7.9394,-7.9394,-7.9394,-7.9444,-7.9896,-8.0474,-8.1102,0.0,0.0,0.0,0.0,0.0,0.0,0.0,0.0,0.0,0.0,0.0,0.0,0.0,0.0,0.0,0.0,0.0,0.0,0.0,0.0,0.0,0.0,0.0,0.0,0.0,0.0,0.0,0.0,0.0,0.0,0.0,0.0,0.0,0.0,0.0,0.0,0.0,0.0,0.0,-4.8887,-5.2201,-5.3733,0.0,0.0,-5.883,0.0,-5.9232,-5.8679,-5.7399,-5.6771,-5.4787,0.0,0.0,0.0,0.0,0.0,-4.8284,0.0,0.0,0.0,0.0,0.0,0.0,0.0,-5.4084,-5.3808,-5.4009,0.0,0.0,0.0,0.0,0.0,0.0,0.0,0.0,0.0,0.0,0.0,0.0,0.0,0.0,0.0,0.0,0.0,0.0,-7.5879,-7.5929,-7.5979,-7.6055,-7.6055,-7.6055,-7.6055,-7.6055,-7.6055,-7.6055,-7.6055,-7.6055,-7.6055,-7.6055,-7.6331,-7.6883,-7.6883,-7.7486,-7.849,-7.7938,-7.8314,-7.9243,-7.8741,-7.8867,-7.9394,-7.9394,-7.9394,-7.9495,-8.0499,-8.0926,-8.1177,0.0,0.0,0.0,0.0,0.0,0.0,0.0,0.0,0.0,0.0,0.0,0.0,0.0,0.0,0.0,0.0,0.0,0.0,0.0,0.0,0.0,0.0,0.0,0.0,0.0,0.0,0.0,0.0,0.0,0.0,0.0,0.0,0.0,0.0,0.0,0.0,0.0,0.0,0.0,-4.7732,-5.1071,0.0,0.0,-5.775,-5.8905,-5.9885,-6.0085,-6.0261,-6.0211,0.0,-5.7323,-5.5189,0.0,0.0,0.0,0.0,0.0,0.0,0.0,0.0,0.0,0.0,0.0,0.0,-5.1523,-5.185,-5.2879,0.0,0.0,0.0,0.0,0.0,0.0,0.0,0.0,0.0,0.0,0.0,0.0,0.0,0.0,0.0,0.0,0.0,-7.5226,-7.4774,-7.5151,-7.5603,-7.603,-7.6055,-7.6055,-7.6055,-7.6055,-7.6055,-7.6055,-7.6055,-7.6055,-7.6055,-7.6055,-7.6331,-7.6883,-7.6883,-7.7486,-7.849,-7.7938,-7.8063,-7.8691,-7.8566,-7.8867,-7.9394,-7.9394,-7.9394,-7.9419,-7.962,-8.0273,-8.1076,0.0,0.0,0.0,0.0,0.0,0.0,0.0,0.0,0.0,0.0,0.0,0.0,0.0,0.0,0.0,0.0,0.0,0.0,0.0,0.0,0.0,0.0,0.0,0.0,0.0,0.0,0.0,0.0,0.0,0.0,0.0,0.0,0.0,0.0,0.0,0.0,0.0,0.0,-4.6125,-4.7556,-5.2251,0.0,-5.7323,-5.9834,-6.1291,-6.1994,-6.1994,-6.2195,-6.2094,-5.9859,-5.8554,0.0,0.0,-5.3808,-5.2854,0.0,-5.2101,-5.1624,0.0,0.0,0.0,-5.1624,0.0,0.0,0.0,-5.1272,-5.1724,0.0,0.0,0.0,0.0,0.0,0.0,0.0,0.0,0.0,0.0,0.0,0.0,0.0,0.0,0.0,0.0,0.0,-7.4724,-7.4448,-7.4925,-7.5352,-7.5628,-7.5904,-7.6055,-7.6055,-7.6055,-7.6055,-7.6055,-7.6055,-7.6055,-7.6055,-7.6055,-7.6331,-7.6883,-7.6883,-7.7486,-7.849,-7.7938,-7.8189,-7.8942,-7.8641,-7.8867,-7.9394,-7.9394,-7.9394,-7.9419,-7.9695,-8.0323,-8.1026,0.0,0.0,0.0,0.0,0.0,0.0,0.0,0.0,0.0,0.0,0.0,0.0,0.0,0.0,0.0,0.0,0.0,0.0,0.0,0.0,0.0,0.0,0.0,-4.0124,0.0,0.0,0.0,0.0,0.0,0.0,0.0,0.0,0.0,0.0,0.0,0.0,0.0,0.0,0.0,0.0,0.0,0.0,-5.6721,-6.119,-6.2948,-6.3124,-6.3651,-6.3827,-6.34,-6.0487,0.0,-5.9307,-5.6319,-5.4888,0.0,0.0,0.0,0.0,0.0,0.0,0.0,0.0,0.0,-5.2352,0.0,0.0,0.0,-5.2528,0.0,0.0,0.0,0.0,0.0,0.0,0.0,0.0,0.0,0.0,0.0,0.0,0.0,0.0,0.0,0.0,-7.3694,-7.4222,-7.4372,-7.4623,-7.505,-7.5603,-7.5904,-7.5904,-7.6004,-7.6055,-7.6055,-7.6055,-7.6055,-7.6055,-7.6055,-7.6331,-7.6883,-7.6883,-7.7411,-7.834,-7.7787,-7.8063,-7.8867,-7.8515,-7.8641,-7.9093,-7.9294,-7.9394,-7.9444,-7.9896,-8.0398,-8.0901,0.0,0.0,0.0,0.0,0.0,0.0,0.0,0.0,0.0,0.0,0.0,0.0,0.0,0.0,0.0,0.0,0.0,0.0,-4.5598,0.0,0.0,0.0,0.0,0.0,-4.1229,0.0,0.0,0.0,0.0,0.0,0.0,0.0,0.0,0.0,-4.3463,0.0,0.0,0.0,-4.7631,0.0,-5.4009,-5.4637,0.0,-5.8303,-6.0286,-6.1014,-6.35,-6.4379,-6.4178,0.0,-6.1743,-6.0663,0.0,-5.7524,0.0,0.0,0.0,0.0,0.0,0.0,0.0,0.0,-5.4963,0.0,0.0,0.0,-5.3105,-5.2352,0.0,0.0,0.0,0.0,0.0,0.0,0.0,0.0,0.0,0.0,0.0,0.0,0.0,0.0,0.0,0.0,0.0,-7.3494,-7.2364,-7.2414,-7.4397,-7.5025,-7.5327,-7.5327,-7.5804,-7.6055,-7.6055,-7.6055,-7.6055,-7.6055,-7.6055,-7.6331,-7.6883,-7.6883,-7.721,-7.7762,-7.721,-7.7034,-7.7185,-7.7611,-7.7837,-7.7988,-7.8992,-7.9394,-7.9394,-7.9469,-7.9821,-8.0373,0.0,0.0,0.0,0.0,0.0,0.0,0.0,0.0,0.0,0.0,0.0,0.0,0.0,0.0,0.0,0.0,0.0,0.0,0.0,0.0,0.0,0.0,0.0,0.0,0.0,0.0,0.0,0.0,-4.2635,0.0,0.0,0.0,0.0,0.0,-4.3689,0.0,-4.61,0.0,0.0,0.0,0.0,0.0,0.0,-5.9508,-6.227,-6.2923,-6.4404,-6.4931,-6.4731,0.0,-6.2521,0.0,0.0,0.0,0.0,0.0,0.0,0.0,0.0,0.0,0.0,0.0,0.0,0.0,0.0,0.0,-5.2729,0.0,0.0,0.0,0.0,0.0,0.0,0.0,0.0,0.0,0.0,0.0,0.0,0.0,0.0,0.0,0.0,0.0,0.0,0.0,0.0,-7.1158,-7.2414,-7.3619,-7.4423,-7.4749,-7.5301,-7.5578,-7.5578,-7.5904,-7.6055,-7.6055,-7.6055,-7.618,-7.6406,-7.6406,-7.6707,-7.721,-7.6984,-7.7059,-7.736,-7.7611,-7.7888,-7.8214,-7.8691,-7.9093,-7.9394,-7.9394,-7.9746,-8.0198,0.0,0.0,0.0,0.0,0.0,0.0,0.0,0.0,0.0,0.0,0.0,0.0,-5.3256,-5.1368,0.0,0.0,0.0,-4.8337,0.0,0.0,-4.4995,0.0,0.0,0.0,0.0,0.0,0.0,0.0,0.0,0.0,0.0,0.0,0.0,0.0,0.0,-4.5773,-4.7631,0.0,0.0,-5.1021,-5.3507,-5.4737,-5.5616,-6.0788,-6.3375,-6.4354,-6.5032,-6.5283,-6.5082,-6.3726,-6.3274,0.0,-6.1793,0.0,0.0,0.0,0.0,0.0,-5.534,0.0,0.0,0.0,0.0,0.0,0.0,0.0,0.0,0.0,0.0,0.0,0.0,0.0,0.0,0.0,0.0,0.0,0.0,0.0,0.0,0.0,0.0,0.0,0.0,0.0,0.0,0.0,-6.7894,0.0,-7.033,-7.1711,-7.2916,-7.392,-7.4649,-7.5075,-7.5251,-7.5628,-7.5904,-7.6055,-7.6055,-7.6055,-7.6055,-7.6055,-7.6281,-7.6657,-7.6657,-7.6883,-7.726,-7.7411,-7.7712,-7.8114,-7.8415,-7.8792,-7.9168,-7.9319,-7.9746,-8.0173,0.0,-3.1507,0.0,0.0,0.0,0.0,0.0,0.0,0.0,0.0,0.0,0.0,0.0,0.0,0.0,0.0,0.0,-4.9039,-5.0005,0.0,-4.6577,0.0,0.0,0.0,0.0,0.0,0.0,0.0,0.0,0.0,0.0,0.0,0.0,0.0,0.0,-4.7657,-4.8887,-5.1599,0.0,-5.6118,-5.7851,-6.0111,-6.2345,0.0,-6.1793,-6.3852,-6.4906,0.0,0.0,-6.4605,-6.4404,0.0,0.0,0.0,0.0,0.0,0.0,0.0,0.0,0.0,0.0,0.0,0.0,0.0,0.0,0.0,-5.5792,0.0,0.0,0.0,0.0,0.0,0.0,0.0,0.0,0.0,0.0,0.0,0.0,0.0,0.0,0.0,0.0,0.0,0.0,0.0,-6.4254,0.0,-6.8497,-6.925,-7.0556,-7.2715,-7.387,-7.4699,-7.5226,-7.5251,-7.5527,-7.6055,-7.6055,-7.6055,-7.6055,-7.6055,-7.6055,-7.608,-7.608,-7.608,-7.6155,-7.6682,-7.6908,-7.7034,-7.8114,-7.854,-7.8616,-7.9168,-7.9746,-8.0273,0.0,0.0,0.0,0.0,0.0,0.0,0.0,-4.1065,0.0,0.0,0.0,0.0,0.0,0.0,-5.2524,0.0,0.0,-5.1424,-5.0117,-4.8132,0.0,0.0,0.0,-4.3378,0.0,0.0,0.0,0.0,0.0,0.0,0.0,0.0,0.0,0.0,0.0,-4.7807,0.0,0.0,0.0,0.0,0.0,-6.0588,-6.3299,0.0,0.0,-6.3776,-6.4479,-6.4982,0.0,-6.5484,-6.5082,-6.4379,-6.3802,-6.2621,-6.1316,-6.0563,-6.0085,0.0,0.0,0.0,-6.0437,-5.7499,0.0,0.0,0.0,0.0,0.0,0.0,0.0,0.0,0.0,0.0,0.0,0.0,0.0,0.0,0.0,0.0,0.0,0.0,0.0,0.0,0.0,0.0,0.0,-6.124,-6.119,-6.2395,0.0,-6.6915,-6.8823,-7.1033,-7.2539,-7.3745,-7.4699,-7.505,-7.5502,-7.6055,-7.6055,-7.6055,-7.6055,-7.6055,-7.6055,-7.6055,-7.6055,-7.6055,-7.608,-7.6256,-7.6758,-7.7461,-7.7837,-7.844,-7.9118,-7.9319,-7.9495,-7.9796,-2.9414,0.0,0.0,0.0,0.0,0.0,0.0,0.0,0.0,0.0,-4.8057,0.0,-5.4317,0.0,-5.3251,0.0,-5.4056,-5.2563,-4.9502,-4.9285,0.0,-4.6404,-4.5014,0.0,0.0,0.0,0.0,0.0,0.0,-4.5121,0.0,0.0,0.0,0.0,0.0,0.0,0.0,0.0,-5.5039,0.0,0.0,-6.1441,0.0,0.0,-6.3199,0.0,0.0,-6.4429,-6.4831,-6.5584,-6.5358,-6.4756,-6.4756,-6.3776,-6.2496,-6.1718,-6.124,-6.0889,-6.0437,-6.114,0.0,0.0,-5.9031,0.0,-5.5817,0.0,0.0,0.0,0.0,0.0,0.0,0.0,0.0,0.0,0.0,0.0,0.0,0.0,0.0,0.0,0.0,0.0,0.0,0.0,-5.8654,-5.8152,-5.8227,-5.9408,0.0,0.0,-6.6488,-6.93,-7.1184,-7.2791,-7.4121,-7.4674,-7.5226,-7.5753,-7.5954,-7.6055,-7.6055,-7.6055,-7.6055,-7.6055,-7.6055,-7.6055,-7.6055,-7.6055,-7.6582,-7.7436,-7.7637,-7.8264,-7.9093,-7.9319,-7.9645,-8.0097,0.0,0.0,0.0,0.0,-3.2519,0.0,0.0,0.0,-4.3441,0.0,-4.758,-5.0015,-5.4763,-5.2395,-5.1658,-5.4672,-5.434,0.0,-4.8893,-5.1229,0.0,0.0,-4.7685,-4.7247,-4.5046,0.0,0.0,0.0,0.0,0.0,0.0,0.0,0.0,0.0,0.0,0.0,-5.0563,-5.5089,-5.7675,-5.9031,-6.1743,-6.2847,-6.2873,-6.2847,0.0,-6.3701,-6.3701,-6.3701,-6.3852,-6.4906,-6.5258,-6.5283,-6.5258,-6.5258,-6.4881,-6.2747,-6.2898,-6.3274,-6.114,-6.1366,-6.1943,-6.0814,0.0,0.0,0.0,0.0,-6.0989,0.0,0.0,0.0,0.0,0.0,0.0,0.0,0.0,0.0,0.0,0.0,0.0,0.0,0.0,0.0,0.0,-5.6746,-5.6369,-5.6821,-5.5415,-5.5942,0.0,0.0,0.0,-6.7518,-6.9828,-7.1811,-7.3544,-7.4096,-7.4674,-7.5251,-7.5753,-7.603,-7.6055,-7.6055,-7.6055,-7.6055,-7.6055,-7.6055,-7.6055,-7.608,-7.6431,-7.6984,-7.7536,-7.8088,-7.8641,-7.9193,-8.0097,-8.1102,-3.0215,-3.082,-3.1426,0.0,0.0,-3.2615,0.0,0.0,0.0,0.0,-4.7474,-5.0345,-5.3609,-5.4045,-5.4149,-5.464,-5.4722,0.0,0.0,0.0,0.0,-4.8808,-4.748,-4.6841,-4.6867,-4.5895,0.0,-4.513,0.0,0.0,-4.3203,0.0,0.0,0.0,0.0,0.0,-4.884,-5.3669,-5.7399,-6.0085,-6.2044,-6.3099,0.0,0.0,-6.3199,-6.3701,-6.3701,-6.3701,-6.3802,-6.4454,-6.4957,-6.5208,-6.4806,-6.4957,-6.5107,-6.4128,-6.4053,-6.4228,-6.4053,-6.453,-6.4781,-6.3676,-6.3099,-6.2395,0.0,0.0,0.0,0.0,0.0,0.0,0.0,0.0,0.0,0.0,0.0,0.0,0.0,0.0,0.0,0.0,0.0,0.0,-5.416,-5.5064,-5.5315,-5.4612,-5.416,-5.4838,0.0,0.0,0.0,-6.5233,-6.8271,-7.0857,-7.2941,-7.3519,-7.4272,-7.5251,-7.5377,-7.5653,-7.6055,-7.6055,-7.6055,-7.6055,-7.6055,-7.6055,-7.608,-7.6507,-7.6984,-7.7536,-7.8088,-7.8666,-7.9193,-7.9344,-8.0097,-8.1051,-3.0527,0.0,0.0,0.0,0.0,0.0,-3.6172,0.0,0.0,-4.3867,-4.7558,0.0,-5.1816,-5.4141,-5.541,-5.5,-5.4961,0.0,0.0,0.0,0.0,-4.9883,-4.8828,-4.8215,-4.7955,-4.6701,0.0,-4.5062,0.0,0.0,-4.2327,0.0,0.0,0.0,0.0,-4.6645,0.0,-5.3626,-5.7876,-6.0788,-6.1994,0.0,0.0,-6.2948,-6.3023,-6.3324,-6.3324,-6.3324,-6.34,-6.3952,-6.4479,-6.4931,-6.4856,-6.5208,-6.5534,-6.4982,-6.4831,-6.4906,-6.5208,-6.5509,-6.571,-6.5584,-6.5358,-6.4756,-6.3299,-6.3701,-6.4053,0.0,0.0,0.0,0.0,0.0,0.0,0.0,0.0,0.0,0.0,0.0,0.0,0.0,0.0,0.0,-5.2929,-5.3557,-5.3783,-5.3381,-5.313,-5.3632,0.0,0.0,0.0,-6.3299,-6.7091,-6.9903,-7.1636,-7.3192,-7.4021,-7.4146,-7.49,-7.5402,-7.5703,-7.5954,-7.6055,-7.6055,-7.6055,-7.6055,-7.6105,-7.6657,-7.721,-7.7787,-7.8591,-7.9093,-7.9394,-7.9394,-8.0097,-8.1026,0.0,0.0,0.0,0.0,0.0,0.0,0.0,-4.0215,0.0,-4.4609,0.0,-5.0781,-5.084,-5.3945,-5.5879,0.0,0.0,-5.4648,-5.2715,-5.3594,-5.3144,-5.0781,-5.0918,-5.0293,-4.8652,-4.8149,0.0,0.0,0.0,0.0,0.0,0.0,0.0,0.0,0.0,0.0,0.0,-5.3495,-5.7566,0.0,-6.0763,-6.157,-6.2306,-6.1952,-6.2306,-6.2822,-6.247,-6.2495,-6.2898,-6.34,-6.3927,-6.4454,-6.5007,-6.5559,-6.5936,-6.5509,-6.5459,-6.5484,-6.5409,-6.5509,-6.586,-6.684,-6.7091,-6.684,-6.5936,-6.5735,-6.5559,-6.4931,-6.4028,0.0,0.0,0.0,0.0,0.0,0.0,0.0,0.0,0.0,0.0,0.0,0.0,0.0,0.0,-5.2503,-5.2402,-5.2879,-5.2477,-5.2628,0.0,0.0,0.0,0.0,-6.5785,0.0,-7.0255,0.0,-7.3569,-7.2966,-7.4347,-7.5101,-7.5251,-7.5804,-7.6055,-7.6055,-7.6055,-7.6055,-7.6105,-7.6733,-7.736,-7.8013,-7.8992,-7.9394,-7.9394,-7.9394,-8.0097,-8.1026,0.0,0.0,0.0,0.0,0.0,0.0,0.0,-4.4922,-4.6269,-4.7871,-5.1465,0.0,-5.4375,-5.5644,-5.6445,-5.6367,-5.6367,0.0,0.0,0.0,0.0,-5.3398,-5.2715,-5.1914,-5.0898,-4.8764,-4.6576,0.0,-4.1808,-3.983,0.0,0.0,0.0,0.0,0.0,0.0,-4.7349,-4.9847,0.0,-5.4026,-5.5334,-5.7448,-5.9667,-5.7778,-5.9523,-6.247,-6.0553,-6.1242,-6.2847,-6.2948,-6.335,-6.3927,-6.4454,-6.4982,-6.5509,-6.586,-6.6312,-6.6564,-6.6112,-6.6639,-6.7417,-6.7618,-6.7643,-6.7719,-6.7995,-6.8045,-6.7744,-6.6739,-6.6388,-6.5584,-6.3375,0.0,0.0,0.0,0.0,0.0,0.0,0.0,0.0,0.0,0.0,0.0,0.0,0.0,0.0,0.0,-5.2829,0.0,0.0,0.0,0.0,0.0,0.0,0.0,0.0,0.0,0.0,-7.4121,-7.3971,-7.4347,-7.5251,-7.5804,-7.6055,-7.6055,-7.6055,-7.6055,-7.613,-7.7134,-7.8164,-7.9118,-7.9319,-7.9394,-7.9394,-7.9394,-8.0097,-8.1026,0.0,0.0,0.0,0.0,0.0,0.0,0.0,-4.8867,0.0,-4.9609,-5.1562,-5.3164,-5.3594,-5.539,-5.6582,-5.6582,-5.6582,-5.6504,-5.6289,-5.5879,-5.5351,-5.4726,-5.3867,0.0,-5.1797,-4.9453,-4.7187,-4.5058,-4.1816,-3.9453,0.0,0.0,0.0,0.0,0.0,-4.3327,0.0,0.0,0.0,-5.2479,-5.3963,-5.5507,-5.7043,-5.6287,-5.7263,-5.8992,-5.7949,-5.829,-5.9499,-6.1952,-6.2324,-6.2174,-6.3944,-6.4856,-6.5409,-6.5936,-6.6312,-6.6463,-6.6187,-6.6739,-6.7442,-6.7719,-6.802,-6.8296,-6.8572,-6.8396,-6.797,-6.7141,-6.6739,-6.5685,-6.2923,-5.9709,0.0,0.0,0.0,0.0,0.0,0.0,0.0,0.0,0.0,0.0,0.0,0.0,0.0,0.0,0.0,0.0,0.0,0.0,0.0,0.0,0.0,0.0,0.0,0.0,0.0,-7.269,-7.2991,-7.372,-7.4824,-7.5377,-7.5778,-7.6055,-7.6055,-7.6055,-7.613,-7.726,-7.8365,-7.9394,-7.9394,-7.9394,-7.9394,-7.9394,-8.0097,-8.1026,0.0,-3.834,0.0,0.0,-4.3867,0.0,0.0,-5.1621,-5.2969,-5.1465,-5.1914,-5.2558,-5.2988,-5.5156,-5.6582,-5.6582,-5.6582,-5.6582,-5.6582,-5.6172,-5.5781,-5.5449,-5.4629,-5.3594,-5.2383,-5.0332,-4.8047,0.0,-4.2441,0.0,0.0,0.0,0.0,0.0,0.0,0.0,0.0,0.0,-4.8973,-5.1016,-5.2206,-5.3466,-5.445,-5.4347,-5.4917,-5.5879,-5.5355,-5.518,-5.5682,-5.9859,-6.0676,-6.0555,-6.3409,-6.468,-6.5233,-6.5785,-6.6187,-6.6438,-6.6338,-6.6789,-6.7417,-6.7869,-6.8296,-6.8648,-6.8773,-6.8447,-6.7995,-6.7442,-6.6865,-6.5634,-6.2873,-6.0588,0.0,0.0,0.0,0.0,0.0,0.0,0.0,0.0,0.0,0.0,0.0,0.0,0.0,0.0,0.0,-5.3231,-5.3507,-5.4084,0.0,0.0,0.0,-6.3902,-6.6589,0.0,-7.0631,0.0,-7.2188,-7.3217,-7.4423,-7.4975,-7.5527,-7.6055,-7.6055,-7.618,-7.6482,-7.7335,-7.8365,-7.9394,-7.9394,-7.9394,-7.9394,-7.9394,-8.0022,-8.0876,0.0,0.0,0.0,0.0,0.0,0.0,0.0,-5.2285,-5.418,-5.4746,-5.5234,-5.5683,-5.6113,-5.6426,-5.6582,-5.6582,-5.6582,-5.6582,-5.6582,-5.6172,-5.5918,-5.5879,-5.5058,-5.418,-5.3262,-5.1523,-4.8808,0.0,0.0,-4.0996,0.0,0.0,0.0,0.0,0.0,0.0,0.0,-4.2566,-4.4112,-4.5817,-4.6729,-4.9013,-5.185,-4.9633,-5.1831,-5.553,-5.3437,-5.2724,-5.3081,-5.5705,-5.7801,-5.9835,-6.2862,-6.4128,-6.4655,-6.5208,-6.6438,-6.7543,-6.7041,-6.7668,-6.8472,-6.8522,-6.8572,-6.8748,-6.925,-6.9325,-6.9125,-6.8572,-6.802,-6.6789,-6.4053,-6.3324,-6.1994,0.0,0.0,0.0,0.0,0.0,0.0,0.0,0.0,0.0,0.0,0.0,0.0,0.0,0.0,-5.3432,-5.303,-5.3507,-5.4361,-5.5666,0.0,-6.1165,-6.5409,-6.6714,0.0,-7.2565,-7.2163,-7.2841,-7.4423,-7.4975,-7.5527,-7.6055,-7.6055,-7.6632,-7.7561,-7.7662,-7.8365,-7.9394,-7.9394,-7.9394,-7.9394,-7.9394,-7.9771,-8.0348,0.0,0.0,0.0,0.0,0.0,0.0,0.0,-5.3418,-5.4726,-5.5566,-5.584,-5.6094,-5.6543,-5.6816,-5.6953,-5.6953,-5.6953,-5.6953,-5.6953,-5.6562,-5.6211,-5.5937,-5.5605,-5.4902,-5.3789,-5.2578,-5.0293,0.0,0.0,0.0,0.0,0.0,0.0,0.0,0.0,-3.998,-4.1367,-4.2656,-4.4062,-4.5508,-4.6621,-4.8037,-4.9452,-4.8842,-4.9933,-5.1507,-5.0621,-5.0276,-5.0621,-5.3081,-5.4477,-5.5597,-5.8553,-5.9719,-6.0025,-6.0675,-6.1357,-6.2326,-6.4255,-6.5291,-6.6309,-6.8165,-6.8874,-6.9175,-6.9401,-6.92,-6.8899,-6.8673,-6.8196,-6.7367,-6.5936,-6.458,-6.3274,0.0,0.0,0.0,0.0,0.0,0.0,0.0,0.0,0.0,0.0,0.0,0.0,0.0,0.0,0.0,-5.3381,-5.3306,-5.3909,-5.534,0.0,-6.0663,-6.3776,-6.6237,-6.8748,-7.1259,-7.1359,-7.2288,-7.3946,-7.4498,-7.5226,-7.6055,-7.6055,-7.6682,-7.7712,-7.7712,-7.8365,-7.9394,-7.9394,-7.9394,-7.9394,-7.9394,-7.9746,-8.0248,-4.6094,0.0,-4.6543,0.0,-4.957,-5.0488,-5.332,-5.4375,-5.5176,-5.6015,-5.6133,-5.6289,-5.6719,-5.7031,-5.7265,-5.7383,-5.7402,-5.7402,-5.7402,-5.7012,-5.664,-5.6328,-5.6074,0.0,-5.4238,-5.3223,-5.1367,-4.8594,-4.6152,0.0,-4.1875,0.0,0.0,0.0,-3.9961,-4.1055,-4.2637,-4.3789,-4.4961,-4.6133,-4.7168,-4.7832,-4.8242,-4.8555,-4.875,-4.8867,-4.8867,-4.8867,-4.9216,-5.0803,-5.1326,-5.191,-5.538,-5.6637,-5.6907,-5.7559,-5.8007,-5.9001,-6.1713,-6.273,-6.4005,-6.7004,-6.742,-6.7507,-6.9064,-6.8584,-6.7925,-6.8669,-6.8547,-6.812,-6.7568,-6.5936,-6.468,-6.4705,0.0,0.0,0.0,0.0,0.0,0.0,-5.5491,-5.4034,-5.303,0.0,0.0,0.0,0.0,0.0,0.0,-5.3457,0.0,0.0,0.0,0.0,0.0,-6.5986,-6.8472,-7.028,-7.0807,-7.1962,-7.3619,-7.4322,-7.5176,-7.6055,-7.6055,-7.6582,-7.7461,-7.7637,-7.8264,-7.9143,-7.9319,-7.9394,-7.9394,-7.9394,-7.9645,-7.9997,-4.7305,-4.8223,-4.9355,-5.1094,-5.209,-5.3105,-5.4453,-5.5019,-5.5605,-5.6465,-5.6582,-5.6738,-5.7168,-5.7207,-5.7383,-5.7812,-5.7851,-5.7851,-5.7851,-5.7441,-5.7207,0.0,0.0,-5.5547,-5.4687,-5.3379,-5.166,-4.9512,0.0,-4.5391,-4.3633,0.0,-4.1367,-4.1777,-4.2207,-4.3125,-4.4414,-4.5293,-4.6133,-4.6953,-4.7402,-4.7832,-4.8203,-4.8223,-4.8476,-4.8867,-4.8867,-4.8867,-4.8867,-4.8848,-4.8848,-4.9748,-5.4499,-5.6192,-5.6839,-5.7178,-5.803,-5.9177,-6.0001,-6.0817,-6.1858,-6.4882,-6.3658,-6.3088,-6.8288,-6.7507,-6.6352,-6.8858,-6.9426,-6.925,-6.8698,-6.7693,-6.6564,-6.5459,0.0,0.0,0.0,0.0,0.0,0.0,-5.652,-5.5315,-5.313,0.0,0.0,0.0,0.0,0.0,0.0,0.0,0.0,-5.534,-5.7549,0.0,-6.2797,-6.5584,-6.8095,-7.028,-7.0807,-7.1962,-7.3644,-7.4724,-7.5527,-7.6055,-7.6055,-7.6381,-7.6933,-7.7486,-7.8038,-7.8591,-7.9168,-7.9394,-7.9394,-7.9394,-7.9394,-7.9469,-4.959,-5.0,-5.0547,-5.168,-5.2578,-5.3301,-5.3711,-5.4902,-5.5723,-5.5723,-5.623,-5.6855,-5.7578,-5.7656,-5.7598,0.0,-5.7969,-5.8203,0.0,-5.7461,-5.7207,-5.7207,-5.6387,-5.5547,-5.4707,-5.3672,-5.2246,-5.0391,0.0,0.0,0.0,-4.3301,-4.2969,-4.3105,-4.3242,-4.4043,-4.5312,-4.5859,-4.6758,-4.7812,-4.7949,-4.8262,-4.8652,-4.8652,-4.873,-4.8867,-4.8867,-4.8867,-4.8867,-4.8867,-4.8867,-4.9216,-5.0621,-5.1452,-5.1924,-5.2374,-5.2927,-5.3941,-5.6506,-5.7676,-5.8704,-6.1858,-6.3404,-6.4836,-6.6376,-6.7531,-6.8494,-6.9245,-6.9451,-6.9401,-6.9225,-6.8597,-6.7844,-6.7116,-6.5886,0.0,0.0,0.0,0.0,0.0,-5.4988,-5.3683,0.0,-5.3607,0.0,0.0,0.0,0.0,0.0,0.0,0.0,0.0,-5.8654,0.0,-6.2245,-6.576,-6.8271,-6.9727,-7.0631,-7.2163,-7.4171,-7.4523,-7.5176,-7.6055,-7.6055,-7.6356,-7.6883,-7.7059,-7.7687,-7.854,-7.8716,-7.9043,-7.9394,-7.9394,-7.9394,-7.9419,-5.0703,-5.0937,-5.1308,-5.2168,-5.2754,-5.3281,-5.3769,-5.4902,-5.5664,-5.5566,-5.6152,-5.6797,-5.7324,-5.7519,0.0,-5.791,-5.8301,0.0,-5.8379,-5.7793,-5.7461,-5.7461,-5.6484,-5.5605,-5.4941,0.0,0.0,-5.1523,-4.9297,-4.7305,-4.5586,-4.4805,-4.4609,-4.4922,-4.4922,-4.5547,-4.6641,-4.6914,-4.7578,-4.8457,-4.8457,-4.8613,-4.8867,-4.8867,-4.8867,-4.8867,-4.8867,-4.8867,-4.8867,-4.8867,-4.8867,-4.8887,-4.9062,-4.9414,-4.9824,-5.0098,-5.0469,-5.1361,-5.3894,-5.4832,-5.6022,-6.0092,-6.194,-6.3302,-6.5211,-6.7531,-6.9451,-6.9451,-6.9451,-6.9451,-6.9451,-6.8999,-6.8447,-6.7894,-6.6564,-6.4806,-6.2521,0.0,0.0,0.0,0.0,0.0,0.0,-5.4737,0.0,0.0,0.0,0.0,0.0,0.0,0.0,-5.6595,-5.9784,0.0,-6.3224,-6.6262,-6.8346,-6.9451,-7.0983,-7.2665,-7.4423,-7.4423,-7.5025,-7.6055,-7.6055,-7.6256,-7.6582,-7.6783,-7.7411,-7.8239,-7.844,-7.8867,-7.9394,-7.9394,-7.9394,-7.9394,-5.0879,-5.1211,0.0,0.0,-5.2773,0.0,-5.4492,-5.5058,-5.5488,-5.5879,-5.6308,-5.6601,-5.6621,-5.6953,-5.7695,-5.8965,0.0,0.0,0.0,-5.8262,-5.7812,-5.7754,-5.6562,0.0,-5.5176,-5.3945,-5.3066,-5.2578,-4.9766,-4.8164,-4.7695,-4.6465,-4.6289,-4.7012,-4.6992,-4.7441,-4.8203,-4.8203,-4.8457,-4.8867,-4.8867,-4.8867,-4.8867,-4.8867,-4.8867,-4.8867,-4.8867,-4.8867,-4.8867,-4.8867,-4.8867,-4.8945,-4.9394,-4.9824,-5.0195,-5.0215,-5.0527,-5.1016,-5.1816,-5.2363,-5.3945,-5.9305,-5.9247,-5.9245,-6.4248,-6.7323,-6.9064,-6.9064,-6.927,-6.9451,-6.9451,-6.8999,-6.8447,-6.7945,-6.6789,-6.4831,-6.1642,0.0,0.0,0.0,0.0,0.0,0.0,-5.6168,-5.6872,0.0,0.0,0.0,0.0,0.0,-5.6671,-5.8755,-6.1014,-6.3199,-6.5333,-6.699,-6.8396,-6.9577,-7.1711,-7.3318,-7.4423,-7.4423,-7.5025,-7.6055,-7.6055,-7.6055,-7.6105,-7.6607,-7.7159,-7.7712,-7.8239,-7.8817,-7.9344,-7.9369,-7.9394,-7.9394,0.0,0.0,-5.2187,-5.3047,-5.3496,-5.3945,-5.459,-5.5312,-5.582,-5.5918,-5.6308,-5.6699,-5.7031,-5.6855,-5.7129,-5.8086,-5.8086,-5.791,-5.7695,-5.748,-5.7226,-5.6894,-5.5976,-5.4941,-5.3848,-5.3183,-5.2344,-5.125,-5.0547,-4.9805,-4.9062,-4.8398,-4.8027,-4.7891,-4.7578,-4.7715,-4.8203,-4.8203,-4.8457,-4.8867,-4.8867,-4.8867,-4.8867,-4.8867,-4.8867,-4.8867,-4.8867,-4.8867,-4.8867,-4.8867,-4.8867,-4.8945,-4.9394,-4.9824,-5.0234,-5.0566,-5.0957,-5.1328,-5.1523,-5.2129,-5.3113,-5.4361,-5.6334,-5.8676,-6.1941,-6.4625,-6.6561,-6.6561,-6.8105,-6.9451,-6.9451,-6.8999,-6.8572,-6.8447,-6.6086,-6.355,-6.1466,-5.9382,0.0,0.0,-5.5942,-5.6445,-5.6445,-5.7198,-5.765,0.0,0.0,0.0,0.0,0.0,-5.9382,-5.991,-6.2496,-6.453,-6.5911,-6.7166,-6.8773,-7.0706,-7.2087,-7.3318,-7.4423,-7.4423,-7.5025,-7.6055,-7.6055,-7.6055,-7.6055,-7.6205,-7.6582,-7.7134,-7.7687,-7.8239,-7.8792,-7.9218,-7.9394,-7.9394,-5.1699,-5.1953,-5.2285,-5.2949,-5.3437,-5.3867,-5.4316,-5.5098,-5.5644,-5.5644,-5.6191,-5.668,-5.6894,-5.6719,-5.6777,-5.7226,-5.7461,-5.7539,-5.7519,-5.7324,-5.7031,-5.6601,-5.5762,-5.4785,-5.3691,-5.3047,-5.2187,-5.1094,-5.0703,-5.0273,-4.9805,-4.916,-4.873,-4.8496,-4.8262,-4.8301,-4.8496,-4.8496,-4.8633,-4.8867,-4.8867,-4.8867,-4.8867,-4.8867,-4.8867,-4.8867,-4.8867,-4.8867,-4.8867,-4.8867,-4.8984,-4.9238,-4.9687,-5.0117,-5.0547,-5.0976,-5.125,-5.1426,-5.1426,-5.1914,-5.2896,-5.4421,-5.6997,-6.0132,-6.2852,-6.4648,-6.5981,-6.7139,-6.847,-6.9451,-6.9451,-6.8999,-6.8296,-6.7267,-6.4957,-6.2345,-5.9659,-5.8252,0.0,-5.5566,-5.6821,-5.8001,-5.8478,-5.9282,-5.9558,-5.9056,0.0,0.0,-5.9031,-6.104,-6.1868,-6.1115,-6.3776,-6.576,-6.6865,-6.8497,-7.0029,-7.146,-7.2313,-7.3318,-7.4423,-7.4423,-7.5025,-7.6055,-7.6055,-7.6055,-7.6055,-7.6055,-7.6381,-7.6908,-7.721,-7.7812,-7.8566,-7.8867,-7.9168,-7.9394,-5.1523,-5.1875,-5.2305,-5.2734,-5.3164,-5.3613,-5.4062,-5.4746,-5.5254,-5.539,-5.6035,-5.6504,-5.6582,-5.6582,-5.6582,-5.6582,-5.6914,-5.7265,-5.7656,-5.7265,-5.6836,-5.6406,-5.5566,-5.4707,-5.3848,-5.2969,-5.2148,-5.1426,-5.0644,-5.0234,-5.0156,-4.9336,-4.8926,-4.8867,-4.8867,-4.8867,-4.8867,-4.8867,-4.8867,-4.8867,-4.8867,-4.8867,-4.8867,-4.8867,-4.8867,-4.8867,-4.8867,-4.8867,-4.8867,-4.8945,-4.9219,-4.9609,-5.0117,-5.0527,-5.0879,-5.1308,-5.1426,-5.1445,-5.1523,-5.1894,-5.3015,-5.5828,-5.832,-6.0527,-6.3261,-6.4132,-6.4929,-6.7115,-6.8288,-6.8883,-6.8883,-6.849,-6.7744,-6.586,-6.3726,-6.114,-5.775,0.0,-5.6821,-5.5892,-5.7876,-5.9734,-6.0738,-6.1617,-6.1793,-6.1014,-6.2044,-6.2195,0.0,-6.3274,-6.3977,-6.2672,-6.4982,-6.6815,-6.8045,-7.0154,-7.1435,-7.1912,-7.2464,-7.3268,-7.4297,-7.4372,-7.4975,-7.5929,-7.603,-7.6055,-7.6055,-7.6055,-7.6331,-7.6758,-7.6833,-7.7461,-7.8289,-7.8365,-7.8716,-7.9143,-5.1914,-5.2324,-5.2754,-5.3183,-5.3633,-5.4082,-5.4512,-5.4687,-5.5039,-5.5742,-5.5957,-5.6172,-5.6543,-5.6582,-5.6582,-5.6582,-5.664,-5.6719,-5.6777,-5.6367,-5.5937,-5.5527,-5.4687,-5.3808,-5.293,-5.207,-5.1562,-5.1426,-5.0937,-5.0527,-5.0176,-4.9668,-4.9219,-4.8867,-4.8867,-4.8867,-4.8867,-4.8867,-4.8867,-4.8867,-4.8867,-4.8867,-4.8867,-4.8867,-4.8867,-4.8867,-4.8867,-4.8867,-4.8906,-4.9297,-4.9473,-4.9668,-5.0449,-5.0762,-5.0879,-5.1308,-5.1426,-5.1523,-5.1875,-5.2558,-5.3384,-5.3904,-5.4324,-5.4724,-5.5164,-5.6905,-5.8729,-5.955,-6.3088,-6.619,-6.619,-6.6718,-6.7116,-6.6764,-6.2948,-5.9633,-5.8579,0.0,-5.77,-5.7524,-6.0286,-6.2446,-6.3099,-6.2898,-6.2998,-6.3776,-6.2772,-6.2621,-6.3776,-6.468,-6.5258,-6.5459,-6.6363,-6.7593,-6.9175,-7.0907,-7.1836,-7.1912,-7.2464,-7.3092,-7.3745,-7.4197,-7.4774,-7.5402,-7.5854,-7.6055,-7.6055,-7.6055,-7.6105,-7.623,-7.6682,-7.6984,-7.7185,-7.7662,-7.7888,-7.8038,-5.1699,-5.207,-5.2441,-5.2637,-5.3223,-5.373,-5.3945,-5.457,-5.5156,-5.5547,-5.5996,-5.6367,-5.6562,-5.6582,-5.6582,-5.6582,-5.6582,-5.6582,-5.6582,-5.6406,-5.5996,-5.5332,-5.4707,-5.375,-5.2402,-5.1758,-5.1328,-5.1094,-5.0898,-5.0469,-4.9824,-4.9629,-4.9297,-4.8867,-4.8867,-4.8867,-4.8867,-4.9121,-4.9082,-4.8887,-4.9121,-4.9082,-4.8867,-4.8867,-4.8867,-4.8867,-4.8867,-4.9023,-4.9258,-4.9453,-4.9844,-5.0273,-5.0683,-5.0957,-5.1172,-5.1367,-5.1426,-5.1523,-5.1973,-5.2363,-5.2793,-5.3242,-5.3359,-5.3801,-5.5406,-5.6801,-5.8007,-5.9593,-6.1749,-6.3468,-6.3468,-6.3408,-6.3577,-6.4002,-6.0306,0.0,0.0,-5.8227,-5.8227,-5.9131,-6.1642,-6.3751,-6.4881,-6.4479,-6.4479,-6.5283,-6.4655,-6.4555,-6.5308,-6.5886,-6.6589,-6.7442,-6.8296,-6.9401,-7.0757,-7.1811,-7.2339,-7.2339,-7.2615,-7.3042,-7.3619,-7.4171,-7.4724,-7.5276,-7.5829,-7.6055,-7.6055,-7.6055,-7.6055,-7.608,-7.6331,-7.6607,-7.6908,-7.7159,-7.7436,-7.7787,-5.1426,-5.1855,-5.2226,-5.2226,-5.2949,-5.3516,-5.3516,-5.4453,-5.5195,-5.5293,-5.5957,-5.6465,-5.6582,-5.6582,-5.6582,-5.6582,-5.6582,-5.6582,-5.6582,-5.6484,-5.6055,-5.5195,-5.4473,-5.3398,-5.1973,-5.1601,-5.1269,-5.0957,-5.0859,-5.041,-4.9668,-4.957,-4.9297,-4.8867,-4.8867,-4.8867,-4.8887,-4.9219,-4.918,-4.8887,-4.9238,-4.916,-4.8867,-4.8867,-4.8867,-4.8867,-4.8984,-4.9238,-4.9551,-4.9766,-5.0254,-5.082,-5.0918,-5.1172,-5.1426,-5.1426,-5.1504,-5.168,-5.2109,-5.2305,-5.2519,-5.3066,-5.3281,-5.4022,-5.6307,-5.6767,-5.7405,-5.9549,-6.0483,-6.0783,-6.0783,-6.0853,-6.1143,-6.1546,0.0,0.0,0.0,-5.8905,-5.9232,-6.0763,-6.2898,-6.4806,-6.6187,-6.6036,-6.6036,-6.6463,-6.6513,-6.6564,-6.6689,-6.7241,-6.812,-6.9351,-7.0079,-7.0907,-7.1887,-7.2439,-7.274,-7.274,-7.274,-7.2966,-7.3418,-7.4096,-7.4649,-7.5075,-7.5753,-7.6055,-7.6055,-7.6055,-7.6055,-7.6055,-7.6055,-7.6306,-7.6682,-7.6682,-7.6959,-7.7411,-5.1426,-5.209,-5.2656,-5.2656,-5.3398,-5.3984,-5.3984,-5.4394,-5.4863,-5.5254,-5.5703,-5.6133,-5.6543,-5.6582,-5.6582,-5.6582,-5.6582,-5.6582,-5.6582,-5.6211,-5.5605,-5.4765,-5.3144,-5.2031,-5.1484,-5.1445,-5.1406,-5.1387,-5.0996,-5.0566,-5.0117,-4.9707,-4.9297,-4.8867,-4.8867,-4.8867,-4.8867,-4.8887,-4.8887,-4.8867,-4.8887,-4.8887,-4.8867,-4.8867,-4.8867,-4.8906,-4.9336,-4.9492,-4.9648,-5.0449,-5.0762,-5.0879,-5.1269,-5.1406,-5.1426,-5.1426,-5.1719,-5.2129,-5.2558,-5.2949,-5.3183,-5.2832,-5.3066,-5.3359,-5.36,-5.3801,-5.4038,-5.5049,-5.6839,-5.8105,-5.8105,-6.075,-6.2563,-6.1651,0.0,0.0,-6.0989,-6.0964,-6.1366,-6.2496,-6.4605,-6.6187,-6.684,-6.7342,-6.7643,-6.7668,-6.7668,-6.7894,-6.8422,-6.8949,-7.0003,-7.161,-7.1259,-7.1309,-7.1887,-7.2439,-7.274,-7.274,-7.274,-7.274,-7.2841,-7.392,-7.4448,-7.4523,-7.5603,-7.6055,-7.6055,-7.6055,-7.6055,-7.6055,-7.6055,-7.608,-7.6105,-7.6105,-7.613,-7.6331,-5.1426,-5.1699,-5.2012,-5.2266,-5.2812,-5.3301,-5.3574,-5.4219,-5.4746,-5.4902,-5.5293,-5.5703,-5.6133,-5.6191,-5.6289,-5.6562,-5.6582,-5.6465,-5.6191,-5.5547,-5.4765,-5.3906,-5.2715,-5.1875,-5.1445,-5.1426,-5.1308,-5.1035,-5.0879,-5.0449,-4.9766,-4.9609,-4.9297,-4.8867,-4.8867,-4.8867,-4.8867,-4.916,-4.9121,-4.8887,-4.916,-4.9101,-4.8867,-4.8867,-4.9023,-4.9297,-4.9473,-4.9863,-5.0371,-5.0703,-5.0976,-5.123,-5.1387,-5.1426,-5.1484,-5.1758,-5.1953,-5.2168,-5.2598,-5.3027,-5.3379,-5.3496,-5.3652,-5.3769,-5.3769,-5.3769,-5.3867,-5.4219,-5.4917,-5.5386,-5.5386,-5.7373,-5.9306,-6.0409,0.0,-6.0807,-6.341,-6.3149,-6.3274,-6.4705,-6.6212,-6.7367,-6.7945,-6.8196,-6.8321,-6.8321,-6.8622,-6.8773,-6.8622,-6.9777,-7.0907,-7.1887,-7.2037,-7.2213,-7.2414,-7.2615,-7.274,-7.274,-7.274,-7.274,-7.2765,-7.3895,-7.4423,-7.4473,-7.5578,-7.6055,-7.6055,-7.6055,-7.6055,-7.6055,-7.6055,-7.6055,-7.6055,-7.6055,-7.6055,-7.6155,-5.0217,-5.1035,-5.1933,-5.2226,-5.2754,-5.3223,-5.3516,-5.4316,-5.4824,-5.4707,-5.5293,-5.5762,-5.5918,-5.6055,-5.625,-5.6562,-5.6582,-5.6406,-5.5957,-5.4883,-5.3867,-5.3008,-5.2266,-5.1738,-5.1445,-5.1426,-5.1289,-5.0996,-5.0859,-5.043,-4.9726,-4.959,-4.9297,-4.8867,-4.8867,-4.8945,-4.9082,-4.9394,-4.9433,-4.9297,-4.9453,-4.9336,-4.9062,-4.9062,-4.9258,-4.957,-4.9824,-5.0312,-5.082,-5.0957,-5.1191,-5.1426,-5.1426,-5.1426,-5.1523,-5.1953,-5.2168,-5.2383,-5.2793,-5.3242,-5.3613,-5.3769,-5.3926,-5.4062,-5.4199,-5.4141,-5.4101,-5.4375,-5.4219,-5.4023,-5.4023,-5.6116,-5.8274,-5.9516,-6.0767,-6.2495,-6.5238,-6.5082,-6.5208,-6.6488,-6.7493,-6.8196,-6.8597,-6.8773,-6.8874,-6.8874,-6.9225,-6.9426,-6.9401,-7.0631,-7.1585,-7.2138,-7.2539,-7.274,-7.274,-7.274,-7.274,-7.274,-7.274,-7.2816,-7.3042,-7.3971,-7.4498,-7.4724,-7.5653,-7.6055,-7.6055,-7.6055,-7.6055,-7.6055,-7.6055,-7.6055,-7.6055,-7.6055,-7.6055,-7.613,-4.7383,-5.0271,-5.2695,-5.2695,-5.3437,-5.4023,-5.4023,-5.4746,-5.5156,-5.4726,-5.5781,-5.6406,-5.5976,-5.6308,-5.6582,-5.6582,-5.6582,-5.6387,-5.5937,-5.4316,-5.2969,-5.2109,-5.166,-5.1426,-5.1426,-5.1426,-5.1426,-5.1426,-5.1016,-5.0586,-5.0176,-4.9726,-4.9297,-4.8867,-4.8867,-4.9101,-4.9531,-4.9531,-4.9785,-5.0137,-4.9707,-4.9531,-4.9531,-4.9531,-4.9531,-4.9648,-5.0508,-5.0801,-5.0879,-5.1289,-5.1426,-5.1426,-5.1426,-5.1426,-5.1523,-5.1953,-5.2383,-5.2812,-5.3242,-5.3691,-5.3926,-5.3476,-5.3691,-5.4141,-5.457,-5.4336,-5.4277,-5.5117,-5.4629,-5.4023,-5.4023,-5.7705,-6.0328,-5.8854,-6.3278,-6.6789,-6.6212,-6.6639,-6.7191,-6.7744,-6.8296,-6.8622,-6.8622,-6.9125,-6.9451,-6.9451,-6.9451,-6.9928,-7.1033,-7.161,-7.2163,-7.2715,-7.274,-7.274,-7.274,-7.274,-7.274,-7.274,-7.274,-7.3042,-7.3619,-7.4171,-7.4724,-7.5276,-7.5829,-7.6055,-7.6055,-7.6055,-7.6055,-7.6055,-7.6055,-7.6055,-7.6055,-7.6055,-7.6055,-7.613,-4.7383,-4.9799,-5.1914,-5.2207,-5.2734,-5.3203,-5.3516,-5.4043,-5.4375,-5.4238,-5.4824,-5.5312,-5.5469,-5.5879,-5.625,-5.6562,-5.6308,-5.5566,-5.4219,-5.3359,-5.2519,-5.166,-5.1504,-5.1426,-5.1426,-5.1426,-5.1426,-5.1426,-5.0723,-5.0449,-5.0586,-4.9551,-4.9316,-4.9766,-4.9473,-4.9414,-4.9531,-4.9531,-4.9609,-4.9707,-4.959,-4.9707,-4.998,-4.998,-5.0176,-5.0449,-5.0723,-5.0996,-5.1269,-5.1387,-5.1426,-5.1426,-5.1426,-5.1426,-5.1523,-5.1953,-5.2383,-5.2812,-5.3242,-5.3691,-5.4004,-5.3867,-5.3926,-5.4062,-5.4199,-5.4121,-5.4101,-5.4355,-5.4219,-5.4023,-5.4023,-5.6362,-5.8578,-6.005,-6.2801,-6.5689,-6.799,-6.8597,-6.8924,-6.9451,-6.9677,-6.9627,-6.9225,-6.9351,-6.9451,-6.9451,-6.9451,-6.9928,-7.1033,-7.1234,-7.1761,-7.269,-7.274,-7.274,-7.274,-7.274,-7.274,-7.274,-7.274,-7.2816,-7.3016,-7.3971,-7.4498,-7.4724,-7.5653,-7.6055,-7.6055,-7.6055,-7.6055,-7.6055,-7.6055,-7.6055,-7.6055,-7.6055,-7.6055,-7.608,-4.5753,-4.8916,-5.1777,-5.2031,-5.2578,-5.3066,-5.332,-5.3887,-5.4219,-5.4043,-5.4551,-5.4961,-5.5058,-5.543,-5.5801,-5.6055,-5.5683,-5.4844,-5.3457,-5.2949,-5.2402,-5.1719,-5.1523,-5.1426,-5.1426,-5.1426,-5.1426,-5.1426,-5.0762,-5.0547,-5.0781,-4.9824,-4.9668,-5.0176,-4.9902,-4.9883,-5.0019,-4.9863,-4.9883,-5.0019,-4.9844,-4.9941,-5.0195,-5.0371,-5.0586,-5.082,-5.0996,-5.1211,-5.1426,-5.1426,-5.1426,-5.1426,-5.1426,-5.1543,-5.1777,-5.2207,-5.2637,-5.3066,-5.3516,-5.3828,-5.4023,-5.4023,-5.416,-5.4297,-5.4297,-5.4414,-5.4492,-5.4316,-5.4297,-5.4238,-5.4062,-5.5928,-5.7795,-5.9138,-6.2241,-6.5351,-6.7322,-6.8908,-6.9803,-6.9928,-7.033,-7.028,-6.9526,-6.9652,-6.9677,-6.9451,-6.9652,-7.0154,-7.1033,-7.1284,-7.1811,-7.269,-7.274,-7.274,-7.274,-7.274,-7.274,-7.274,-7.274,-7.2966,-7.3418,-7.4096,-7.4649,-7.5101,-7.5778,-7.6055,-7.6055,-7.6055,-7.6055,-7.6055,-7.6055,-7.6055,-7.6055,-7.6055,-7.6055,-7.6055,-4.2863,-4.7835,-5.2031,-5.1815,-5.2496,-5.3242,-5.3242,-5.4004,-5.4414,-5.4023,-5.4726,-5.5117,-5.4726,-5.5098,-5.5351,-5.5312,-5.4922,-5.4316,-5.3418,-5.2949,-5.2519,-5.2109,-5.166,-5.1426,-5.1426,-5.1426,-5.1426,-5.1426,-5.1016,-5.082,-5.0859,-5.0391,-5.0215,-5.0293,-5.0254,-5.0449,-5.0781,-5.0351,-5.0391,-5.0723,-5.0332,-5.0195,-5.0273,-5.0703,-5.0859,-5.0918,-5.1289,-5.1426,-5.1426,-5.1426,-5.1426,-5.1426,-5.1426,-5.1699,-5.2109,-5.2539,-5.2949,-5.3398,-5.3848,-5.4004,-5.4023,-5.4023,-5.4355,-5.4668,-5.4629,-5.4922,-5.5078,-5.4707,-5.4629,-5.4512,-5.4101,-5.5971,-5.7384,-5.7122,-6.1649,-6.5255,-6.5014,-6.8119,-7.0129,-6.9577,-7.048,-7.0706,-6.9551,-6.9903,-7.0029,-6.9627,-7.0003,-7.0531,-7.1133,-7.1636,-7.2163,-7.2715,-7.274,-7.274,-7.274,-7.274,-7.274,-7.274,-7.274,-7.3293,-7.4347,-7.4397,-7.5,-7.5979,-7.603,-7.6055,-7.6055,-7.6055,-7.6055,-7.6055,-7.6055,-7.6055,-7.6055,-7.6055,-7.6055,-7.6055,-4.0295,-4.6211,-5.0957,-4.8719,-5.0573,-5.2363,-5.2363,-5.3086,-5.3613,-5.3516,-5.4277,-5.4785,-5.4687,-5.5351,-5.5664,-5.5332,-5.4922,-5.4316,-5.3418,-5.2949,-5.2519,-5.2109,-5.166,-5.1426,-5.1426,-5.1426,-5.1426,-5.1426,-5.1016,-5.0976,-5.1269,-5.0527,-5.0527,-5.1152,-5.082,-5.0723,-5.0781,-5.0351,-5.0234,-5.0312,-5.0215,-5.0371,-5.0723,-5.1133,-5.1289,-5.1308,-5.1406,-5.1426,-5.1426,-5.1426,-5.1426,-5.1426,-5.1426,-5.1504,-5.166,-5.209,-5.2519,-5.2949,-5.3398,-5.3769,-5.4023,-5.4023,-5.4355,-5.459,-5.4258,-5.4238,-5.4277,-5.418,-5.418,-5.4141,-5.4043,-5.4411,-5.5548,-5.7384,-6.0523,-6.337,-6.5777,-6.8906,-7.0706,-7.0154,-7.1058,-7.1133,-6.9602,-6.9551,-6.9928,-7.0681,-7.043,-7.0681,-7.1686,-7.1836,-7.2163,-7.2715,-7.274,-7.274,-7.274,-7.274,-7.274,-7.274,-7.274,-7.3092,-7.3795,-7.4222,-7.4774,-7.5427,-7.5854,-7.6055,-7.6055,-7.6055,-7.6055,-7.6055,-7.6055,-7.6055,-7.6055,-7.6055,-7.6055,-7.613,-3.9215,-4.4476,-4.9002,-4.7582,-4.995,-5.2148,-5.2344,-5.293,-5.3437,-5.3652,-5.4082,-5.4375,-5.4375,-5.4765,-5.4844,-5.4414,-5.418,-5.3848,-5.3398,-5.2773,-5.2402,-5.2383,-5.1777,-5.1426,-5.1426,-5.1426,-5.1426,-5.1426,-5.1211,-5.1211,-5.1426,-5.0976,-5.1016,-5.1426,-5.1211,-5.1094,-5.1074,-5.0664,-5.0469,-5.0469,-5.0469,-5.0605,-5.0859,-5.1269,-5.1426,-5.1426,-5.1426,-5.1426,-5.1426,-5.1426,-5.1426,-5.1426,-5.1426,-5.1582,-5.1836,-5.2266,-5.2676,-5.3125,-5.3555,-5.3848,-5.4023,-5.4023,-5.4199,-5.4316,-5.4082,-5.4336,-5.4531,-5.4121,-5.4199,-5.4277,-5.4062,-5.4023,-5.4411,-5.5769,-5.8281,-6.0483,-6.2085,-6.6038,-6.872,-6.818,-7.0291,-7.156,-7.0706,-7.038,-7.0455,-7.1033,-7.1058,-7.1309,-7.1887,-7.2163,-7.2439,-7.2715,-7.274,-7.274,-7.274,-7.274,-7.274,-7.274,-7.3016,-7.3569,-7.4397,-7.4674,-7.5101,-7.5653,-7.5929,-7.6055,-7.6055,-7.6055,-7.6055,-7.6055,-7.6055,-7.6055,-7.6055,-7.6055,-7.6055,-7.6105,-3.8148,-4.2635,-4.6769,-4.6769,-4.9281,-5.1479,-5.2441,-5.293,-5.3379,-5.375,-5.3945,-5.4023,-5.4023,-5.4023,-5.3906,-5.3613,-5.3516,-5.3437,-5.3359,-5.2637,-5.2305,-5.2598,-5.1914,-5.1504,-5.1426,-5.1504,-5.1504,-5.1426,-5.1426,-5.1426,-5.1426,-5.1426,-5.1426,-5.1426,-5.1426,-5.1426,-5.1406,-5.0976,-5.0801,-5.0801,-5.0801,-5.0801,-5.0859,-5.1269,-5.1426,-5.1426,-5.1426,-5.1426,-5.1426,-5.1426,-5.1426,-5.1426,-5.1426,-5.168,-5.207,-5.2558,-5.2969,-5.3359,-5.3887,-5.4023,-5.4023,-5.4023,-5.4023,-5.4023,-5.4023,-5.459,-5.4883,-5.418,-5.4316,-5.4453,-5.4101,-5.4023,-5.4023,-5.4023,-5.6151,-5.7906,-5.7906,-6.2732,-6.6155,-6.5656,-6.9176,-7.1736,-7.2012,-7.146,-7.1133,-7.1209,-7.156,-7.1811,-7.1912,-7.2339,-7.264,-7.274,-7.274,-7.274,-7.274,-7.274,-7.2791,-7.2891,-7.3468,-7.4222,-7.5101,-7.5101,-7.5452,-7.6055,-7.6055,-7.6055,-7.6055,-7.6055,-7.6055,-7.6055,-7.6055,-7.6055,-7.6055,-7.6055,-7.6055,-7.6055,-3.5376,-3.9653,-4.3925,-4.3925,-4.6205,-4.8898,-5.1192,-5.2285,-5.2812,-5.2891,-5.3555,-5.4023,-5.4023,-5.4023,-5.416,-5.4473,-5.416,-5.3769,-5.3379,-5.2891,-5.248,-5.2187,-5.2051,-5.1816,-5.1445,-5.1797,-5.1816,-5.1426,-5.1426,-5.1426,-5.1426,-5.1426,-5.1426,-5.1426,-5.1426,-5.1426,-5.1406,-5.0976,-5.0801,-5.0801,-5.0801,-5.0801,-5.0859,-5.1269,-5.1426,-5.1426,-5.1426,-5.1426,-5.1426,-5.1426,-5.1426,-5.1426,-5.1426,-5.1465,-5.168,-5.248,-5.2754,-5.2969,-5.3808,-5.4023,-5.4023,-5.4023,-5.4023,-5.4023,-5.4023,-5.4121,-5.416,-5.4043,-5.4082,-5.4101,-5.4043,-5.4023,-5.4023,-5.4023,-5.6151,-5.7906,-5.7906,-6.2732,-6.6155,-6.5656,-6.8512,-7.1033,-7.2489,-7.1686,-7.1284,-7.1761,-7.141,-7.141,-7.1887,-7.1987,-7.2238,-7.2715,-7.274,-7.274,-7.274,-7.274,-7.2991,-7.3468,-7.4046,-7.4372,-7.4523,-7.4523,-7.5075,-7.6055,-7.6055,-7.6055,-7.6055,-7.6055,-7.6055,-7.6055,-7.6055,-7.6055,-7.6055,-7.6055,-7.6055,-7.6055,-3.4514,-3.787,-4.1265,-4.3083,-4.5552,-4.8465,-5.1347,-5.2109,-5.2441,-5.2676,-5.3047,-5.3301,-5.3301,-5.3516,-5.3828,-5.4277,-5.3906,-5.3672,-5.373,-5.3086,-5.2734,-5.2793,-5.2558,-5.2344,-5.2148,-5.2344,-5.2226,-5.1797,-5.1543,-5.1426,-5.1426,-5.1426,-5.1426,-5.1426,-5.1426,-5.1426,-5.1426,-5.123,-5.1152,-5.1152,-5.1152,-5.1152,-5.1172,-5.1367,-5.1426,-5.1426,-5.1426,-5.1426,-5.1426,-5.1426,-5.1426,-5.1426,-5.1426,-5.1426,-5.1601,-5.2461,-5.2715,-5.291,-5.3789,-5.4023,-5.4023,-5.4023,-5.4023,-5.4023,-5.4023,-5.4023,-5.4023,-5.4023,-5.4023,-5.4023,-5.4023,-5.4023,-5.4023,-5.4023,-5.5001,-5.5769,-5.5769,-6.0375,-6.4976,-6.7947,-6.9531,-7.0782,-7.2138,-7.156,-7.1309,-7.1861,-7.1384,-7.1309,-7.1887,-7.1912,-7.2163,-7.2715,-7.274,-7.274,-7.274,-7.274,-7.2866,-7.3117,-7.3694,-7.4272,-7.4875,-7.5201,-7.5603,-7.6055,-7.6055,-7.6055,-7.6055,-7.6055,-7.6055,-7.6055,-7.6055,-7.6055,-7.6055,-7.6055,-7.6055,-7.6055]}]]